[[{"header":{"parameterUnit":"m.s-1","parameterCategory":1,"la1":30.6,"la2":28.766,"lo1":-90.7593,"lo2":-88.6598,"dx":0.0162,"dy":0.0183,"nx":116,"ny":114,"refTime":"2022-12-03T06:00:00:Z","depth":0,"parameterNumber":2,"parameterNumberName":"U-component_of_WINDS"},"data":[0.0,0.0,0.0,0.0,0.0,0.0,0.0,0.0,0.0,0.0,0.0,0.0,0.0,0.0,0.0,0.0,0.0,0.0,0.0,0.0,0.0,0.0,0.0,0.0,0.0,0.0,0.0,0.0,0.0,0.0,0.0,0.0,0.0,0.0,0.0,0.0,0.0,0.0,0.0,0.0,0.0,0.0,0.0,0.0,0.0,0.0,0.0,0.0,0.0,0.0,0.0,0.0,0.0,0.0,0.0,0.0,0.0,0.0,0.0,0.0,0.0,0.0,0.0,0.0,0.0,0.0,0.0,0.0,0.0,0.0,0.0,0.0,0.0,0.0,0.0,0.0,0.0,0.0,0.0,0.0,0.0,0.0,0.0,0.0,0.0,0.0,0.0,0.0,0.0,0.0,0.0,0.0,0.0,0.0,0.0,0.0,0.0,0.0,0.0,0.0,0.0,0.0,0.0,0.0,0.0,0.0,0.0,0.0,0.0,0.0,0.0,0.0,0.0,0.0,0.0,0.0,0.0,0.0,0.0,0.0,0.0,0.0,0.0,0.0,0.0,0.0,0.0,0.0,0.0,0.0,0.0,0.0,0.0,0.0,0.0,0.0,0.0,0.0,0.0,0.0,0.0,0.0,0.0,0.0,0.0,0.0,0.0,0.0,0.0,0.0,0.0,0.0,0.0,0.0,0.0,0.0,0.0,0.0,0.0,0.0,0.0,0.0,0.0,0.0,0.0,0.0,0.0,0.0,0.0,0.0,0.0,0.0,0.0,0.0,0.0,0.0,0.0,0.0,0.0,0.0,0.0,0.0,0.0,0.0,0.0,0.0,0.0,0.0,0.0,0.0,0.0,0.0,0.0,0.0,0.0,0.0,0.0,0.0,0.0,0.0,0.0,0.0,0.0,0.0,0.0,0.0,0.0,0.0,0.0,0.0,0.0,0.0,0.0,0.0,0.0,0.0,0.0,0.0,0.0,0.0,0.0,0.0,0.0,0.0,0.0,0.0,0.0,0.0,0.0,0.0,0.0,0.0,0.0,0.0,0.0,0.0,0.0,0.0,0.0,0.0,0.0,0.0,0.0,0.0,0.0,0.0,0.0,0.0,0.0,0.0,0.0,0.0,0.0,0.0,0.0,0.0,0.0,0.0,0.0,0.0,0.0,0.0,0.0,0.0,0.0,0.0,0.0,0.0,0.0,0.0,0.0,0.0,0.0,0.0,0.0,0.0,0.0,0.0,0.0,0.0,0.0,0.0,0.0,0.0,0.0,0.0,0.0,0.0,0.0,0.0,0.0,0.0,0.0,0.0,0.0,0.0,0.0,0.0,0.0,0.0,0.0,0.0,0.0,0.0,0.0,0.0,0.0,0.0,0.0,0.0,0.0,0.0,0.0,0.0,0.0,0.0,0.0,0.0,0.0,0.0,0.0,0.0,0.0,0.0,0.0,0.0,0.0,0.0,0.0,0.0,0.0,0.0,0.0,0.0,0.0,0.0,0.0,0.0,0.0,0.0,0.0,0.0,0.0,0.0,0.0,0.0,0.0,0.0,0.0,0.0,0.0,0.0,0.0,0.0,0.0,0.0,0.0,0.0,0.0,0.0,0.0,0.0,0.0,0.0,0.0,0.0,0.0,0.0,0.0,0.0,0.0,0.0,0.0,0.0,0.0,0.0,0.0,0.0,0.0,0.0,0.0,0.0,0.0,0.0,0.0,0.0,0.0,0.0,0.0,0.0,0.0,0.0,0.0,0.0,0.0,0.0,0.0,0.0,0.0,0.0,0.0,0.0,0.0,0.0,0.0,0.0,0.0,0.0,0.0,0.0,0.0,0.0,0.0,0.0,0.0,0.0,0.0,0.0,0.0,0.0,0.0,0.0,0.0,0.0,0.0,0.0,0.0,0.0,0.0,0.0,0.0,0.0,0.0,0.0,0.0,0.0,0.0,0.0,0.0,0.0,0.0,0.0,0.0,0.0,0.0,0.0,0.0,0.0,0.0,0.0,0.0,0.0,0.0,0.0,0.0,0.0,0.0,0.0,0.0,0.0,0.0,0.0,0.0,0.0,0.0,0.0,0.0,0.0,0.0,0.0,0.0,0.0,0.0,0.0,0.0,0.0,0.0,0.0,0.0,0.0,0.0,0.0,0.0,0.0,0.0,0.0,0.0,0.0,0.0,0.0,0.0,0.0,0.0,0.0,0.0,0.0,0.0,0.0,0.0,0.0,0.0,0.0,0.0,0.0,0.0,0.0,0.0,0.0,0.0,0.0,0.0,0.0,0.0,0.0,0.0,0.0,0.0,0.0,0.0,0.0,0.0,0.0,0.0,0.0,0.0,0.0,0.0,0.0,0.0,0.0,0.0,0.0,0.0,0.0,0.0,0.0,0.0,0.0,0.0,0.0,0.0,0.0,0.0,0.0,0.0,0.0,0.0,0.0,0.0,0.0,0.0,0.0,0.0,0.0,0.0,0.0,0.0,0.0,0.0,0.0,0.0,0.0,0.0,0.0,0.0,0.0,0.0,0.0,0.0,0.0,0.0,0.0,0.0,0.0,0.0,0.0,0.0,0.0,0.0,0.0,0.0,0.0,0.0,0.0,0.0,0.0,0.0,0.0,0.0,0.0,0.0,0.0,0.0,0.0,0.0,0.0,0.0,0.0,0.0,0.0,0.0,0.0,0.0,0.0,0.0,0.0,0.0,0.0,0.0,0.0,0.0,0.0,0.0,0.0,0.0,0.0,0.0,0.0,0.0,0.0,0.0,0.0,0.0,0.0,0.0,0.0,0.0,0.0,0.0,0.0,0.0,0.0,0.0,0.0,0.0,0.0,0.0,0.0,0.0,0.0,0.0,0.0,0.0,0.0,0.0,0.0,0.0,0.0,0.0,0.0,0.0,0.0,0.0,0.0,0.0,0.0,0.0,0.0,0.0,0.0,0.0,0.0,0.0,0.0,0.0,0.0,0.0,0.0,0.0,0.0,0.0,0.0,0.0,0.0,0.0,0.0,0.0,0.0,0.0,0.0,0.0,0.0,0.0,0.0,0.0,0.0,0.0,0.0,0.0,0.0,0.0,0.0,0.0,0.0,0.0,0.0,0.0,0.0,0.0,0.0,0.0,0.0,0.0,0.0,0.0,0.0,0.0,0.0,0.0,0.0,0.0,0.0,0.0,0.0,0.0,0.0,0.0,0.0,0.0,0.0,0.0,0.0,0.0,0.0,0.0,0.0,0.0,0.0,0.0,0.0,0.0,0.0,0.0,0.0,0.0,0.0,0.0,0.0,0.0,0.0,0.0,0.0,0.0,0.0,0.0,0.0,0.0,0.0,0.0,0.0,0.0,0.0,0.0,0.0,0.0,0.0,0.0,0.0,0.0,0.0,0.0,0.0,0.0,0.0,0.0,0.0,0.0,0.0,0.0,0.0,0.0,0.0,0.0,0.0,0.0,0.0,0.0,0.0,0.0,0.0,0.0,0.0,0.0,0.0,0.0,0.0,0.0,0.0,0.0,0.0,0.0,0.0,0.0,0.0,0.0,0.0,0.0,0.0,0.0,0.0,0.0,0.0,0.0,0.0,0.0,0.0,0.0,0.0,0.0,0.0,0.0,0.0,0.0,0.0,0.0,0.0,0.0,0.0,0.0,0.0,0.0,0.0,0.0,0.0,0.0,0.0,0.0,0.0,0.0,0.0,0.0,0.0,0.0,0.0,0.0,0.0,0.0,0.0,0.0,0.0,0.0,0.0,0.0,0.0,0.0,0.0,0.0,0.0,0.0,0.0,0.0,0.0,0.0,0.0,0.0,0.0,0.0,0.0,0.0,0.0,0.0,0.0,0.0,0.0,0.0,0.0,0.0,0.0,0.0,0.0,0.0,0.0,0.0,0.0,0.0,0.0,0.0,0.0,0.0,0.0,0.0,0.0,0.0,0.0,0.0,0.0,0.0,0.0,0.0,0.0,0.0,0.0,0.0,0.0,0.0,0.0,0.0,0.0,0.0,0.0,0.0,0.0,0.0,0.0,0.0,0.0,0.0,0.0,0.0,0.0,0.0,0.0,0.0,0.0,0.0,0.0,0.0,0.0,0.0,0.0,0.0,0.0,0.0,0.0,0.0,0.0,0.0,0.0,0.0,0.0,0.0,0.0,0.0,0.0,0.0,0.0,0.0,0.0,0.0,0.0,0.0,0.0,0.0,0.0,0.0,0.0,0.0,0.0,0.0,0.0,0.0,0.0,0.0,0.0,0.0,0.0,0.0,0.0,0.0,0.0,0.0,0.0,0.0,0.0,0.0,0.0,0.0,0.0,0.0,0.0,0.0,0.0,0.0,0.0,0.0,0.0,0.0,0.0,0.0,0.0,0.0,0.0,0.0,0.0,0.0,0.0,0.0,0.0,0.0,0.0,0.0,0.0,0.0,0.0,0.0,0.0,0.0,0.0,0.0,0.0,0.0,0.0,0.0,0.0,0.0,0.0,0.0,0.0,0.0,0.0,0.0,0.0,0.0,0.0,0.0,0.0,0.0,0.0,0.0,0.0,0.0,0.0,0.0,0.0,0.0,0.0,0.0,0.0,0.0,0.0,0.0,0.0,0.0,0.0,0.0,0.0,0.0,0.0,0.0,0.0,0.0,0.0,0.0,0.0,0.0,0.0,0.0,0.0,0.0,0.0,0.0,0.0,0.0,0.0,0.0,0.0,0.0,0.0,0.0,0.0,0.0,0.0,0.0,0.0,0.0,0.0,0.0,0.0,0.0,0.0,0.0,0.0,0.0,0.0,0.0,0.0,0.0,0.0,0.0,0.0,0.0,0.0,0.0,0.0,0.0,0.0,0.0,0.0,0.0,0.0,0.0,0.0,0.0,0.0,0.0,0.0,0.0,0.0,0.0,0.0,0.0,0.0,0.0,0.0,0.0,0.0,0.0,0.0,0.0,0.0,0.0,0.0,0.0,0.0,0.0,0.0,0.0,0.0,0.0,0.0,0.0,0.0,0.0,0.0,0.0,0.0,0.0,0.0,0.0,0.0,0.0,0.0,0.0,0.0,0.0,0.0,0.0,0.0,0.0,0.0,0.0,0.0,0.0,0.0,0.0,0.0,0.0,0.0,0.0,0.0,0.0,0.0,0.0,0.0,0.0,0.0,0.0,0.0,0.0,0.0,0.0,0.0,0.0,0.0,0.0,0.0,0.0,0.0,0.0,0.0,0.0,0.0,0.0,0.0,0.0,0.0,0.0,0.0,0.0,0.0,0.0,0.0,0.0,0.0,0.0,0.0,0.0,0.0,0.0,0.0,0.0,0.0,0.0,0.0,0.0,0.0,0.0,0.0,0.0,0.0,0.0,0.0,0.0,0.0,0.0,0.0,0.0,0.0,0.0,0.0,0.0,0.0,0.0,0.0,0.0,0.0,0.0,0.0,0.0,0.0,0.0,0.0,0.0,0.0,0.0,0.0,0.0,0.0,0.0,0.0,0.0,0.0,0.0,0.0,0.0,0.0,0.0,0.0,0.0,0.0,0.0,0.0,0.0,0.0,0.0,0.0,0.0,0.0,0.0,0.0,0.0,0.0,0.0,0.0,0.0,0.0,0.0,0.0,0.0,0.0,0.0,0.0,0.0,0.0,0.0,0.0,0.0,0.0,0.0,0.0,0.0,0.0,0.0,0.0,0.0,0.0,0.0,0.0,0.0,0.0,0.0,0.0,0.0,0.0,0.0,0.0,0.0,0.0,0.0,0.0,0.0,0.0,0.0,0.0,0.0,0.0,0.0,0.0,0.0,0.0,0.0,0.0,0.0,0.0,0.0,0.0,0.0,0.0,0.0,0.0,0.0,0.0,0.0,0.0,0.0,0.0,0.0,0.0,0.0,0.0,0.0,0.0,0.0,0.0,0.0,0.0,0.0,0.0,0.0,0.0,0.0,0.0,0.0,0.0,0.0,0.0,0.0,0.0,0.0,0.0,0.0,0.0,0.0,0.0,0.0,0.0,0.0,0.0,0.0,0.0,0.0,0.0,0.0,0.0,0.0,0.0,0.0,0.0,0.0,0.0,0.0,0.0,0.0,0.0,0.0,0.0,0.0,0.0,0.0,0.0,0.0,0.0,0.0,0.0,0.0,0.0,0.0,0.0,0.0,0.0,2.8246,0.0,0.0,0.0,0.0,0.0,0.0,0.0,0.0,0.0,0.0,0.0,0.0,0.0,0.0,0.0,0.0,0.0,0.0,0.0,0.0,0.0,0.0,0.0,0.0,1.3792,1.4188,1.4188,1.3927,0.0,0.0,0.0,0.0,0.0,0.0,0.0,0.0,0.0,1.1448,1.3285,1.3312,1.5148,1.8633,1.7243,1.6404,1.5984,0.0,0.0,0.0,0.0,0.0,0.0,0.0,0.0,0.0,0.0,0.0,0.0,0.0,0.0,0.0,0.0,0.0,0.0,0.0,0.0,0.0,0.0,0.0,0.0,0.0,0.0,0.0,0.0,0.0,0.0,0.0,0.0,0.0,0.0,0.0,0.0,0.0,0.0,0.0,0.0,0.0,0.0,0.0,0.0,0.0,0.0,0.0,0.0,0.0,0.0,0.0,0.0,0.0,0.0,0.0,0.0,0.0,0.0,0.0,0.0,0.0,0.0,0.0,0.0,0.0,0.0,0.0,0.0,0.0,0.0,0.0,2.8984,0.0,0.0,0.0,0.0,0.0,0.0,0.0,0.0,0.0,0.0,0.0,0.0,0.0,0.0,0.0,0.0,0.0,0.0,0.0,0.0,0.0,1.3697,1.3659,1.4136,1.4551,1.4849,1.4315,1.4048,1.4317,1.3776,0.0,0.0,0.0,0.0,1.1403,1.1818,1.3427,1.6291,1.7694,1.9864,2.2743,2.3502,2.2784,2.0788,1.9266,0.0,0.0,0.0,0.0,0.0,0.0,0.0,0.0,0.0,0.0,0.0,0.0,0.0,0.0,0.0,0.0,0.0,0.0,0.0,0.0,0.0,0.0,0.0,0.0,0.0,0.0,0.0,0.0,0.0,0.0,0.0,0.0,0.0,0.0,0.0,0.0,0.0,0.0,0.0,0.0,0.0,0.0,0.0,0.0,0.0,0.0,0.0,0.0,0.0,0.0,0.0,0.0,0.0,0.0,0.0,0.0,0.0,0.0,0.0,0.0,0.0,0.0,0.0,3.3728,3.4513,3.455,3.589,3.7587,3.9264,3.4578,3.3235,3.4124,0.0,0.0,0.0,0.0,0.0,0.0,0.0,0.0,0.0,0.0,0.0,0.0,0.0,0.0,0.0,0.0,0.0,0.0,0.0,0.0,1.3196,1.3884,1.4123,1.5143,1.7394,1.5492,1.4701,1.5976,1.449,0.0,0.0,0.0,1.2131,1.1326,1.2152,1.4056,1.706,2.3426,2.7041,2.8012,2.9381,2.9516,2.8433,2.3782,2.1498,2.095,0.0,0.0,0.0,0.0,0.0,0.0,0.0,0.0,0.0,0.0,0.0,0.0,0.0,0.0,0.0,0.0,0.0,0.0,0.0,0.0,0.0,0.0,0.0,0.0,0.0,0.0,0.0,0.0,0.0,0.0,0.0,0.0,0.0,0.0,0.0,0.0,0.0,0.0,0.0,0.0,0.0,2.7291,2.8558,0.0,0.0,0.0,0.0,0.0,0.0,0.0,0.0,0.0,0.0,0.0,0.0,0.0,3.4418,3.5491,3.8266,3.9666,3.969,4.1277,4.2073,4.2073,4.2279,4.2562,4.2834,4.2062,0.0,3.6894,3.5568,0.0,0.0,0.0,0.0,0.0,0.0,0.0,0.0,0.0,0.0,0.0,0.0,0.0,0.0,0.0,0.0,0.0,0.0,0.0,0.0,0.0,1.6543,1.7778,1.9989,1.902,1.7954,1.7129,1.6201,0.0,0.0,1.3043,1.2944,1.2601,1.4754,1.8325,2.334,2.8509,3.1201,3.1478,3.2138,3.2273,3.185,2.9127,2.6285,2.3393,2.1329,0.0,0.0,0.0,0.0,0.0,0.0,0.0,0.0,0.0,0.0,0.0,0.0,0.0,0.0,0.0,0.0,0.0,0.0,0.0,0.0,0.0,0.0,0.0,0.0,0.0,0.0,0.0,0.0,0.0,0.0,0.0,0.0,0.0,0.0,0.0,0.0,0.0,0.0,0.0,2.5676,2.7934,3.0099,2.9329,2.7805,0.0,0.0,0.0,0.0,0.0,0.0,0.0,0.0,0.0,3.6101,3.7643,3.9056,4.0318,4.1736,4.2437,4.244,4.3175,4.3739,4.4178,4.417,4.4674,4.5517,4.5041,4.3869,4.198,3.8894,3.5923,3.3066,0.0,0.0,0.0,0.0,3.2787,3.3345,0.0,0.0,0.0,0.0,0.0,0.0,0.0,0.0,0.0,0.0,0.0,0.0,1.8391,1.9033,2.0278,2.2647,2.197,2.0879,1.9597,1.8217,1.6642,1.4865,1.4066,1.3837,1.419,1.8153,2.3175,2.9193,3.2405,3.4167,3.4556,3.4353,3.4167,3.3931,3.3186,3.0417,2.6116,2.4797,2.2082,1.8498,0.0,0.0,0.0,0.0,0.0,0.0,0.0,0.0,0.0,0.0,0.0,0.0,0.0,0.0,0.0,0.0,0.0,0.0,0.0,0.0,0.0,0.0,0.0,0.0,0.0,0.0,0.0,0.0,0.0,0.0,0.0,0.0,0.0,0.0,0.0,0.0,0.0,2.6465,2.8962,3.1127,3.1219,3.0099,0.0,0.0,0.0,0.0,0.0,0.0,3.4412,3.6798,3.9056,4.1056,4.2103,4.3217,4.4404,4.4644,4.4741,4.4727,4.4727,4.506,4.563,4.5608,4.6262,4.7366,4.6777,4.6504,4.6195,4.1974,3.9433,3.7922,3.5624,3.4436,3.4321,3.6649,3.7649,3.8366,0.0,0.0,0.0,0.0,0.0,0.0,0.0,0.0,0.0,0.0,0.0,1.8231,2.1008,2.066,2.1703,2.5374,2.2955,2.2211,2.4569,2.0354,1.8012,1.8503,1.5538,1.4485,1.5764,2.199,2.7487,3.2093,3.437,3.6248,3.7669,3.6941,3.6214,3.547,3.4726,3.3068,3.0666,2.7757,2.5186,2.279,1.9419,0.0,0.0,0.0,0.0,0.0,0.0,0.0,0.0,0.0,0.0,0.0,0.0,0.0,0.0,0.0,0.0,0.0,0.0,0.0,0.0,0.0,0.0,0.0,0.0,0.0,0.0,0.0,0.0,0.0,0.0,0.0,0.0,0.0,0.0,0.0,0.0,0.0,0.0,3.1458,3.2706,0.0,0.0,0.0,0.0,3.2247,3.4633,3.7074,3.9405,4.1809,4.3534,4.4433,4.5993,4.6838,4.6929,4.7665,4.8067,4.8067,4.8049,4.8087,4.8124,4.8122,4.8139,4.8251,4.8214,4.8196,4.7994,4.5443,4.2632,3.9949,3.9787,3.866,3.7353,3.9413,4.0806,4.1926,0.0,0.0,0.0,1.4488,1.4488,1.4476,1.4399,1.4885,1.527,1.5322,1.7764,2.0206,2.2121,2.3794,2.5627,2.7715,2.6872,2.5786,2.4777,2.1634,2.0276,2.1329,1.8313,1.8792,2.3459,2.7267,3.092,3.4421,3.6214,3.7381,3.7905,3.7635,3.7094,3.6332,3.5571,3.4506,3.3152,3.0649,2.8352,2.6241,2.4233,2.1036,0.0,0.0,0.0,0.0,0.0,0.0,0.0,0.0,0.0,0.0,0.0,0.0,0.0,0.0,0.0,0.0,0.0,0.0,0.0,0.0,0.0,0.0,0.0,0.0,0.0,0.0,0.0,0.0,0.0,0.0,0.0,0.0,0.0,0.0,0.0,0.0,0.0,3.3697,3.4724,0.0,3.3028,3.4357,3.5862,3.7202,3.9551,4.1754,4.3663,4.5076,4.6691,4.8581,4.8673,4.9209,5.0245,5.0039,5.016,5.0662,5.0662,5.067,5.068,5.068,5.0401,4.986,4.9331,4.9056,4.8928,4.7186,4.549,4.3962,4.3536,4.3019,4.2743,4.4489,4.5634,4.6493,0.0,0.0,0.0,1.4488,1.4488,1.4488,1.4488,1.5178,1.5992,1.6782,1.9552,2.2317,2.4643,2.6685,2.8209,2.9092,2.8947,2.8182,2.6744,2.3513,2.2334,2.3848,2.1399,2.2566,2.8078,3.0666,3.3525,3.6755,3.8024,3.8903,3.9377,3.8886,3.8379,3.7855,3.6586,3.5723,3.5131,3.3152,3.1082,2.9056,2.7816,2.4936,2.1319,0.0,0.0,0.0,0.0,0.0,0.0,0.0,0.0,0.0,0.0,0.0,0.0,0.0,0.0,0.0,0.0,0.0,0.0,0.0,0.0,0.0,0.0,0.0,0.0,0.0,0.0,0.0,0.0,0.0,0.0,0.0,0.0,0.0,0.0,0.0,3.4835,3.5385,3.6909,3.7477,3.6347,3.7991,3.979,4.1405,4.324,4.4892,4.6232,4.7609,4.9114,5.0747,5.0798,5.1316,5.2416,5.1889,5.1875,5.2389,5.24,5.2413,5.2403,5.2403,5.1977,5.1142,5.0597,5.0175,4.9845,4.8672,4.7903,4.7366,4.6394,4.5943,4.6109,4.7875,4.8811,4.923,0.0,0.0,1.4488,1.4488,1.4488,1.4488,1.4488,1.5197,1.6896,2.0105,2.1947,2.4497,2.8488,2.8991,2.9172,2.9471,2.8831,2.9096,3.071,2.5964,2.3969,2.5997,2.4777,2.5644,2.913,3.2036,3.5334,3.9005,3.9749,4.0882,4.2269,4.0815,4.0138,4.002,3.7804,3.6806,3.6671,3.5165,3.3271,3.1196,2.993,2.793,2.5471,0.0,0.0,0.0,0.0,0.0,0.0,0.0,0.0,0.0,0.0,0.0,0.0,0.0,0.0,0.0,0.0,0.0,0.0,0.0,0.0,0.0,0.0,0.0,0.0,0.0,0.0,0.0,0.0,0.0,0.0,0.0,0.0,0.0,3.177,3.4376,3.645,3.645,3.9221,4.0543,3.9001,4.1001,4.3039,4.4654,4.5498,4.6287,4.7113,4.9481,5.082,5.0875,5.2401,5.3243,5.3316,5.3291,5.3295,5.3314,5.329,5.3299,5.331,5.331,5.2883,5.2105,5.2087,5.1628,5.0812,5.0053,4.9788,4.9764,4.8309,4.7386,4.7174,4.9378,5.0134,5.0012,1.4488,1.4488,1.4488,1.4488,1.4488,1.4488,1.4488,1.568,1.7164,1.8783,2.2293,2.5322,2.7131,2.9279,3.0217,2.9223,2.8934,2.8888,2.9096,2.5112,2.37,2.5877,2.9537,3.2247,3.3741,3.5664,3.7699,3.9802,4.0543,4.1396,4.226,4.1338,4.0612,4.002,3.8345,3.7297,3.6721,3.5723,3.4641,3.3499,3.2427,3.0053,2.7165,0.0,0.0,0.0,0.0,0.0,0.0,0.0,0.0,0.0,0.0,0.0,0.0,0.0,0.0,0.0,0.0,0.0,0.0,0.0,0.0,0.0,0.0,0.0,0.0,0.0,0.0,0.0,0.0,0.0,0.0,0.0,0.0,3.5459,3.5018,3.7734,3.979,3.979,4.1093,4.2029,4.2158,4.3314,4.4727,4.6342,4.6654,4.7131,4.7939,4.9774,5.1334,5.2509,5.3531,5.4613,5.5812,5.5236,5.521,5.5797,5.5806,5.5806,5.5823,5.5823,5.5365,5.4564,5.3995,5.3277,5.2434,5.1249,5.0435,4.9855,4.8889,4.8792,4.9389,5.1088,5.2326,5.3062,1.4387,1.4453,1.4488,1.4488,1.4488,1.4464,1.4387,1.5728,1.7439,1.9408,2.2859,2.5897,2.7928,2.9956,3.0598,2.911,2.9262,2.8918,2.7615,2.5697,2.5519,2.7589,3.1777,3.4712,3.6071,3.786,3.9542,4.1013,4.1782,4.2492,4.3242,4.2469,4.1728,4.095,3.9462,3.8227,3.7212,3.6434,3.547,3.4464,3.3857,3.2042,2.9688,2.9639,2.7998,2.5693,2.5372,2.4577,2.3765,2.4188,0.0,0.0,0.0,0.0,0.0,0.0,0.0,0.0,0.0,0.0,0.0,0.0,0.0,0.0,0.0,0.0,0.0,0.0,0.0,0.0,0.0,0.0,0.0,0.0,3.5892,3.8164,3.8489,4.0607,4.2359,4.3039,4.3516,4.4121,4.4929,4.5443,4.625,4.7517,4.7609,4.7976,4.8802,5.0714,5.2385,5.3665,5.5133,5.6363,5.7299,5.684,5.684,5.7299,5.7299,5.7299,5.7299,5.7299,5.6859,0.0,5.5611,5.4775,5.3657,5.2517,5.1783,0.0,0.0,0.0,0.0,0.0,5.3932,5.4785,1.427,1.4375,1.4488,1.4488,1.4476,1.4399,1.4232,1.5498,1.7631,2.0842,2.3313,2.6076,2.9485,3.0514,3.0378,2.8975,2.9617,2.9138,2.6887,2.7508,2.8715,3.0378,3.2611,3.4831,3.7136,3.9153,4.0942,4.2417,4.3079,4.383,4.4553,4.3792,4.3014,4.2236,4.0747,3.9276,3.7855,3.7094,3.5943,3.4624,3.4624,3.3728,3.2324,3.1596,3.0497,2.9245,2.8484,2.7351,2.6251,2.6336,0.0,0.0,0.0,0.0,0.0,0.0,0.0,0.0,0.0,0.0,0.0,0.0,0.0,0.0,0.0,0.0,0.0,0.0,0.0,0.0,0.0,0.0,0.0,0.0,3.8528,4.0994,4.1972,4.3036,4.4181,4.5516,4.5753,4.6138,4.6908,4.7073,4.7459,4.8251,4.8398,4.882,4.9682,0.0,0.0,0.0,0.0,5.7886,5.7886,5.7774,5.7755,5.7755,5.7755,5.7755,5.7755,5.7821,5.7454,5.6666,5.6777,5.5946,5.4481,5.3797,5.3532,5.3428,5.2123,5.163,5.1936,5.3998,5.526,5.5757,1.4453,1.4476,1.4488,1.4488,1.4375,1.4227,1.4219,1.5428,1.7345,2.0147,2.2556,2.5099,2.7961,2.8941,2.9042,2.8129,2.9313,2.9892,2.9408,3.0598,3.1783,3.273,3.4928,3.7174,3.9406,4.046,4.1711,4.32,4.3305,4.3833,4.4553,4.3792,4.3014,4.2236,4.0764,3.9292,3.7855,3.7094,3.6248,3.5402,3.5402,3.4506,3.3102,3.2357,3.1884,3.1546,3.0801,3.0362,3.0209,3.0784,2.9702,2.8112,2.8112,2.6674,0.0,0.0,0.0,0.0,0.0,0.0,0.0,0.0,0.0,0.0,0.0,0.0,0.0,0.0,0.0,0.0,0.0,0.0,0.0,3.7998,4.0188,4.2184,4.4243,4.4707,4.4733,4.4413,4.4929,4.5595,4.6295,4.6975,4.7593,4.8249,4.8948,4.9701,5.0527,5.2881,5.4553,5.5335,5.6491,5.7134,5.7134,5.6474,5.6169,5.6169,0.0,0.0,5.6169,5.6825,5.6683,5.5955,5.6608,5.6009,5.4563,5.4443,5.4348,5.4364,5.4039,5.4322,5.4957,5.6045,5.6889,5.7409,1.4488,1.4488,1.4464,1.4375,1.427,1.4136,1.3941,1.5148,1.7068,1.9792,2.2163,2.4373,2.6471,2.7063,2.6691,2.5186,2.5761,2.7317,2.9939,3.0784,3.2188,3.4404,3.6671,3.8768,4.0594,4.1745,4.2858,4.4018,4.4018,4.4226,4.457,4.4181,4.3589,4.2811,4.1694,4.0375,3.8937,3.8193,3.7229,3.6197,3.6197,3.5496,3.4418,3.3667,3.2916,3.2263,3.1867,3.1495,3.1258,3.1613,3.1004,3.0091,3.0091,2.8805,2.6928,0.0,0.0,0.0,0.0,0.0,0.0,0.0,0.0,0.0,0.0,0.0,0.0,0.0,0.0,3.0096,0.0,0.0,3.7176,4.017,4.1733,4.295,4.4125,4.4662,4.4968,4.5176,4.557,4.5939,4.6293,4.6677,4.7356,4.8379,4.9245,5.0354,5.1922,5.3909,5.5222,5.5629,5.645,5.6739,5.6313,5.5893,5.5706,5.5706,5.5706,5.5706,5.5706,5.6132,5.6077,5.5706,5.6132,5.5685,5.4589,5.4218,5.4264,5.4651,5.4982,5.561,5.6367,5.6739,5.7351,5.7941,1.4488,1.4469,1.4386,1.4227,1.4162,1.4011,1.3663,1.4744,1.6593,1.9232,2.1312,2.3117,2.4622,2.4791,2.4248,2.2892,2.2897,2.5101,3.0192,3.0666,3.2341,3.591,3.8091,3.9918,4.1405,4.2861,4.3965,4.4587,4.444,4.4327,4.4327,4.4327,4.3839,4.293,4.2503,4.139,3.9834,3.9242,3.8227,3.6992,3.6818,3.6402,3.5728,3.5005,3.3879,3.2698,3.2412,3.1938,3.1376,3.1241,3.119,3.119,3.119,3.0378,2.9144,2.7757,2.6725,0.0,0.0,0.0,0.0,0.0,0.0,0.0,0.0,0.0,2.6563,2.9237,3.0698,3.2667,3.6452,3.7897,3.9355,4.1884,4.2918,4.3461,4.3593,4.4202,4.4944,4.5915,4.6063,4.6112,4.6192,4.624,4.6962,4.8694,4.9592,5.1085,5.3555,5.5056,5.5848,5.592,5.6397,5.6313,5.5477,5.532,5.5262,5.5262,5.5262,5.5262,5.5279,5.5437,5.5437,5.5262,5.5262,5.4939,5.431,5.3717,5.3994,5.4861,5.5495,5.6295,5.7116,5.7116,5.7498,5.7997,1.4488,1.4366,1.4234,1.4196,1.4051,1.387,1.363,1.4195,1.5479,1.776,1.8843,2.0034,2.1696,2.1876,2.2596,2.4367,2.4972,2.7165,3.1732,3.2662,3.4421,3.7516,3.9157,4.0679,4.2151,4.3656,4.4485,4.4587,4.3814,4.3443,4.3443,4.3443,4.2683,4.1328,4.1963,4.1119,3.9106,3.9039,3.8531,3.7722,3.6987,3.6651,3.6516,3.5743,3.4945,3.4082,3.2797,3.224,3.207,3.141,3.119,3.119,3.119,3.1089,3.0784,2.9973,2.8704,2.7249,2.5761,2.4458,2.363,2.412,2.432,2.5732,0.0,0.0,3.0274,3.4496,3.601,3.7229,3.929,4.0288,4.1374,4.2997,4.3337,4.3671,4.4372,4.4519,4.4626,4.4776,4.4814,4.4998,4.5545,4.5597,4.6727,4.9451,5.0398,5.2154,5.5188,5.6198,5.67,5.675,5.6151,5.5495,5.4695,5.4042,5.3717,5.3717,5.3717,5.3717,5.3783,5.4437,5.4391,5.3717,5.3717,5.3734,5.3618,5.3568,5.4328,5.561,5.5649,5.6562,5.7886,5.7886,5.7932,5.7997,1.4488,1.4348,1.4168,1.405,1.3856,1.3674,1.3509,1.4058,1.5155,1.6931,1.7794,1.8557,1.9401,1.8323,1.8417,2.0551,2.2553,2.5592,3.0074,3.2679,3.5199,3.7787,3.9326,4.0798,4.2252,4.3352,4.3872,4.3814,4.3502,4.3047,4.2504,4.2161,4.1885,4.1708,4.1205,4.0735,4.0257,3.9817,3.8925,3.7802,3.7461,3.6588,3.5387,3.5068,3.429,3.3316,3.2675,3.2109,0.0,3.0908,3.0918,3.119,3.119,3.0598,2.9922,3.0074,2.9347,2.8552,2.8789,2.7774,2.6708,2.7063,2.774,2.8912,3.0865,3.1903,3.3236,3.604,3.7847,3.9478,4.1088,4.1985,4.2867,0.0,4.4088,4.4224,4.4575,4.4587,4.4587,4.4587,4.4587,4.472,4.4944,4.5354,4.6613,4.9096,5.0827,5.2947,5.5534,5.6406,5.6671,5.6241,5.5437,5.4713,5.3946,5.3668,5.3501,5.3501,5.3501,5.3501,5.3501,5.3832,5.3766,5.3501,5.3501,5.3501,5.3501,5.3501,5.4391,5.5706,5.5706,5.6615,5.7997,5.7997,5.7997,5.7997,1.4433,1.4263,1.4053,1.3843,1.3669,1.3506,1.3413,1.3853,1.4648,1.5917,1.6559,1.6982,1.717,1.5556,1.5312,1.7411,2.0289,2.39,2.8366,3.1935,3.5081,3.7787,3.9123,4.0493,4.1965,4.2726,4.3048,4.301,4.2539,4.2035,4.1357,4.0674,4.0558,4.0864,3.9936,3.9671,3.9957,3.9206,3.8261,3.7224,3.701,3.5848,3.4233,3.4017,3.2916,3.1559,3.1981,3.1514,3.0563,2.9648,2.975,3.0192,2.9786,2.9194,2.8856,2.982,2.9583,2.9076,2.9533,2.9161,2.8704,2.8924,3.0243,3.1512,3.1613,3.3281,3.5307,3.7042,3.8853,4.0552,4.2006,4.2875,4.3654,4.4485,4.4587,4.4587,4.4587,4.4587,4.4587,4.4587,4.4942,4.5196,4.5196,4.5686,4.7084,4.9686,5.1468,5.3371,5.5594,5.624,5.6204,5.5437,5.4878,5.4264,5.3501,5.3501,5.3501,5.3501,5.3501,5.3501,5.3501,5.3501,5.3619,5.3805,5.3805,5.3923,5.4126,5.4126,5.5029,5.6343,5.6131,5.6956,5.8309,5.807,5.7997,5.7997,1.4245,1.4057,1.3851,1.3629,1.3498,1.3396,1.3396,1.3413,1.3718,1.4479,1.4579,1.4687,1.4882,1.4155,1.4537,1.6814,1.9614,2.3105,2.7536,3.0666,3.4015,3.7736,3.8633,3.9715,4.1204,4.1948,4.2277,4.2235,4.0728,3.9913,3.9749,3.9066,3.8384,3.7779,3.7907,3.7608,3.6901,3.621,3.5889,3.5819,3.509,3.4359,3.3665,3.2866,3.0941,2.8951,3.0644,3.0387,2.9022,2.7379,2.7317,2.7637,2.6234,2.6742,2.811,2.9668,2.9583,2.8518,2.637,2.6793,2.8027,2.8789,3.0671,3.2814,3.4962,3.5496,3.6208,3.8491,3.9542,4.0561,4.2055,4.2898,4.3654,4.4485,4.4587,4.4587,4.4587,4.4587,4.4587,4.4587,4.5855,4.6718,0.0,4.6735,4.8277,5.2008,5.2386,5.3341,5.56,5.5688,5.5379,5.4651,5.4589,5.4264,5.3501,5.3501,5.3501,5.3501,5.3501,5.3501,5.3501,5.3501,5.389,5.4566,5.4566,5.4972,5.5649,5.5649,5.6615,5.7954,5.7193,5.7801,5.9079,5.829,5.7997,5.7997,1.4348,1.4034,1.3852,1.3649,1.3481,1.3396,1.3396,1.3396,1.3498,1.3735,1.3837,0.0,0.0,0.0,0.0,0.0,1.828,2.1363,2.5338,2.9347,3.3,3.6248,3.8058,3.9681,4.117,4.0966,4.0793,4.0663,3.9628,3.8769,3.8167,3.7516,3.7403,3.7576,3.6732,3.6289,3.6091,3.5439,3.4584,3.374,3.3466,3.2624,3.167,3.2781,3.0584,2.7157,0.0,2.8094,2.629,2.5071,2.5063,2.5507,2.5017,2.4543,2.4458,2.593,2.6894,2.7638,2.8383,2.8958,2.9634,3.0869,3.2848,3.4692,3.5453,3.6791,3.8091,3.8812,3.9999,4.1002,4.146,4.2567,4.3463,4.3777,4.426,4.4587,4.4587,4.501,4.55,4.5991,4.6938,0.0,0.0,0.0,0.0,5.1492,5.2519,5.3636,5.4929,5.4982,5.4878,5.4589,5.4106,5.3783,5.3501,5.3501,5.3501,5.3518,5.3991,5.4482,5.4955,5.4448,5.4634,5.531,5.4803,5.5023,5.5716,5.6285,5.7132,5.8137,5.8369,5.8764,5.9189,5.8914,5.8804,5.8731,1.5109,1.4845,1.4572,1.4024,1.3837,0.0,0.0,0.0,0.0,0.0,0.0,0.0,0.0,0.0,0.0,0.0,0.0,1.9587,2.31,2.7249,3.092,3.3914,3.5673,3.7297,3.8768,3.7636,3.7453,3.8264,3.7134,3.6628,3.6701,3.5833,3.5691,3.6075,3.4727,3.416,3.4227,3.33,3.2695,3.2211,3.1525,3.0503,2.9514,3.0097,2.7585,0.0,2.4783,2.3967,2.2444,2.2231,2.2665,2.3287,2.297,2.3156,2.3613,2.4289,2.5913,2.7892,2.9634,3.048,3.1252,3.2705,3.4566,3.6072,3.6326,3.7728,3.9086,3.9325,4.0167,4.0797,4.0813,4.1991,4.3107,4.3373,4.4311,4.5077,4.5331,4.5788,4.6363,4.7107,4.8088,4.9357,0.0,0.0,0.0,5.1995,5.2938,5.3719,5.4183,5.4218,5.4218,5.4218,5.3717,5.3501,5.3501,5.3754,5.4025,5.4296,5.4769,5.5243,5.57,5.5209,5.5395,5.6089,5.5598,5.5801,5.6566,5.7073,5.7738,5.8448,5.8692,5.893,5.9178,5.8888,5.9132,5.9474,1.6379,1.6291,1.5905,0.0,0.0,0.0,0.0,0.0,0.0,0.0,0.0,0.0,0.0,0.0,0.0,0.0,0.0,0.0,2.0848,2.4408,2.7774,3.0835,3.1732,3.2882,3.4404,3.255,3.28,3.5363,3.3529,3.3602,3.5329,3.4055,3.3456,3.3335,3.2048,3.1377,3.1243,3.0028,3.0118,3.0944,2.9086,2.7927,2.71,2.5267,2.2566,1.9626,1.9424,1.8656,1.793,1.9104,2.0307,2.1189,2.0467,2.2711,2.5488,2.4845,2.6759,2.9211,3.0006,3.1309,3.2765,3.4145,3.5685,3.6992,3.7609,3.8404,3.9206,3.9817,3.9946,3.9956,0.0,0.0,4.2392,4.3115,4.4637,4.594,4.665,4.6836,4.7192,0.0,0.0,0.0,0.0,0.0,0.0,5.3501,0.0,5.3501,5.3501,5.3501,5.3501,5.3501,5.3501,5.3518,5.3568,5.4279,5.5023,5.5784,5.5784,5.5801,5.5818,5.5784,5.6173,5.685,5.6816,5.7222,5.7881,5.7954,5.8441,5.9042,5.8331,5.8555,5.915,5.8425,5.9109,6.0287,0.0,0.0,0.0,0.0,0.0,0.0,0.0,0.0,0.0,0.0,0.0,0.0,0.0,0.0,0.0,0.0,0.0,0.0,1.8504,2.1126,2.4154,2.7689,2.9651,3.1613,3.3643,3.2652,3.2957,3.474,3.3128,3.2616,3.3169,3.2817,3.2452,3.2003,3.115,3.0238,2.9295,2.8442,2.7126,2.5585,2.5057,2.4175,2.3314,2.425,2.24,1.9497,2.0655,1.9341,1.7302,1.896,2.098,2.2906,2.3228,2.4393,2.5771,2.6684,2.8319,3.0108,3.1376,3.283,3.4011,3.4412,3.6026,3.7461,3.7058,3.8424,3.9396,3.7885,3.7686,3.7584,3.6895,0.0,0.0,4.0865,4.3639,0.0,4.5957,4.7394,0.0,4.9441,0.0,5.2046,5.2841,5.3281,0.0,0.0,5.3501,5.3501,5.3501,5.3501,5.3501,5.3501,5.3501,5.3754,5.4296,5.5057,5.5801,5.6528,5.6528,5.6816,5.7306,5.6765,5.6917,5.7577,5.7036,5.7222,5.7954,5.8564,5.8925,5.916,5.9622,5.9867,6.0017,5.9761,6.0731,6.1963,0.0,0.0,0.0,0.0,0.0,0.0,0.0,0.0,0.0,0.0,0.0,0.0,0.0,0.0,0.0,0.0,0.0,0.0,0.0,1.8758,2.1262,2.3663,2.5642,2.7418,2.8991,2.7765,2.8396,3.1091,2.9026,2.8951,3.0634,2.9662,2.9109,2.8906,2.8233,2.753,2.6811,2.6123,2.5213,0.0,0.0,2.2248,2.1481,2.153,1.9949,1.7835,1.8771,1.9008,1.918,2.1209,2.3017,2.4436,2.4853,2.5952,2.739,2.885,3.0611,3.2364,3.3889,3.5085,3.5874,3.5551,3.6653,3.7446,3.6109,3.7086,3.7595,3.5446,3.5301,3.5146,3.3991,3.6714,3.921,0.0,0.0,0.0,4.7022,4.8223,4.9509,0.0,5.1792,0.0,5.3416,5.3501,5.3501,0.0,5.3501,5.3501,5.3501,5.3501,5.3653,5.3974,5.3974,5.4482,5.5547,5.5987,5.6562,5.7273,5.7273,5.7492,5.7881,5.7459,5.7509,5.7865,0.0,5.7509,5.7971,5.8746,5.9061,5.9166,5.9943,6.0286,6.0201,6.0201,6.1518,6.3124,0.0,0.0,0.0,0.0,0.0,0.0,0.0,0.0,0.0,1.4692,1.4059,1.3683,0.0,0.0,0.0,0.0,0.0,0.0,0.0,0.0,1.8978,1.9816,2.1218,2.2446,2.3376,2.1674,2.2687,2.6564,2.4127,2.4657,2.7854,2.5936,2.5175,2.5408,2.4837,2.4492,2.4328,2.3729,2.3839,2.4296,2.2269,2.1188,2.0613,0.0,1.6995,1.6053,1.614,1.8485,2.1886,2.4259,2.5524,2.6107,2.6275,2.7756,2.9747,3.1201,3.3051,3.4955,3.6397,3.7203,3.7453,3.6734,3.7106,3.7107,3.5,3.5149,3.5085,3.2883,3.2722,3.2619,3.1417,3.5044,3.8334,3.8802,0.0,4.621,4.8528,4.9018,4.9932,5.2046,5.2384,5.2739,5.3433,5.3501,5.3501,5.3501,5.3501,5.3501,5.3501,5.3501,5.3839,5.4566,5.4786,5.5513,5.6799,5.69,5.7256,5.7881,5.7881,5.7881,5.7881,5.7881,5.7881,5.7881,0.0,0.0,5.7949,5.871,5.9015,5.9082,5.981,6.0165,6.0266,6.0266,6.1843,6.4008,0.0,0.0,0.0,0.0,0.0,0.0,0.0,0.0,0.0,0.0,1.7522,1.5221,0.0,0.0,0.0,0.0,0.0,0.0,0.0,0.0,0.0,1.9029,1.9917,2.1346,2.3359,2.3081,2.3832,2.5799,2.471,2.4563,2.5329,2.4952,2.4687,2.4526,2.4403,2.3857,2.3011,2.2933,2.2197,2.108,2.0339,1.9558,1.878,1.8002,0.0,0.0,1.7997,1.9673,2.1987,2.4496,2.6788,2.8779,2.9867,3.0925,3.2003,3.3498,3.4627,3.5593,3.6503,3.6816,3.6702,3.5927,3.624,3.6259,3.4182,3.4363,3.4046,3.0754,2.9831,2.9571,2.9666,3.2019,3.4889,3.7627,4.1305,4.4823,4.7699,4.9137,5.049,0.0,5.2892,5.3348,5.3501,5.3501,0.0,0.0,0.0,5.3501,5.3501,5.3501,5.3839,5.4566,5.5784,5.6545,5.6799,5.7391,5.7763,5.7881,5.7881,5.7881,5.7881,5.7881,5.7881,5.7881,5.7881,0.0,5.7949,5.871,5.9015,5.9082,5.981,6.052,6.1095,6.1095,6.2655,6.4738,0.0,0.0,0.0,0.0,0.0,0.0,0.0,2.0807,2.2371,2.5376,2.3915,2.1538,1.8819,1.7119,1.5886,0.0,0.0,0.0,0.0,0.0,0.0,1.771,1.8826,1.9942,2.1025,2.1431,2.2366,2.3857,0.0,2.2672,2.3637,2.2655,2.2208,2.222,2.2232,2.1912,2.1462,2.1719,2.126,2.0352,1.9785,1.9197,1.8588,1.7966,0.0,0.0,1.8845,2.0479,2.2426,2.3943,2.6627,2.9532,3.0825,3.2015,3.3248,3.4648,3.5866,3.6885,3.7625,3.7286,3.6542,3.6178,3.6045,3.5321,3.2586,3.2257,3.1464,2.7758,2.7487,2.7906,2.7762,3.0728,3.3794,3.5802,3.9901,4.3876,4.6904,4.8934,5.0794,5.2706,5.3264,5.3501,5.3501,5.3501,5.3501,0.0,0.0,5.4059,5.4059,5.4803,5.5209,5.5175,5.6596,5.7357,5.7357,5.7712,5.7881,5.7881,5.7881,5.7881,5.7881,5.7881,5.7881,5.7881,5.7881,0.0,5.8541,5.9268,5.9827,6.0283,6.1011,6.1518,6.1873,6.1873,6.2947,6.4288,0.0,0.0,0.0,0.0,0.0,0.0,0.0,2.4628,2.65,3.0196,3.0129,2.8029,2.3594,2.027,1.7679,0.0,0.0,0.0,0.0,0.0,0.0,0.0,0.0,0.0,0.0,0.0,0.0,0.0,2.0841,0.0,0.0,0.0,0.0,0.0,2.0559,2.0543,2.0465,2.0856,2.091,0.0,0.0,1.95,0.0,0.0,0.0,0.0,0.0,2.1053,2.2489,2.3769,2.6094,2.8648,3.0316,3.2066,3.3848,3.5194,3.6664,3.7932,3.852,3.778,3.6796,3.643,3.5958,3.4622,3.127,3.0402,2.922,2.5405,2.5623,2.6503,2.6551,2.9716,3.2849,3.4462,3.8464,4.2574,4.6058,4.8325,5.0524,5.2959,5.3399,0.0,5.3501,5.3501,0.0,0.0,0.0,0.0,5.4837,5.6089,5.6545,5.597,5.7205,5.7966,5.8118,5.7966,5.7966,5.8118,5.7966,5.7881,5.7881,5.7729,5.7746,5.7881,5.7881,0.0,0.0,5.9979,6.074,6.1366,6.2093,6.2381,6.2381,6.2381,6.2914,6.3647,0.0,0.0,0.0,0.0,0.0,0.0,0.0,2.6598,2.9546,3.5317,3.3694,3.1316,2.947,2.5995,2.1839,0.0,0.0,0.0,0.0,0.0,0.0,0.0,0.0,0.0,0.0,0.0,0.0,2.1309,0.0,0.0,0.0,0.0,0.0,0.0,0.0,2.1279,2.0926,2.0975,0.0,0.0,0.0,0.0,0.0,0.0,0.0,0.0,0.0,2.1243,2.1423,2.5007,2.5711,2.5571,2.8598,3.1332,3.3686,3.5195,3.6721,3.789,3.7872,3.781,3.7371,3.5985,3.5554,3.4622,3.127,3.0073,2.8712,2.5284,2.4267,2.4609,2.6901,2.822,3.0418,3.4813,3.7094,4.007,4.5094,4.7141,4.9187,5.208,0.0,0.0,5.3501,5.3501,0.0,0.0,0.0,0.0,5.5615,5.6376,5.6765,5.6714,5.7476,5.822,5.8896,5.822,5.8237,5.8896,5.822,5.7881,5.7865,5.7205,5.7256,5.7881,5.7881,0.0,0.0,6.0588,6.1231,6.1366,6.2093,6.2381,6.2381,6.2381,6.2914,6.3591,0.0,0.0,0.0,0.0,0.0,0.0,2.6816,2.8148,3.085,3.7259,3.6703,3.4758,3.2326,2.9968,2.5869,1.9258,0.0,0.0,0.0,0.0,0.0,0.0,0.0,0.0,0.0,0.0,2.1854,2.1847,2.1847,0.0,0.0,0.0,0.0,0.0,0.0,2.1509,2.1392,2.165,0.0,0.0,0.0,0.0,0.0,0.0,0.0,0.0,0.0,0.0,2.2643,2.3792,2.4909,2.588,2.6661,2.9081,3.1942,3.3868,3.5711,3.7176,3.718,3.7136,3.6799,3.5733,3.519,3.4128,3.1165,2.9714,2.8158,2.5226,2.4321,2.4766,2.7006,2.7875,2.9774,3.4233,3.6231,3.8734,4.3047,4.5348,4.7682,5.0625,5.1657,0.0,0.0,0.0,0.0,0.0,0.0,0.0,5.7002,5.7289,5.7256,5.6816,5.7509,5.8254,5.9015,5.871,5.8727,5.8998,5.8254,5.7662,5.7205,5.6478,5.6545,5.7256,5.7695,0.0,0.0,6.0858,6.1552,6.1992,6.2279,6.2381,6.2381,6.2381,6.2581,6.2855,0.0,0.0,0.0,0.0,0.0,2.2312,2.8101,2.9202,3.1477,3.7566,3.7769,3.6389,3.3707,3.159,2.8113,2.2456,2.1174,0.0,0.0,0.0,0.0,0.0,0.0,0.0,0.0,0.0,2.2423,2.2649,2.2649,2.2734,0.0,0.0,0.0,0.0,0.0,0.0,0.0,0.0,0.0,0.0,0.0,0.0,0.0,0.0,0.0,0.0,0.0,0.0,0.0,0.0,0.0,2.6725,2.6338,2.8132,3.0826,3.3162,3.5038,3.6522,3.7198,3.7028,3.6529,3.5993,3.5157,3.3784,3.1106,2.952,2.7844,2.5135,2.4364,2.4849,2.7006,2.7908,2.9633,3.3828,3.5774,3.8075,4.1779,4.4062,4.6397,4.912,0.0,5.1403,0.0,0.0,0.0,0.0,0.0,0.0,0.0,5.822,5.7881,5.7154,5.7831,5.8575,5.9336,5.9336,5.9455,5.9674,5.8693,5.7831,5.7103,5.6376,5.6325,5.685,0.0,0.0,0.0,6.1197,6.1924,6.2381,6.2381,6.2381,6.2381,6.2381,6.2381,6.2381,0.0,0.0,0.0,0.0,0.0,0.0,2.82,2.9644,3.1715,3.6242,3.6451,3.5529,3.3609,3.0429,2.7921,2.6737,2.3966,0.0,0.0,0.0,0.0,0.0,0.0,0.0,0.0,0.0,2.2666,2.3397,2.3397,2.3755,2.4475,2.3738,2.338,2.3363,0.0,0.0,0.0,0.0,0.0,0.0,0.0,0.0,0.0,0.0,0.0,0.0,0.0,0.0,0.0,0.0,0.0,0.0,0.0,2.93,3.0856,3.3673,3.5004,3.6068,3.8294,3.7801,3.6699,3.6611,3.5536,3.3784,3.1106,2.952,2.7844,2.5135,2.4073,2.4402,2.6924,2.8007,2.9815,3.3869,3.5774,3.8075,4.1779,4.3606,4.5432,0.0,0.0,5.0388,0.0,0.0,0.0,0.0,0.0,0.0,0.0,5.8998,5.866,5.7898,5.8609,5.9353,6.008,6.008,6.0486,6.1264,5.9725,5.8609,5.7848,5.712,5.6799,0.0,0.0,0.0,0.0,6.1755,6.2381,6.2381,6.2381,6.2381,6.2381,6.2381,6.2381,6.2381,0.0,0.0,0.0,0.0,0.0,0.0,0.0,2.753,2.9625,3.3618,3.3311,3.2827,3.3019,2.9756,2.7353,2.6754,2.4475,0.0,0.0,0.0,0.0,0.0,0.0,0.0,0.0,2.3932,2.4413,2.5638,2.5651,2.6038,2.6727,2.4955,2.414,2.4115,2.283,0.0,0.0,0.0,0.0,0.0,0.0,0.0,0.0,0.0,0.0,0.0,0.0,0.0,0.0,0.0,0.0,0.0,0.0,0.0,0.0,3.2337,3.3516,3.4129,3.4329,3.4489,3.4314,3.3246,3.2695,3.2003,3.0268,2.8846,2.753,2.6243,2.5076,2.5074,2.7599,2.8705,3.0847,3.6009,3.7229,3.8836,4.254,4.4384,0.0,4.7716,5.0591,5.252,0.0,0.0,0.0,0.0,0.0,0.0,0.0,5.9488,5.9641,5.9404,5.915,5.9641,6.0909,6.0926,6.1044,6.1298,6.025,5.937,5.8626,5.7881,0.0,0.0,0.0,0.0,0.0,6.1975,6.2381,6.2381,6.2381,6.2381,6.2381,6.2381,6.2381,6.2381,0.0,0.0,0.0,0.0,0.0,0.0,0.0,2.5899,2.747,3.0366,3.0052,3.01,3.1444,2.8339,2.6276,2.6656,2.4676,0.0,0.0,0.0,0.0,0.0,0.0,0.0,2.4871,2.4359,2.5488,2.8412,2.8104,2.8498,2.9448,2.7801,2.6251,2.4871,2.3659,2.2813,0.0,0.0,0.0,0.0,0.0,0.0,2.2793,0.0,0.0,0.0,0.0,0.0,0.0,0.0,0.0,0.0,0.0,0.0,0.0,0.0,3.2205,3.2782,3.3751,3.4185,3.4092,3.2867,3.2244,3.1505,2.9918,2.8353,2.7021,2.6363,2.5166,2.4998,2.7535,2.8849,3.1104,3.5874,3.7347,3.9208,4.2895,4.4502,0.0,4.846,0.0,0.0,0.0,0.0,0.0,0.0,0.0,0.0,0.0,6.03,6.0672,6.096,6.025,6.0334,6.1298,6.1586,6.1721,6.1704,6.0926,6.0148,5.9404,5.893,0.0,0.0,0.0,0.0,0.0,6.2093,6.2381,6.2381,6.2381,6.2381,6.2381,6.2381,6.2381,6.2381,0.0,0.0,0.0,0.0,0.0,0.0,0.0,2.4796,2.5535,2.6928,2.7055,2.7508,2.8894,2.62,2.4871,2.6269,0.0,0.0,0.0,0.0,0.0,0.0,0.0,0.0,2.5514,2.435,2.6177,3.1201,3.0647,3.1101,3.2507,3.1743,2.9416,2.5883,2.5016,2.3773,0.0,0.0,0.0,0.0,0.0,2.2539,0.0,0.0,0.0,0.0,0.0,0.0,0.0,0.0,0.0,0.0,0.0,0.0,0.0,0.0,0.0,0.0,0.0,3.5752,3.5053,3.443,3.3282,3.1882,2.9931,2.7964,0.0,2.5809,2.4642,2.4551,2.7173,2.8775,3.0882,3.4341,3.6721,3.9428,4.3132,4.4468,0.0,0.0,5.098,0.0,0.0,0.0,0.0,0.0,0.0,0.0,0.0,6.1349,6.1687,6.2364,6.1738,6.1383,6.1383,6.2059,6.2381,6.2381,6.1704,6.0994,6.0266,6.0266,0.0,0.0,0.0,0.0,0.0,6.211,6.2381,6.2381,6.2381,6.2381,6.2381,6.2381,6.2381,6.2381,0.0,0.0,0.0,0.0,0.0,0.0,0.0,0.0,0.0,0.0,2.5996,2.5738,2.5595,2.4311,2.3431,0.0,0.0,0.0,0.0,0.0,0.0,0.0,0.0,0.0,2.4739,2.6083,2.8224,3.1203,3.2174,3.3403,3.4804,3.3496,3.1513,2.8941,2.7043,2.4757,0.0,0.0,0.0,0.0,2.2719,2.244,0.0,0.0,0.0,0.0,2.4732,2.6123,0.0,0.0,0.0,0.0,0.0,0.0,0.0,0.0,3.0362,3.0548,3.1444,0.0,3.1254,3.0103,3.0004,2.9827,0.0,2.729,2.6542,2.6393,2.5606,2.5967,2.9259,3.0489,3.2668,3.7911,3.9698,4.1728,4.5483,4.8105,5.0625,5.3213,5.3196,0.0,0.0,0.0,0.0,0.0,0.0,0.0,0.0,6.1823,6.2212,6.2381,6.2229,6.2127,6.2127,6.2296,6.2381,6.2381,6.2212,6.2026,6.1856,6.1856,0.0,0.0,0.0,0.0,6.2144,6.2313,6.2381,6.2381,6.2381,6.2381,6.2381,6.2381,6.2381,6.2381,0.0,0.0,0.0,0.0,0.0,0.0,0.0,0.0,0.0,0.0,0.0,2.4577,2.3913,2.3457,0.0,0.0,0.0,0.0,0.0,0.0,0.0,0.0,0.0,2.3556,2.4951,2.6158,2.8755,3.2703,3.3505,3.4856,3.6604,3.5124,3.2868,2.9967,2.6639,2.4298,0.0,0.0,0.0,0.0,2.2812,0.0,0.0,0.0,0.0,0.0,2.4957,2.6238,0.0,2.928,3.0164,3.0567,0.0,0.0,0.0,0.0,2.96,2.96,2.96,3.0656,3.1323,2.9664,2.9651,2.9574,2.7961,2.6604,2.5705,2.567,2.5559,2.6416,2.956,3.17,3.4326,3.8449,4.1136,4.4181,4.8257,5.1099,5.3213,5.4448,5.4549,0.0,0.0,0.0,0.0,0.0,0.0,0.0,0.0,6.1992,6.2229,6.1907,6.189,6.2059,6.2381,6.2381,6.2381,6.2381,6.2381,6.2381,6.2381,6.2381,6.2381,0.0,0.0,0.0,6.2381,6.2381,6.2381,6.2459,6.2855,6.299,6.3049,6.3444,6.3556,6.3556,0.0,0.0,0.0,0.0,0.0,0.0,0.0,0.0,0.0,0.0,0.0,0.0,0.0,0.0,0.0,0.0,0.0,0.0,0.0,0.0,0.0,0.0,2.2423,2.3489,2.5731,2.5775,2.8537,3.415,3.4622,3.5952,3.8036,3.6936,3.4203,2.9927,2.5761,2.3659,2.3187,0.0,0.0,0.0,2.2734,0.0,0.0,0.0,0.0,0.0,0.0,0.0,0.0,2.9417,3.0433,3.0728,3.1019,0.0,0.0,0.0,0.0,0.0,2.9059,3.1157,3.2732,3.0714,3.0405,3.0085,2.8164,2.6321,2.5029,2.4923,2.5632,2.7091,2.9923,3.3023,3.6037,3.8667,4.2644,4.6794,5.0642,5.3061,5.4465,5.4583,0.0,0.0,0.0,0.0,0.0,0.0,0.0,0.0,0.0,6.1992,6.2059,6.1315,6.1417,6.1653,6.2042,6.2161,6.2279,6.2381,6.2381,6.2381,6.2381,6.2381,6.2381,0.0,0.0,0.0,6.2381,6.2381,6.2391,6.2489,6.3198,6.3531,6.3641,6.4521,6.4751,6.4663,0.0,0.0,0.0,0.0,0.0,0.0,0.0,0.0,0.0,0.0,0.0,0.0,0.0,0.0,0.0,0.0,0.0,0.0,0.0,0.0,0.0,2.231,2.2909,2.4272,2.6471,2.6534,2.8549,3.2639,3.5181,3.7255,3.8861,3.9849,3.6679,2.9999,2.7369,2.4794,2.2457,2.2344,0.0,2.2457,2.2378,0.0,0.0,0.0,0.0,0.0,0.0,0.0,0.0,2.8271,2.9918,3.1241,3.0492,0.0,0.0,0.0,0.0,0.0,2.9414,3.1173,3.1965,2.9889,2.9962,3.0138,2.8686,2.7673,2.693,2.6419,2.8062,3.0601,3.3662,3.5377,3.8046,4.3627,4.7169,4.9695,0.0,0.0,5.3907,0.0,0.0,0.0,0.0,0.0,0.0,0.0,0.0,0.0,0.0,6.1992,6.2059,6.1315,6.1907,6.1653,6.0469,6.1129,6.1772,6.2381,6.2381,6.2381,6.2381,6.2381,6.2381,0.0,0.0,6.2381,6.2381,6.2381,6.2404,6.2479,6.2606,6.2735,6.2864,6.3647,6.3536,6.3076,0.0,0.0,0.0,0.0,0.0,0.0,0.0,0.0,0.0,0.0,0.0,0.0,0.0,0.0,0.0,0.0,0.0,0.0,0.0,0.0,0.0,2.4628,2.4601,2.5077,2.6067,2.7707,3.0559,3.4712,3.7326,3.9761,4.1997,3.9363,3.5071,2.9385,2.6713,2.4547,2.2875,2.2474,2.231,2.231,0.0,0.0,0.0,0.0,0.0,0.0,0.0,0.0,0.0,0.0,3.0017,3.1242,2.9928,0.0,0.0,0.0,0.0,0.0,2.7977,2.9651,3.0982,3.0442,3.16,3.2514,3.1087,2.9953,2.9044,2.8335,3.0023,3.253,3.5589,3.7981,4.1544,4.7998,0.0,5.1208,5.3307,5.3938,0.0,0.0,0.0,0.0,0.0,0.0,0.0,0.0,0.0,0.0,0.0,0.0,6.173,6.0172,6.1291,6.1135,5.959,5.9915,6.0467,6.1163,6.1586,6.2009,6.2381,6.2381,6.2178,6.1823,0.0,6.1924,6.1257,6.207,6.2264,6.204,6.2904,6.3253,6.3417,6.4284,6.4387,6.4116,0.0,0.0,0.0,0.0,0.0,0.0,0.0,0.0,0.0,0.0,0.0,0.0,0.0,0.0,0.0,0.0,0.0,0.0,0.0,0.0,2.4228,2.6099,2.6148,2.6601,2.7657,2.9387,3.2544,3.7219,3.9442,4.1766,4.3965,3.8608,3.3593,2.8878,2.6048,2.4149,2.3119,2.2553,2.231,2.231,0.0,0.0,0.0,0.0,0.0,0.0,0.0,0.0,0.0,0.0,0.0,0.0,0.0,0.0,0.0,2.8281,2.7368,2.7334,2.7858,2.9161,3.0632,3.1698,3.3017,3.3933,3.3306,3.221,3.1192,3.0842,3.276,3.5298,3.7829,4.1428,4.5669,5.0871,5.1522,5.2411,0.0,0.0,0.0,0.0,0.0,0.0,0.0,0.0,0.0,0.0,0.0,0.0,0.0,0.0,6.1675,6.0021,6.0955,6.0727,5.9102,5.9133,5.9375,5.986,6.0639,6.14,6.2127,6.2127,6.1823,6.1315,6.1715,6.1299,6.0455,6.1534,6.1865,6.1782,6.2916,6.3592,6.3999,6.4524,6.4971,6.5283,0.0,0.0,0.0,0.0,0.0,0.0,0.0,0.0,0.0,0.0,0.0,0.0,0.0,0.0,0.0,0.0,0.0,0.0,0.0,0.0,2.3772,2.4611,2.6589,2.9569,3.3778,3.1862,3.3328,3.8439,4.0738,4.2058,4.2371,3.9204,3.459,2.8883,2.658,2.4361,2.2378,2.2327,2.231,2.231,2.231,0.0,0.0,0.0,0.0,0.0,0.0,0.0,0.0,0.0,0.0,0.0,0.0,0.0,3.1901,3.0328,2.9364,2.9299,3.1326,3.1512,3.163,3.3728,3.2967,3.2142,3.4018,3.3756,3.3333,3.3981,3.7437,4.0642,4.1656,4.637,5.0289,5.0907,5.2517,5.3954,0.0,0.0,0.0,0.0,0.0,0.0,0.0,0.0,0.0,0.0,0.0,0.0,0.0,0.0,0.0,6.2428,6.1757,6.0697,5.9213,5.9135,5.9099,5.9099,5.9844,6.0605,6.1383,6.1383,6.1349,6.1291,6.0642,6.0704,6.1276,6.0609,6.1219,6.2547,6.1924,6.2658,6.402,6.3232,6.398,6.5209,0.0,0.0,0.0,0.0,0.0,0.0,0.0,0.0,0.0,0.0,0.0,0.0,0.0,0.0,0.0,0.0,0.0,0.0,0.0,2.2975,2.4326,2.6471,2.6977,2.9134,3.3245,3.4394,3.7213,4.1822,4.2928,4.2748,4.1394,3.6231,3.2133,2.888,2.5675,2.404,2.3596,2.2699,2.2835,2.3579,2.2682,2.231,0.0,0.0,0.0,0.0,0.0,0.0,0.0,0.0,2.8871,3.052,2.8586,2.9967,3.1799,2.9397,2.8484,2.845,2.9279,3.0328,3.1512,3.2797,3.3564,3.4322,3.5531,3.6215,3.6823,3.7476,3.9256,4.137,4.3484,4.8008,5.1336,5.1184,5.3182,0.0,0.0,0.0,0.0,0.0,0.0,0.0,0.0,0.0,0.0,0.0,0.0,0.0,0.0,0.0,0.0,6.1252,6.1459,6.0323,5.78,5.8265,5.7959,5.6986,5.8646,5.9902,6.0599,6.0167,5.9891,5.9937,5.9648,5.9415,5.9387,6.054,6.1121,6.1333,6.2022,6.2698,6.3264,6.2934,6.3209,6.3704,0.0,0.0,0.0,0.0,0.0,0.0,0.0,0.0,0.0,0.0,0.0,0.0,0.0,0.0,0.0,0.0,0.0,0.0,2.231,2.2987,2.4408,2.6674,2.7031,2.8837,3.2352,3.5914,3.91,4.1859,4.2912,4.1957,3.8882,3.4445,3.1432,2.955,2.6505,2.5439,2.5827,2.4086,2.3722,2.4202,2.2827,2.2209,0.0,0.0,0.0,0.0,0.0,0.0,0.0,0.0,2.8347,2.985,2.8152,2.9626,3.1495,2.9211,2.8873,2.9178,2.8958,3.0023,3.1489,3.2655,3.4102,3.5544,3.6774,3.7996,3.918,4.0217,4.1073,4.2347,4.482,4.8182,0.0,0.0,0.0,0.0,0.0,0.0,0.0,0.0,0.0,0.0,0.0,0.0,0.0,0.0,0.0,0.0,0.0,0.0,0.0,0.0,6.0825,5.9822,5.7633,5.7905,5.7513,5.6422,5.8021,5.9023,5.9481,5.8932,5.8833,5.9125,5.887,5.8597,5.8481,5.9872,6.0229,6.0171,6.1506,6.2218,6.242,6.242,6.2585,6.2805,0.0,0.0,0.0,0.0,0.0,0.0,0.0,0.0,0.0,0.0,0.0,0.0,0.0,0.0,0.0,0.0,0.0,0.0,2.231,2.2987,2.3714,2.4472,2.659,2.9088,3.1876,3.6195,3.8157,3.7613,4.0347,3.9253,3.4676,3.4496,3.3243,3.1123,2.9634,2.8975,2.8842,2.6556,2.4944,2.3835,2.2744,2.202,2.1691,0.0,0.0,0.0,0.0,0.0,0.0,0.0,2.8433,2.8161,3.0446,3.1173,3.1055,3.0311,3.1123,3.2087,3.136,3.119,3.1715,3.3853,3.4399,3.5134,3.7731,3.896,4.006,4.201,4.3179,4.4336,4.5901,4.7033,0.0,0.0,0.0,0.0,0.0,0.0,0.0,0.0,0.0,0.0,0.0,0.0,0.0,0.0,0.0,0.0,0.0,0.0,0.0,0.0,6.0058,5.9208,5.9161,5.84,5.7997,5.7997,5.7997,5.798,5.7901,5.7901,5.834,5.9044,5.8321,5.8447,5.9149,5.8318,5.8492,5.93,6.0107,6.0896,6.1575,6.1575,6.2108,6.2805,0.0,0.0,0.0,0.0,0.0,0.0,0.0,0.0,0.0,0.0,0.0,0.0,0.0,0.0,0.0,0.0,0.0,0.0,2.231,2.2513,2.297,2.368,2.4943,2.604,2.6929,2.9675,3.368,3.8956,3.8362,3.6342,3.2964,2.9909,2.893,2.9732,2.8141,2.7414,2.7249,2.5246,2.4746,2.51,2.3452,2.2955,2.3157,0.0,0.0,0.0,0.0,0.0,0.0,0.0,0.0,0.0,2.7324,2.924,3.0835,2.9025,2.9567,3.0345,2.8518,3.0272,3.2648,3.2747,3.5525,3.8503,3.9524,4.03,4.1417,4.3344,4.4508,4.5316,4.5773,4.7914,0.0,0.0,0.0,0.0,0.0,0.0,0.0,0.0,0.0,0.0,0.0,0.0,0.0,0.0,0.0,0.0,0.0,0.0,0.0,0.0,5.9474,5.8677,5.7597,5.7854,5.748,5.6403,5.6946,5.7478,5.7957,5.7423,5.7586,5.8301,5.7557,5.7655,5.8373,5.871,5.9336,6.007,6.0309,6.0548,6.0768,6.0768,6.1263,6.1869,0.0,0.0,0.0,0.0,0.0,0.0,0.0,0.0,2.419,2.419,2.419,2.4024,0.0,0.0,0.0,2.2592,2.2136,0.0,2.1877,2.1877,2.2099,2.2626,2.3704,2.5034,2.6554,2.8615,3.1417,3.4868,3.4032,3.2461,3.0174,2.8794,2.9014,3.0486,3.0386,2.9626,2.8436,2.7048,2.6241,2.5843,2.4665,2.409,2.3943,0.0,0.0,0.0,0.0,0.0,0.0,0.0,0.0,0.0,2.545,2.7061,2.8585,2.7688,2.9048,3.0651,2.9626,3.1857,3.4575,3.5,3.6986,3.9296,4.0827,4.1678,4.2515,4.3705,4.4357,4.4906,4.5438,4.7511,0.0,0.0,0.0,0.0,0.0,0.0,0.0,0.0,0.0,0.0,0.0,0.0,0.0,0.0,0.0,0.0,0.0,0.0,0.0,0.0,5.7819,5.7345,5.6438,5.7166,5.7116,5.6186,5.6668,5.7134,5.7565,5.7116,5.7284,5.7997,5.7516,5.7613,5.8033,5.8529,5.9024,5.9446,5.9446,5.9648,5.9924,5.9924,6.0438,6.1043,0.0,0.0,0.0,0.0,0.0,0.0,0.0,2.419,2.419,2.419,2.419,2.3969,0.0,0.0,0.0,2.2422,2.167,2.1234,2.13,2.125,2.1308,2.1599,2.3078,2.5582,2.9121,3.0751,3.0243,2.7485,2.8611,2.838,2.6969,2.989,3.1691,3.251,3.4283,3.3561,3.0919,2.9955,2.8135,2.5863,2.5693,2.502,2.4066,2.3205,0.0,0.0,0.0,0.0,0.0,0.0,0.0,0.0,2.4425,2.4875,2.5137,2.6237,2.913,3.2043,3.2565,3.4478,3.6814,3.8719,3.8442,3.8544,4.1595,4.2821,4.3344,4.3404,4.3354,4.3753,4.508,0.0,0.0,0.0,0.0,0.0,0.0,0.0,0.0,0.0,0.0,0.0,0.0,0.0,0.0,0.0,0.0,0.0,0.0,0.0,0.0,5.5583,5.5689,5.5649,5.5592,5.6367,5.6739,0.0,5.6739,5.6791,5.6791,5.6791,5.7184,5.7886,5.7997,5.7997,5.7997,5.7997,5.7997,5.7997,5.7997,5.8455,5.9098,5.9098,5.9612,6.0291,0.0,0.0,0.0,0.0,0.0,0.0,2.4151,2.419,2.419,2.419,2.419,2.4153,2.4005,2.3531,0.0,2.3033,2.1894,2.1441,2.2048,2.1522,2.1564,2.2329,2.439,2.6389,2.8333,2.6939,2.5878,2.5203,2.7164,2.7427,2.6183,2.7905,2.9775,3.1678,3.1422,3.0282,2.833,2.5261,2.3838,2.3671,2.3462,2.3232,2.2994,2.2258,2.0938,0.0,0.0,0.0,0.0,0.0,0.0,0.0,2.3015,2.3964,2.4466,2.4717,2.7596,3.0353,2.8381,3.1965,3.6152,3.5839,3.8192,4.0753,4.1475,4.2491,4.3479,4.4003,4.4086,4.4325,0.0,0.0,0.0,0.0,0.0,0.0,0.0,0.0,0.0,0.0,0.0,0.0,0.0,0.0,0.0,0.0,0.0,0.0,0.0,0.0,0.0,5.4849,5.5408,5.5437,5.4818,5.5552,5.5667,0.0,5.5667,5.5948,5.5948,5.5948,5.6367,5.7184,5.7726,5.7997,5.7997,5.7997,5.7997,5.7997,5.7997,5.8107,5.8253,5.8253,5.8767,5.9391,0.0,0.0,0.0,0.0,0.0,0.0,0.0,0.0,2.419,2.419,2.419,2.395,2.3269,2.2883,0.0,0.0,2.0716,2.0411,2.1143,2.0832,2.1373,2.3051,2.497,2.581,2.5478,2.4141,2.2902,2.1803,2.3326,2.483,2.6333,2.7543,2.969,3.2465,3.1581,2.9723,2.7191,2.5041,2.4042,2.3853,2.3705,2.361,2.343,2.1829,1.9974,1.8115,1.7456,0.0,0.0,0.0,0.0,0.0,0.0,0.0,2.2517,2.3195,2.5737,2.8342,2.8203,3.1576,3.521,3.5977,3.8782,4.1384,4.1384,4.2402,4.3434,4.3778,4.4317,0.0,0.0,0.0,0.0,0.0,0.0,0.0,0.0,0.0,0.0,0.0,0.0,0.0,0.0,0.0,0.0,0.0,0.0,0.0,0.0,5.4641,5.4453,5.4059,5.4437,5.4437,5.4106,5.4818,5.4982,5.4589,5.4982,5.4999,5.473,5.6114,5.7029,5.7449,5.7839,5.7792,5.7498,5.7839,5.7774,5.7516,5.7886,5.7997,5.7997,5.7997,5.8272,5.8584,0.0,0.0,0.0,0.0,0.0,0.0,0.0,0.0,0.0,2.419,2.4153,2.3637,2.2334,2.2073,2.1493,0.0,0.0,0.0,1.9958,2.0166,2.1277,2.3601,2.4932,2.4772,2.2981,2.2417,2.1194,1.9283,1.9655,2.2204,2.6813,2.7736,2.9993,3.3124,3.189,2.9575,2.6512,2.5368,2.4451,2.3761,2.3648,2.3492,2.3178,2.1117,1.9161,1.7458,1.6886,1.7128,1.7802,0.0,0.0,0.0,0.0,0.0,2.0457,2.171,2.3792,2.6155,2.821,3.1098,3.4237,3.7071,3.9516,4.125,4.1354,4.2297,4.3225,4.3464,0.0,0.0,0.0,0.0,0.0,0.0,0.0,0.0,0.0,0.0,0.0,0.0,0.0,0.0,0.0,0.0,0.0,0.0,0.0,0.0,5.3501,5.3501,5.3501,5.3501,5.3501,5.3501,5.3501,5.4106,5.4437,5.4419,5.4651,5.4544,5.4188,5.6807,5.7774,5.7431,5.7546,5.7266,5.6721,5.7333,5.7266,5.6791,5.7498,5.7821,5.7839,5.795,5.7997,5.7997,0.0,0.0,0.0,0.0,0.0,0.0,0.0,0.0,0.0,0.0,2.395,2.3434,2.2627,2.2013,2.1344,2.0518,1.9493,1.9213,1.9946,0.0,0.0,2.3538,2.3854,2.4125,2.4405,2.2404,2.1194,2.0899,1.9638,2.1691,2.6724,2.7498,2.9186,3.1499,2.8715,2.6821,2.5463,2.0956,1.9292,1.9669,1.9543,1.9151,1.8638,1.8882,1.8071,1.6815,1.6723,1.7133,1.7891,0.0,1.9994,0.0,0.0,0.0,1.9982,2.0204,2.2143,2.4077,2.3581,2.7783,3.3213,3.6857,3.9178,4.0681,4.125,4.1953,4.2806,0.0,0.0,0.0,0.0,0.0,0.0,0.0,0.0,0.0,0.0,0.0,0.0,0.0,0.0,0.0,0.0,0.0,0.0,0.0,0.0,0.0,5.3501,5.3501,5.3501,5.3501,5.3501,5.3501,5.3501,5.3618,5.3685,5.3668,5.4939,5.5854,5.6456,5.7498,5.6909,5.5102,5.5724,5.5931,5.5893,5.5948,5.5948,5.5948,5.6721,5.7033,5.7116,5.7774,5.7997,5.7997,0.0,0.0,0.0,0.0,0.0,0.0,0.0,0.0,0.0,0.0,0.0,2.3198,2.1843,2.1272,2.0441,1.9092,1.8569,1.8603,1.9349,2.0611,2.1607,2.2212,2.2291,2.2219,2.2052,2.0666,1.9705,1.9299,1.9029,2.1363,2.6116,2.6835,2.9315,3.2921,2.9026,2.6564,2.5012,2.0407,1.8686,1.9014,1.8394,1.9301,2.0767,1.8444,1.8145,1.8698,1.6876,1.6593,1.7327,0.0,1.9126,1.9242,1.9996,0.0,0.0,0.0,1.9738,2.1686,2.4051,2.8517,3.3283,3.6164,3.8699,4.0576,4.1235,4.1893,4.2626,0.0,0.0,0.0,0.0,0.0,0.0,0.0,0.0,0.0,0.0,0.0,0.0,0.0,0.0,0.0,0.0,0.0,0.0,0.0,0.0,5.3501,5.3501,5.3501,5.3501,5.3501,5.3501,5.3501,5.3501,5.3501,5.3501,5.3501,5.4171,5.4686,5.4991,5.5314,5.5645,5.5928,5.6259,5.591,5.5102,5.5535,5.5437,5.5203,5.6438,5.6912,5.6964,5.7726,5.7997,5.7997,0.0,0.0,0.0,0.0,0.0,0.0,0.0,0.0,0.0,0.0,0.0,2.24,2.0866,0.0,0.0,0.0,1.7811,1.8116,1.8858,1.9976,2.0713,2.0883,2.0719,2.0343,1.9714,1.9012,1.8352,1.7811,1.8538,2.1295,2.5896,2.664,2.9668,3.4303,3.0023,2.6957,2.4728,2.0854,1.9309,1.939,1.8733,2.0079,2.2243,1.9765,1.9905,2.1044,1.7983,1.7284,0.0,0.0,0.0,0.0,0.0,0.0,0.0,0.0,0.0,1.9616,2.4364,2.8437,3.2033,3.4901,3.7664,3.9948,4.1115,0.0,4.2342,0.0,0.0,0.0,0.0,0.0,0.0,0.0,0.0,0.0,0.0,0.0,0.0,0.0,0.0,0.0,0.0,0.0,0.0,0.0,0.0,5.3501,5.3501,5.3501,5.3501,5.3501,5.3501,5.3501,5.3501,5.3501,5.3618,5.3766,5.3766,5.3898,5.4059,5.4059,5.4852,5.6331,5.6112,5.5355,5.4374,5.4939,5.4835,5.4499,5.5984,5.6616,5.6721,5.766,5.7997,5.7997,0.0,0.0,0.0,0.0,0.0,0.0,0.0,0.0,0.0,0.0,0.0,2.0735,1.9954,1.9344,1.8659,1.7862,1.7811,1.8116,1.8858,1.8994,1.9316,2.0018,1.9391,0.0,1.8961,1.8234,1.7845,1.7811,1.8538,2.1549,2.6657,2.7418,3.0176,3.4336,3.0581,2.7336,2.4414,2.1341,2.0099,2.0174,2.0451,2.0148,1.988,2.33,2.4111,2.3144,2.0744,2.0283,0.0,0.0,0.0,0.0,0.0,0.0,0.0,0.0,0.0,0.0,2.2377,2.5246,2.8219,3.2844,3.5805,3.8242,0.0,0.0,0.0,0.0,0.0,0.0,0.0,0.0,0.0,0.0,0.0,0.0,0.0,0.0,0.0,0.0,0.0,0.0,0.0,0.0,0.0,0.0,0.0,5.3501,5.3501,5.3501,5.3501,5.3501,5.3501,5.3501,5.3501,5.3501,5.3832,5.4527,5.4527,5.4939,5.561,5.561,5.5262,5.4651,5.4011,5.3618,5.3551,5.3618,5.3618,5.3717,5.5161,5.5762,5.5931,5.7431,5.7997,5.7997,0.0,0.0,0.0,0.0,0.0,0.0,0.0,0.0,0.0,0.0,0.0,0.0,0.0,1.9675,1.9049,1.8138,1.7901,1.7918,1.8189,1.8189,1.8318,1.8566,1.8335,1.82,1.82,1.7946,1.7811,1.7811,1.8065,2.0382,2.4611,2.5413,2.7168,2.957,2.7935,2.6468,2.4895,1.95,1.7349,1.7678,1.8888,2.0648,2.2713,2.3699,2.5395,0.0,0.0,0.0,0.0,0.0,0.0,0.0,0.0,0.0,0.0,1.5953,1.6621,1.7995,2.1274,2.4069,2.6891,3.043,3.3797,3.6761,3.896,4.0786,0.0,0.0,0.0,0.0,0.0,0.0,0.0,0.0,0.0,0.0,0.0,0.0,0.0,0.0,0.0,0.0,0.0,0.0,0.0,0.0,0.0,0.0,5.2739,5.323,5.3501,5.3501,5.3501,5.3501,5.3501,5.3501,5.3601,5.3881,5.3881,5.4059,5.4281,5.4281,5.4171,5.3881,5.3618,5.3501,5.3501,5.3501,5.3501,5.3685,5.5102,5.5706,5.5875,5.7413,5.7997,5.7997,0.0,0.0,0.0,0.0,0.0,0.0,0.0,0.0,0.0,2.0952,0.0,0.0,0.0,0.0,1.9033,1.8273,1.7952,1.7811,1.7811,1.7811,1.7811,1.7811,1.7811,1.7811,1.7811,1.7811,1.7811,1.7811,1.8065,1.9841,2.3054,2.3768,2.5003,2.6603,2.4893,2.4547,2.4918,2.0058,1.7688,1.7413,1.9828,2.1586,2.3067,2.5482,0.0,0.0,0.0,0.0,0.0,0.0,0.0,0.0,0.0,0.0,0.0,1.5254,1.6308,1.7813,2.008,2.2608,2.5477,2.8942,3.1338,3.3933,3.8108,0.0,0.0,0.0,0.0,0.0,0.0,0.0,0.0,0.0,0.0,0.0,0.0,0.0,0.0,0.0,0.0,0.0,0.0,0.0,0.0,0.0,0.0,0.0,5.2283,5.2807,5.323,5.3501,5.3501,5.3501,5.3501,5.3501,5.3501,5.3501,5.3501,5.3501,5.3501,5.3501,5.3501,5.3501,5.3501,5.3501,5.3501,5.3501,5.3685,5.3994,5.5203,5.5893,5.6241,5.7546,5.7997,5.7997,0.0,0.0,0.0,0.0,0.0,0.0,0.0,0.0,1.9305,1.9305,0.0,0.0,0.0,0.0,0.0,1.83,1.8025,1.7862,1.7811,1.7811,1.7811,1.7811,1.7811,1.7811,1.7811,1.7811,1.7811,1.7811,1.8521,2.001,2.2198,2.2612,2.3967,2.582,2.19,2.166,2.4238,2.3028,2.1259,1.9601,0.0,2.2896,2.0679,0.0,0.0,0.0,2.7109,2.6889,0.0,2.5123,0.0,0.0,0.0,0.0,0.0,1.4739,1.6017,1.7543,0.0,0.0,0.0,2.8218,0.0,0.0,3.8153,0.0,0.0,0.0,0.0,0.0,0.0,0.0,0.0,0.0,0.0,0.0,0.0,0.0,0.0,0.0,0.0,0.0,0.0,0.0,0.0,0.0,0.0,5.1488,5.2198,5.2283,5.2655,5.345,5.3501,5.3501,5.3501,5.3501,5.3501,5.3501,5.3501,5.3501,5.3501,5.3501,5.3501,5.3501,5.3501,5.3501,5.3501,5.3501,5.3929,5.4651,5.5437,5.6186,5.6964,5.7726,5.7997,5.7997,0.0,0.0,0.0,0.0,0.0,1.9565,1.9326,1.9305,1.9305,0.0,0.0,0.0,1.8467,1.9186,1.9866,2.0185,1.9983,1.9252,1.7901,1.7811,1.7811,1.7811,1.7811,1.7811,1.7811,1.7811,1.7811,1.7811,1.8014,1.8589,1.9498,2.0235,2.0909,2.1475,2.0963,2.0309,1.9391,1.7283,0.0,1.7973,1.9525,2.1668,0.0,0.0,0.0,0.0,0.0,3.0074,2.8104,0.0,2.5064,2.1186,0.0,0.0,1.4703,1.5179,1.5985,1.6954,1.8062,0.0,0.0,0.0,0.0,0.0,0.0,0.0,0.0,0.0,0.0,0.0,0.0,0.0,0.0,0.0,0.0,0.0,0.0,0.0,0.0,0.0,0.0,0.0,0.0,0.0,0.0,0.0,4.9982,5.049,5.0693,5.1725,5.2401,5.2621,5.3196,5.3501,5.3501,5.3501,5.3501,5.3501,5.3501,5.3501,5.3501,5.3501,5.3501,5.3501,5.3501,5.3501,5.3568,5.4106,5.4437,5.4695,5.6039,5.6721,5.6964,5.7726,5.7997,5.7997,0.0,0.0,1.8967,1.9647,2.0372,2.096,2.129,2.1051,2.0831,0.0,0.0,0.0,1.9711,2.088,2.1419,2.0723,2.0322,1.949,1.8061,1.7878,1.7811,1.7811,1.7811,1.7811,1.7811,1.7811,1.7811,1.7811,1.7658,1.7719,1.7938,1.7978,1.7976,1.8005,1.8007,1.7287,1.5968,1.431,0.0,0.0,1.9472,0.0,0.0,2.7959,2.9967,0.0,0.0,0.0,2.9101,3.0269,2.6979,0.0,0.0,0.0,0.0,0.0,1.6552,1.7734,1.8365,1.9811,2.141,2.2622,0.0,0.0,0.0,3.2093,0.0,0.0,0.0,0.0,0.0,0.0,0.0,0.0,0.0,0.0,0.0,0.0,0.0,0.0,0.0,0.0,0.0,0.0,0.0,0.0,4.9407,4.9779,5.0067,5.1217,5.1843,5.1843,5.2317,5.2706,5.301,5.301,5.3179,5.3501,5.3501,5.3501,5.3501,5.3501,5.3501,5.3501,5.3501,5.3501,5.3568,5.4328,5.4757,5.5161,5.6438,5.7083,5.7401,5.7839,5.7997,5.7997,0.0,0.0,1.9632,2.1259,2.241,2.3437,2.4337,2.3712,2.3199,0.0,2.2006,2.1492,2.2593,2.3485,2.3146,2.1042,2.0144,1.9321,1.8381,1.8,1.7811,1.7811,1.7811,1.7789,1.7743,1.7726,1.7743,1.7681,1.7392,1.7224,1.7158,1.6107,1.5518,1.5329,1.4269,1.3776,1.371,1.3365,0.0,1.5806,2.1131,2.2455,0.0,0.0,2.9702,0.0,3.0696,3.0633,2.9741,3.2039,2.9605,0.0,0.0,0.0,0.0,0.0,1.7633,1.9447,1.9239,2.0503,2.2278,2.3775,0.0,0.0,3.127,3.2317,0.0,0.0,0.0,0.0,0.0,0.0,0.0,0.0,0.0,0.0,0.0,0.0,0.0,0.0,0.0,0.0,0.0,0.0,4.9001,4.9001,4.9001,4.9289,4.9932,5.0676,5.1099,5.1099,5.1166,5.1522,5.2181,5.2181,5.2587,5.3365,5.3365,5.3416,5.3501,5.3501,5.3501,5.3501,5.3501,5.3501,5.3568,5.4328,5.5042,5.5762,5.6616,5.7351,5.7997,5.7997,5.7997,5.7997,1.8931,1.9506,2.0463,2.2092,2.3249,2.4465,2.5915,2.4905,2.4428,2.5731,2.5052,2.5493,2.8264,2.6481,2.5077,2.5012,2.2958,2.0947,1.9282,1.8317,1.7811,1.7811,1.7811,1.7681,1.7392,1.7392,1.7272,1.6993,1.6942,1.6763,1.6485,1.589,1.5066,1.4038,1.3439,1.2998,1.2723,1.3044,0.0,1.8221,1.8417,0.0,2.5557,2.7279,2.9621,3.2014,3.2554,3.2541,3.2152,0.0,3.0671,2.9301,0.0,0.0,0.0,1.8791,0.0,0.0,2.0122,2.147,0.0,0.0,0.0,0.0,2.4388,2.5211,0.0,0.0,0.0,0.0,0.0,0.0,0.0,0.0,0.0,0.0,0.0,0.0,0.0,0.0,0.0,0.0,0.0,0.0,4.9001,4.9001,4.9001,4.9069,4.9204,4.9915,5.0304,5.0304,5.0896,5.1285,5.142,5.142,5.1809,5.2536,5.2536,5.2875,5.3501,5.3501,5.3501,5.3501,5.3501,5.3501,5.3568,5.4328,5.5042,5.5762,5.6616,5.7351,5.7997,5.7997,5.7997,5.7997,1.9241,2.015,2.1626,2.3649,2.5102,2.667,2.8695,2.7981,2.7485,2.8294,2.8029,2.7952,2.8356,2.731,2.5892,2.4162,2.2668,2.1001,1.9117,1.8374,1.7949,1.7811,1.7811,1.7658,1.732,1.7296,1.6971,1.6296,1.6239,1.5972,1.5476,1.4674,1.4856,1.5738,1.3644,1.3514,1.4814,1.3661,1.4638,1.7167,1.9587,0.0,2.7886,2.9782,3.1746,3.352,3.3796,3.3897,3.3696,3.2303,3.088,0.0,0.0,2.6085,2.4517,0.0,2.1825,2.3125,0.0,0.0,0.0,2.2364,0.0,0.0,0.0,0.0,0.0,0.0,0.0,0.0,0.0,0.0,0.0,0.0,0.0,0.0,0.0,0.0,0.0,0.0,0.0,0.0,0.0,0.0,4.8513,4.894,4.9001,4.9001,4.9001,4.9357,4.9543,4.9543,4.9915,5.0287,5.0659,5.0659,5.1031,5.1758,5.1758,5.2164,5.2909,5.2909,5.3129,5.3501,5.3501,5.3501,5.3568,5.4328,5.4815,5.5231,5.6454,5.7351,5.7997,5.7997,5.7997,5.7941,1.9418,2.0664,2.2464,2.4576,2.6521,2.8452,3.041,3.016,2.98,2.9953,3.0375,3.0044,2.8411,2.8668,2.764,2.4373,2.3447,2.2102,1.9963,1.9395,1.9009,1.875,1.8138,1.7863,1.8053,1.7355,1.6548,1.5606,1.5297,1.4909,1.4418,1.345,1.4388,1.6766,1.4408,1.4563,1.6471,0.0,0.0,1.7106,0.0,2.5335,2.7686,3.1365,3.2921,3.3257,3.4336,3.4788,3.4675,3.3357,0.0,2.9126,2.9528,2.8084,0.0,0.0,0.0,0.0,0.0,0.0,0.0,0.0,0.0,2.3629,0.0,0.0,0.0,0.0,0.0,0.0,0.0,0.0,0.0,0.0,0.0,0.0,0.0,0.0,0.0,0.0,0.0,0.0,0.0,0.0,4.7228,4.8872,4.8206,4.8088,4.8951,4.9001,4.9001,4.9001,4.9001,4.9289,4.9864,4.9881,5.0253,5.0997,5.0997,5.1386,5.2097,5.2097,5.2452,5.3061,5.3213,5.3281,5.3331,5.393,5.4269,5.4682,5.6293,5.7151,5.7538,5.7538,5.7428,5.7189,1.9323,2.0664,2.2097,2.3107,2.5786,2.7879,2.8176,2.813,2.8326,2.9043,3.1016,3.2779,3.3908,3.3495,3.2926,3.2467,0.0,0.0,2.4476,0.0,2.2359,2.2143,1.9358,1.8743,2.0722,1.7623,1.5611,1.4902,1.4003,1.3537,1.3452,1.3154,1.2949,1.2984,1.5629,1.5655,0.0,0.0,1.9698,0.0,2.3715,2.3037,0.0,2.6791,2.9241,3.0658,3.3646,3.5039,3.5127,0.0,3.2403,3.1775,0.0,2.8561,3.0269,2.4682,0.0,0.0,0.0,0.0,0.0,0.0,2.5797,0.0,0.0,0.0,0.0,0.0,0.0,0.0,0.0,0.0,0.0,0.0,0.0,0.0,0.0,0.0,0.0,0.0,0.0,0.0,0.0,0.0,0.0,4.8697,4.5314,4.479,4.8798,4.9001,4.9001,4.9001,4.9001,4.9035,4.912,4.912,4.9492,5.0219,5.0219,5.0608,5.1336,5.1336,5.1386,5.1522,5.2147,5.2435,5.2435,5.255,5.3349,5.4644,5.6258,5.6479,5.5868,5.5868,5.5409,5.4693,1.8529,2.0317,2.2042,2.2868,2.4502,2.6169,2.7592,2.8998,2.9842,2.971,3.0979,3.2047,3.2408,0.0,0.0,0.0,0.0,2.7916,0.0,0.0,2.2277,2.0177,1.8631,1.8085,1.8639,1.6779,1.527,1.4229,1.3563,1.3113,1.2815,1.2542,1.3591,1.5747,1.6885,1.7978,1.8933,0.0,2.0075,0.0,0.0,0.0,0.0,2.9135,3.2587,3.3784,3.5177,3.5818,3.5881,0.0,3.3081,0.0,0.0,0.0,0.0,0.0,0.0,0.0,0.0,0.0,0.0,0.0,0.0,0.0,2.2236,0.0,2.1126,0.0,0.0,0.0,0.0,0.0,0.0,0.0,0.0,0.0,0.0,0.0,0.0,0.0,0.0,0.0,0.0,0.0,0.0,0.0,0.0,4.4248,4.8765,4.9001,4.9001,4.9001,4.9001,4.9001,4.9001,4.9001,4.9154,4.9458,4.9458,4.9847,5.0557,5.0557,5.0557,5.0574,5.0879,5.0777,5.0452,5.0864,5.1367,5.1971,5.3544,5.449,5.484,5.4381,5.3995,5.3592,1.7752,1.9825,2.1631,2.2001,2.307,2.4536,2.6516,2.8113,2.9195,0.0,0.0,0.0,3.1403,3.1181,0.0,0.0,3.1685,3.0283,0.0,0.0,2.4136,2.2548,1.9461,0.0,1.9535,1.6901,1.4963,1.381,1.3056,1.2543,1.228,1.2091,1.3642,1.6672,1.779,1.9673,2.1926,0.0,2.1744,2.2322,2.2598,2.3678,2.5749,3.1587,3.4876,3.6358,3.6358,3.6358,3.627,3.5667,3.3332,0.0,3.3746,0.0,0.0,0.0,0.0,0.0,2.5912,0.0,0.0,0.0,0.0,0.0,0.0,0.0,0.0,0.0,0.0,0.0,0.0,0.0,0.0,0.0,0.0,0.0,0.0,0.0,0.0,0.0,0.0,0.0,0.0,0.0,0.0,0.0,0.0,0.0,4.895,4.9256,4.9256,4.9256,4.9256,4.9212,4.9001,4.9001,4.9001,4.9001,4.9001,4.9272,4.9796,4.9796,4.9678,4.9509,4.9712,4.9373,4.8758,4.9272,4.9576,4.9696,5.0592,5.1719,5.2773,5.2632,5.2417,5.2105,1.7151,1.9141,2.0588,1.9843,2.1553,2.3326,2.4176,2.3728,0.0,0.0,0.0,0.0,0.0,0.0,0.0,0.0,0.0,3.7302,3.4056,0.0,2.9867,0.0,0.0,2.0511,0.0,1.8838,1.4491,1.381,1.2153,1.1494,1.1732,1.1906,1.2208,1.2831,1.8179,2.0037,1.9434,2.364,2.6666,2.8586,2.8072,3.0457,3.4098,0.0,3.352,3.6358,3.6358,0.0,0.0,3.3897,3.3081,0.0,0.0,0.0,0.0,0.0,0.0,0.0,0.0,0.0,0.0,2.5351,0.0,0.0,0.0,0.0,2.2218,0.0,0.0,0.0,0.0,0.0,0.0,0.0,0.0,0.0,0.0,0.0,0.0,0.0,0.0,0.0,0.0,0.0,0.0,0.0,0.0,0.0,4.9435,4.9976,4.9976,4.9976,4.9976,4.9681,4.9001,4.9001,4.9001,4.9001,4.9001,4.9018,4.9035,4.9035,4.8663,4.802,4.8731,4.8629,4.7953,4.7953,4.8384,4.8844,4.8058,4.8186,4.8978,5.0341,5.038,4.9572,1.8008,1.9089,1.989,1.9464,2.0034,2.12,0.0,2.4518,0.0,0.0,0.0,0.0,0.0,0.0,3.6751,0.0,0.0,3.7721,3.4641,3.1394,0.0,0.0,0.0,2.1198,0.0,0.0,1.6026,1.5111,1.3678,1.3085,1.3276,1.3089,1.3334,1.4115,1.8244,2.0928,0.0,0.0,0.0,0.0,0.0,3.1537,3.4173,0.0,0.0,3.6358,3.6358,3.6358,0.0,3.5504,3.4286,3.3206,3.3922,3.3031,3.1976,3.3232,3.3608,0.0,0.0,0.0,3.451,2.8852,0.0,0.0,0.0,0.0,0.0,0.0,0.0,0.0,0.0,0.0,0.0,0.0,0.0,0.0,0.0,0.0,0.0,0.0,0.0,0.0,0.0,0.0,0.0,0.0,0.0,0.0,0.0,4.9976,5.0241,5.0716,5.0241,4.9879,4.9664,4.9212,4.9001,4.9001,4.8528,4.8291,4.8274,4.7767,4.7141,4.6464,4.6718,4.6397,4.572,4.572,4.6088,4.6638,4.6759,4.7229,4.7922,4.8806,4.8967,4.8691,1.8477,1.9051,1.9555,1.9442,1.9832,0.0,0.0,0.0,0.0,0.0,3.1146,0.0,3.5506,0.0,3.6984,0.0,3.894,3.8033,3.5149,3.2866,0.0,3.1569,2.6406,0.0,0.0,0.0,1.8786,1.752,1.55,1.437,1.4084,1.384,1.396,1.4546,1.7721,2.0863,2.3841,2.6088,2.8348,0.0,0.0,3.3043,0.0,0.0,3.5818,3.583,0.0,3.6358,3.6358,3.6358,3.5416,3.4487,3.5918,3.4803,3.323,3.4819,3.4982,3.442,3.3859,3.5665,0.0,3.1581,3.1232,0.0,2.531,0.0,0.0,0.0,0.0,0.0,0.0,0.0,0.0,0.0,0.0,0.0,0.0,0.0,0.0,0.0,0.0,0.0,0.0,0.0,0.0,0.0,0.0,0.0,0.0,0.0,5.0716,5.1444,5.077,5.0241,5.0033,4.9563,4.9076,4.8612,4.8139,4.7784,4.7496,4.7022,4.6397,4.5703,4.5703,4.528,4.4587,4.4587,4.4961,4.5545,4.6143,4.6801,4.747,4.8075,4.8306,4.8343,1.8501,1.9072,1.9713,0.0,2.0831,0.0,0.0,0.0,2.8356,0.0,3.177,3.3733,3.6211,3.6699,3.7448,3.8942,3.9504,0.0,3.6004,3.4963,0.0,0.0,3.1325,3.0297,3.3665,0.0,0.0,0.0,0.0,1.5299,1.4242,1.4141,1.4042,1.4067,1.6728,0.0,2.3389,2.6678,3.0055,3.3294,3.4349,3.5064,3.5567,3.6144,0.0,3.4864,3.5968,3.6358,3.6358,3.6358,3.6465,3.6465,3.637,3.6805,3.7128,3.6587,3.7617,3.8252,3.568,3.676,3.7683,3.3635,0.0,0.0,0.0,0.0,2.9445,0.0,0.0,0.0,0.0,0.0,0.0,0.0,0.0,0.0,0.0,0.0,0.0,0.0,0.0,0.0,0.0,0.0,0.0,0.0,0.0,0.0,0.0,0.0,0.0,5.1939,5.1372,5.0699,4.9912,4.9964,4.9234,4.7868,4.7834,4.7428,4.6735,4.6701,4.6312,4.5652,4.5652,4.5246,4.457,4.4626,4.4998,4.5545,4.6192,4.6864,4.753,4.8075,4.8306,4.8416,1.9088,2.0231,2.1244,0.0,2.1011,2.173,0.0,0.0,0.0,0.0,3.3954,3.6285,3.8707,3.969,4.0181,4.0184,4.0412,0.0,0.0,0.0,0.0,3.8497,3.3594,3.1856,3.4258,2.7685,0.0,2.2862,0.0,1.6308,1.6024,1.4909,1.4381,1.4419,1.6138,1.9447,2.3941,2.644,3.0369,3.4939,3.5215,3.5177,0.0,0.0,3.568,3.4864,3.5968,3.6358,3.6358,3.6358,3.666,3.6963,3.6515,3.7001,3.7685,3.7191,3.7623,3.8277,3.842,3.9016,3.9295,3.7945,3.6917,3.5511,0.0,0.0,0.0,0.0,0.0,0.0,0.0,0.0,0.0,0.0,0.0,0.0,0.0,0.0,0.0,0.0,0.0,0.0,0.0,0.0,0.0,0.0,0.0,0.0,0.0,0.0,0.0,5.0254,5.0334,4.9661,4.8352,4.8889,4.8461,4.7073,4.6532,4.6177,4.5957,4.5399,4.5043,4.4874,4.4874,4.4756,4.4626,4.5089,4.5372,4.5597,4.6728,4.7512,4.8075,4.8249,4.8306,4.8416,1.9363,0.0,0.0,2.3712,0.0,0.0,2.6686,0.0,0.0,3.2228,3.5073,0.0,3.8689,4.0167,4.1069,4.1138,4.077,0.0,0.0,0.0,0.0,3.7388,3.5838,3.537,3.6178,3.1719,0.0,2.5794,0.0,0.0,1.6666,1.559,1.4876,1.458,1.6283,1.8977,2.2447,2.6866,3.1097,3.4864,3.5353,0.0,0.0,3.6219,3.5968,3.5516,3.6132,3.6358,3.6358,3.6358,3.6635,3.6811,3.6504,3.7136,3.7977,3.7659,3.8306,3.9201,3.9351,4.0171,4.0802,4.0164,3.9771,3.9002,3.6701,3.6178,3.5968,0.0,0.0,0.0,0.0,0.0,0.0,0.0,0.0,0.0,0.0,0.0,0.0,0.0,0.0,0.0,0.0,0.0,0.0,0.0,0.0,0.0,0.0,0.0,0.0,4.964,4.8684,4.7997,4.7817,4.7575,4.7072,4.6312,4.5906,4.5534,4.5213,4.4773,4.4587,4.4587,4.4587,4.4587,4.4626,4.5284,4.5648,4.6014,4.7281,4.7977,4.8306,4.8306,4.8306,4.8471,1.962,0.0,0.0,0.0,0.0,0.0,0.0,3.0485,0.0,3.3054,0.0,3.8102,3.8022,3.9639,4.1001,4.1611,0.0,3.9191,3.6631,3.8681,3.8606,3.5591,3.8007,3.9212,3.8722,3.6514,0.0,0.0,0.0,0.0,1.6908,1.6084,1.5358,1.4772,1.675,0.0,0.0,2.7896,3.2114,0.0,3.529,3.627,3.7123,3.6571,3.6358,3.6358,3.6358,3.6358,3.6358,3.6358,3.6508,3.6754,3.6614,3.75,3.8395,3.8398,3.9389,4.0412,3.9521,4.0611,4.1877,4.1215,4.2088,4.241,3.9694,3.9035,3.9035,3.9035,3.6761,3.6094,0.0,0.0,0.0,0.0,0.0,0.0,0.0,0.0,0.0,0.0,0.0,0.0,0.0,0.0,0.0,0.0,0.0,0.0,0.0,0.0,0.0,4.9072,4.697,0.0,4.7067,0.0,4.5558,4.5263,4.5466,4.5213,4.4587,4.4587,4.4587,4.4587,4.4587,4.4587,4.4682,4.532,4.6014,4.6756,4.7879,4.8306,4.8306,4.8306,4.8306,4.8526,2.0464,0.0,0.0,0.0,0.0,3.1641,3.3633,3.4688,3.5569,3.6505,3.9441,4.1272,4.0763,4.1256,4.1437,4.107,4.103,0.0,0.0,0.0,0.0,4.069,3.9879,3.9677,4.0247,3.6572,3.3081,0.0,0.0,0.0,1.8068,1.6143,1.5439,1.5841,1.6319,0.0,2.6201,2.9754,0.0,3.6584,3.632,3.6609,3.7123,3.6571,3.6358,3.6358,3.6358,3.6358,3.6358,3.6358,3.7351,3.8362,3.7944,3.8944,4.0134,3.9703,3.9808,4.0185,4.09,4.07,4.0731,4.2392,4.2377,4.1966,4.2346,4.2462,4.2462,4.2462,4.2013,4.1099,3.9601,0.0,0.0,0.0,0.0,0.0,0.0,0.0,0.0,0.0,0.0,0.0,0.0,0.0,0.0,0.0,0.0,0.0,0.0,0.0,0.0,0.0,0.0,0.0,0.0,0.0,4.5302,4.2912,4.4164,4.4705,4.4587,4.4587,4.4587,4.4587,4.4587,4.4587,4.4682,4.5783,4.6937,4.7977,4.821,4.8306,4.8306,4.8306,4.8306,4.8453,0.0,0.0,0.0,0.0,0.0,0.0,0.0,3.8964,0.0,3.7728,3.9305,4.0309,3.9608,4.063,4.1223,4.0984,4.0759,4.0738,4.1016,4.0945,4.1087,4.1485,4.0629,0.0,4.0876,3.8872,3.5537,3.0848,0.0,0.0,1.8376,1.6575,1.5861,1.6182,1.8108,2.16,0.0,0.0,0.0,3.5529,3.6119,3.6684,3.7123,3.6571,3.6358,3.6358,3.6358,3.6358,3.6358,3.6358,3.7313,3.8469,3.8157,3.9479,4.113,4.0829,4.1178,4.1674,4.1651,4.1657,4.1797,4.2327,4.2467,4.2629,4.3155,4.3329,4.3329,4.3329,4.3693,4.3264,4.0435,3.6425,0.0,0.0,0.0,0.0,0.0,0.0,0.0,0.0,0.0,0.0,0.0,0.0,0.0,0.0,0.0,0.0,0.0,0.0,0.0,0.0,0.0,0.0,0.0,0.0,0.0,4.3487,4.4231,4.4587,4.4587,4.4587,4.4587,4.4587,4.4587,4.4776,4.5178,4.6401,4.747,4.8306,4.8306,4.8306,4.8306,4.8306,4.8306,4.8416,0.0,2.8723,0.0,0.0,3.5183,0.0,3.9606,4.1937,4.2341,3.9184,3.9379,3.9518,3.8743,4.0014,4.0874,4.0802,4.0643,4.0757,4.1259,4.1379,4.1573,4.1785,4.1369,4.126,4.1494,4.1261,3.8371,0.0,0.0,0.0,0.0,1.7754,1.6893,0.0,0.0,0.0,0.0,0.0,3.2629,3.4688,3.5755,3.6596,3.7111,3.6445,3.6257,3.6452,3.6722,3.6803,3.6803,3.707,3.774,3.8515,3.8517,4.0118,4.1922,4.1922,4.2609,4.3105,4.2233,4.2585,4.3076,4.2193,4.2644,4.3329,4.3329,4.3329,4.3329,4.3551,4.4571,4.444,4.1493,3.841,0.0,0.0,0.0,0.0,0.0,0.0,0.0,0.0,0.0,0.0,0.0,0.0,0.0,0.0,0.0,0.0,0.0,0.0,0.0,0.0,0.0,4.2455,4.3809,0.0,4.3386,0.0,4.4418,4.4587,4.4587,4.4587,4.4587,4.4626,4.472,4.5232,4.5982,4.7017,4.7756,4.8306,4.8306,4.8306,4.8306,4.8306,4.8306,4.8379,0.0,0.0,0.0,0.0,0.0,0.0,0.0,4.1937,4.3351,4.2983,4.2596,4.2121,4.1511,4.1138,4.0703,4.0221,4.1357,4.2134,4.2162,4.2733,4.3455,4.4209,4.2733,4.2298,4.307,4.2302,4.0318,0.0,0.0,0.0,0.0,2.0323,0.0,0.0,0.0,0.0,0.0,3.0997,3.352,3.6797,3.5968,3.6245,3.7073,3.6019,3.5931,3.6534,3.7586,3.7939,3.8121,3.9183,3.9596,3.9702,3.9778,4.1263,4.316,4.316,4.3205,4.325,4.3185,4.3185,4.325,4.3155,4.325,4.3329,4.3329,4.3329,4.3551,4.4434,4.6064,4.5996,4.1671,4.3989,4.385,0.0,0.0,0.0,0.0,0.0,0.0,0.0,0.0,0.0,0.0,0.0,0.0,0.0,0.0,0.0,0.0,0.0,0.0,3.8458,0.0,3.9428,3.7635,4.2794,0.0,4.2523,4.391,4.4587,4.4587,4.4587,4.4587,4.4626,4.5178,4.6112,4.7237,4.7342,4.7756,4.8306,4.8306,4.8306,4.8306,4.8306,4.8306,4.8214,0.0,0.0,0.0,0.0,0.0,0.0,0.0,4.2873,4.3497,4.3497,4.3014,4.248,4.1853,4.1268,4.0703,4.0171,4.0629,4.1153,4.161,4.232,4.3037,4.3859,4.3189,4.3215,4.4047,4.3264,4.1382,0.0,0.0,0.0,0.0,0.0,0.0,0.0,0.0,2.836,3.0675,3.2268,3.3985,3.5667,3.5228,3.5316,3.5692,3.5592,3.568,3.6092,3.7547,3.8107,3.8289,3.9448,4.0318,4.0916,4.0916,4.2044,4.3329,4.3329,4.3329,4.3329,4.3329,4.3329,4.3329,4.3329,4.3329,4.3329,4.3329,4.3786,4.4297,4.4737,4.626,4.7192,4.6002,4.5084,4.3961,0.0,0.0,0.0,0.0,0.0,0.0,0.0,0.0,0.0,0.0,0.0,0.0,0.0,0.0,0.0,0.0,0.0,0.0,3.5098,0.0,4.1374,3.8819,4.3287,4.5125,4.4215,4.4833,4.5142,4.5142,4.4776,4.4814,4.5178,4.5783,4.6589,4.7428,4.7797,4.8075,4.8306,4.8306,4.8306,4.8251,4.7774,4.759,4.748,3.8524,0.0,3.812,0.0,4.0487,4.0873,4.3149,4.3497,4.3497,4.3497,4.3178,4.2714,4.2121,4.1358,4.0733,4.0368,4.0408,4.0629,4.117,4.21,4.2861,4.3403,4.3639,0.0,4.457,4.4045,4.2732,4.0658,3.6139,0.0,0.0,2.6245,0.0,0.0,2.9469,3.0572,3.166,3.3417,3.4361,3.4713,3.455,3.4742,3.5162,3.5055,3.5593,3.6625,3.7545,3.8233,3.8827,3.9972,4.0916,4.1587,4.1587,4.2371,4.3329,4.3329,4.3329,4.3329,4.3329,4.3329,4.3329,4.3329,4.3329,4.3329,4.3329,4.3849,4.451,4.5079,4.6678,4.8225,4.8861,4.6413,4.4451,4.506,0.0,0.0,0.0,0.0,0.0,0.0,0.0,3.706,0.0,0.0,0.0,0.0,0.0,0.0,0.0,0.0,0.0,0.0,0.0,0.0,0.0,4.4007,4.5925,4.5511,4.5511,4.5511,4.5511,4.5035,4.5267,4.6063,4.6524,4.7044,4.7715,4.8114,4.8306,4.8306,4.8306,4.8159,4.7884,4.7333,4.6966,4.6636,4.0598,4.0414,4.0616,4.302,4.3442,4.3442,4.3479,4.3497,4.3497,4.3497,4.3479,4.3304,4.275,4.1621,4.0903,4.0903,4.105,4.1187,4.1204,4.2591,4.3403,0.0,0.0,4.457,4.4587,4.457,4.4553,4.4502,0.0,0.0,3.6838,3.0797,2.9164,3.124,3.0816,3.1826,3.3884,3.4462,3.4713,3.4675,3.4123,3.4891,3.6079,3.4539,3.6013,3.869,3.7678,3.8418,4.0073,4.1169,4.1587,4.1587,4.1587,4.2371,4.3329,4.3329,4.3329,4.3329,4.3329,4.3329,4.3329,4.3329,4.3329,4.3329,4.3329,4.3329,4.3834,4.5762,4.7655,4.9001,4.9001,4.8968,4.7242,4.21,0.0,0.0,0.0,0.0,0.0,0.0,3.207,2.9968,3.5131,0.0,0.0,0.0,0.0,0.0,0.0,0.0,0.0,3.7436,3.9682,0.0,3.9005,4.4698,4.6903,4.5511,4.5511,4.5511,4.5511,4.5511,4.6161,4.7385,4.7385,4.7756,4.8306,4.8306,4.8306,4.8306,4.8306,4.7829,4.7131,4.7113,4.6617,4.5792,4.3516,4.3351,4.324,4.3442,4.3497,4.3497,4.3497,4.3497,4.3497,4.3497,4.3497,4.3444,4.325,4.258,4.1937,0.0,4.1192,4.0985,0.0,4.2039,4.2642,4.2642,4.3876,4.4587,4.4587,4.4587,4.4587,4.4587,0.0,0.0,0.0,3.3031,3.2484,3.4582,3.3767,3.3385,3.3357,3.3533,3.4005,3.4725,3.453,3.5199,3.6253,3.6085,3.6727,3.7827,3.9075,3.9927,4.0599,4.2225,4.2725,4.2725,4.2725,4.2996,4.3329,4.3329,4.3329,4.3329,4.3329,4.3329,4.3329,4.3329,4.3329,4.3329,4.3329,4.4327,4.5818,4.7737,4.8576,4.9001,4.9001,4.9001,4.8139,4.5449,4.6007,0.0,0.0,0.0,0.0,0.0,0.0,3.8548,0.0,3.5899,0.0,0.0,0.0,0.0,0.0,0.0,0.0,0.0,3.9781,0.0,3.8278,4.3506,4.6127,4.6094,4.6094,4.6094,4.6094,4.6094,4.6571,4.7385,4.7385,4.7756,4.8269,4.7719,4.7498,4.7443,4.6893,4.6507,4.6232,4.5681,4.5314,4.4966,4.5259,4.4911,4.4654,4.4433,4.3883,4.3589,4.3901,4.3681,4.3497,4.3497,4.3497,4.3497,4.3497,4.3214,0.0,4.2203,4.1578,4.1223,4.1223,4.1891,4.2347,4.262,4.3634,4.4282,4.457,0.0,0.0,4.4587,4.1585,3.9374,3.7976,3.5755,3.5452,3.678,3.5695,3.4884,3.4249,3.4249,3.465,3.5278,3.5278,3.5908,3.6816,3.6799,3.7424,3.8382,3.9084,3.9672,4.0472,4.1799,4.2275,4.24,4.3081,4.3329,4.3329,4.3329,4.3329,4.3329,4.3329,4.3329,4.3329,4.3329,4.3329,4.3329,4.3329,4.4555,4.6119,4.7655,4.8225,4.8576,4.894,4.8781,4.8189,4.6989,4.6566,4.5957,4.4756,0.0,0.0,0.0,0.0,0.0,0.0,3.818,0.0,0.0,0.0,0.0,0.0,0.0,0.0,3.6413,4.1321,0.0,3.9922,4.3842,4.5864,4.5988,4.6522,4.6774,4.6774,4.6774,4.697,4.728,4.728,4.7317,4.737,4.6874,4.6654,4.6617,4.6104,4.5718,4.5388,4.4892,4.4525,4.4176,4.5993,4.5351,0.0,0.0,4.4617,0.0,4.4599,4.4066,4.3552,4.3497,4.3497,4.3497,4.3497,4.3497,4.3286,4.2788,0.0,0.0,0.0,4.1992,4.2396,4.3089,4.3267,4.3758,4.4485,4.4553,4.4587,4.4587,4.2851,4.1611,4.0766,3.8823,3.783,3.7753,3.6766,3.6277,3.6198,3.6198,3.6277,3.629,3.629,3.693,3.7829,3.6774,3.8083,4.01,3.8031,3.8333,3.9758,4.0501,4.0732,4.101,4.2773,4.3329,4.3329,4.3329,4.3329,4.3329,4.3329,4.3329,4.3329,4.3329,4.3329,4.3329,4.3472,4.422,4.5153,4.6189,4.7088,4.7933,4.8861,4.8409,4.7648,4.6853,4.6109,4.5348,4.4536,0.0,0.0,0.0,0.0,0.0,0.0,3.6934,3.8448,0.0,0.0,0.0,0.0,0.0,3.5465,4.3426,4.379,4.3594,4.3106,4.5063,4.5763,4.522,4.6629,4.7325,4.7325,4.7325,4.7193,4.704,4.704,4.6599,4.5902,4.5847,4.581,4.581,4.5755,4.5278,4.4635,4.4635,4.414,4.3497,0.0,0.0,4.5681,4.5865,4.5076,4.4488,4.4672,4.4544,4.4195,4.3571,4.3497,4.3497,4.3497,4.3497,4.3444,4.3321,4.2808,4.248,4.248,4.2219,4.2171,4.2345,4.3011,4.3504,4.369,4.4282,4.4587,4.4587,4.2872,4.1917,4.1683,3.9854,3.8604,3.781,3.7525,3.6944,3.6198,3.6198,3.6682,3.742,3.742,3.8055,3.9017,3.8767,3.9032,3.9636,3.9653,3.9843,4.0395,4.1551,4.1937,4.2134,4.3041,4.3329,4.3329,4.3329,4.3329,4.3329,4.3329,4.3329,4.3329,4.3329,4.3329,4.3693,4.518,4.569,4.633,4.8015,4.8497,4.8719,4.894,4.8409,4.7496,4.6177,4.5331,4.4367,4.3014,4.2828,0.0,0.0,4.1184,4.1009,4.0816,4.1043,4.061,0.0,0.0,0.0,0.0,3.7422,3.798,4.2145,4.2814,4.289,4.2345,4.2923,4.3614,4.4395,4.5653,4.6247,4.6247,4.6247,4.6231,4.6177,4.6177,4.6085,4.5847,4.5241,4.4984,4.4929,4.4305,4.3938,4.3773,4.3773,4.3644,4.3497,4.6654,4.5902,4.548,4.5847,4.4929,4.4287,4.4654,4.4397,4.3993,4.3552,4.3497,4.3497,4.3497,4.3497,4.3497,4.3497,4.325,4.3069,4.3069,4.2614,4.2405,4.2485,4.2994,4.3369,4.3403,4.4181,4.4587,4.4587,4.3229,4.2395,4.1997,4.0638,3.9478,3.8546,3.8546,3.8219,3.7648,3.7648,3.7979,3.8546,3.8546,3.887,3.9424,3.9424,3.9424,3.9469,3.9828,3.9948,4.0113,4.113,4.1669,4.2028,4.2686,4.2895,4.2895,4.2895,4.309,4.3329,4.3329,4.3329,4.3329,4.3329,4.3329,4.3693,4.5196,4.5561,4.5968,4.7535,4.8136,4.8312,4.8044,4.7394,4.6532,4.5382,4.4265,4.325,4.2405,4.2533,0.0,4.2261,4.2341,4.2454,4.2388,4.257,4.2047,4.0524,0.0,0.0,4.0873,4.0469,4.0951,4.2528,4.2454,4.2256,4.1978,4.2402,4.3395,4.4921,4.5586,4.5902,4.5902,4.5902,4.5771,4.5592,4.5592,4.5471,4.5276,4.4829,4.4536,4.4354,4.3892,4.3612,4.3497,4.3497,4.3497,4.3513,4.5902,4.5259,4.4947,4.5755,4.4672,4.3901,4.4617,4.4121,4.3626,4.3516,4.3497,4.3497,4.3497,4.3497,4.3497,4.3497,4.3497,4.3497,4.3497,4.3014,4.2727,4.2731,4.3027,4.3219,4.3234,4.413,4.4587,4.4587,4.3756,4.2847,4.1997,4.108,4.0239,3.9424,3.9424,3.9424,3.9424,3.9424,3.9424,3.9424,3.9424,3.9424,3.9424,3.9424,3.9424,3.9424,3.9424,3.9424,3.9514,4.0172,4.0771,4.1354,4.2013,4.2207,4.2207,4.2207,4.2596,4.303,4.303,4.3105,4.318,4.318,4.318,4.3371,4.4293,4.4483,4.4874,4.593,4.6665,4.6985,4.6549,4.5855,4.4976,4.3758,4.276,4.1984,4.1494,0.0,4.2653,4.2107,4.2537,4.2834,4.2727,4.2788,4.3014,4.3463,4.3497,4.3497,0.0,4.3497,4.3497,4.3497,4.2483,4.1895,4.181,4.2661,4.3836,4.5407,4.5498,4.5535,4.5535,4.5535,4.534,4.5041,4.5041,4.4841,4.458,4.458,4.4419,4.4087,4.4087,4.3912,4.3664,4.3664,4.3664,4.3712,4.5902,4.5259,4.4947,4.5755,4.5131,4.4562,4.469,4.4599,4.4268,4.3589,4.3497,4.3497,4.3497,4.3497,4.3497,4.3497,4.3497,4.3497,4.3497,4.3014,4.2494,4.197,4.2748,4.2962,4.2455,4.3859,4.4587,4.4587,4.3756,4.2847,4.1997,4.108,4.0239,3.9424,3.9424,3.9424,3.9424,3.9424,3.9424,3.9424,3.9424,3.9424,3.9424,3.9424,3.9424,3.9424,3.9424,3.9424,3.9514,4.0172,4.0472,4.0666,4.1324,4.1534,4.1534,4.1534,4.1609,4.1683,4.1683,4.2087,4.2506,4.2506,4.2506,4.265,4.3055,4.323,4.3568,4.4519,4.489,4.5064,4.4959,4.4282,4.2709,3.9462,4.0307,4.0441,3.7776,0.0,4.14,4.1789,4.2358,4.2703,4.2711,4.3105,4.341,4.3479,4.3497,4.3497,4.3497,4.3497,4.3497,4.3497,4.2884,4.2302,4.1793,4.288,4.3342,4.3188,4.3669,4.3864,4.3864,4.3864,4.3974,4.4202,4.4202,4.4345,4.458,4.458,4.4553,4.4501,4.4501,4.4474,4.4419,4.4419,4.4419,4.4447,4.4599,4.4305,4.4176,4.4525,4.4287,4.4048,4.4048,4.4048,4.392,4.3534,4.3497,4.3497,4.3497,4.3497,4.3497,4.3497,4.3497,4.3497,4.3497,4.3014,4.244,4.1853,4.2294,4.2704,4.2878,4.3589,4.4164,4.4587,4.4196,4.3545,4.2707,4.2252,4.1412,4.0115,4.0115,3.9864,3.9424,3.9424,3.9424,3.9424,3.9424,3.9424,3.9424,3.9424,3.9424,3.9424,3.9424,3.9424,3.9469,3.9768,4.0113,4.0442,4.0756,4.0846,4.0846,4.0846,4.11,4.1384,4.1384,4.1609,4.1833,4.1833,4.1564,4.1505,4.2129,4.239,4.2623,4.3136,4.4013,4.4333,4.3504,4.3047,4.2117,4.002,4.0189,0.0,3.9022,4.0333,4.1621,4.2203,4.2808,4.3142,4.3142,4.3526,4.3772,4.3772,4.3974,4.4004,4.3772,4.3772,4.3772,4.3772,4.3087,4.2577,4.2302,4.2808,4.3087,4.3124,4.3375,4.3497,4.3532,4.3712,4.3974,4.4318,4.4508,4.4787,4.514,4.514,4.5033,4.4872,4.4872,4.4776,4.458,4.458,4.458,4.465,4.3497,4.3497,4.3497,4.3497,4.3497,4.3497,4.3497,4.3497,4.3497,4.3497,4.3497,4.3497,4.3497,4.3497,4.3497,4.3497,4.3497,4.3497,4.3497,4.3014,4.248,4.2021,4.2072,4.2429,4.3132,4.3318,4.3707,4.4316,4.4485,4.4121,4.3306,4.3306,4.2395,4.069,4.069,4.0309,3.9666,3.9666,3.9666,3.9666,3.9666,3.961,3.9424,3.9424,3.9424,3.9424,3.9424,3.9424,3.9424,3.9424,3.9753,4.0172,4.0172,4.0172,4.0172,4.0172,4.0531,4.0965,4.1115,4.1145,4.1115,4.0965,4.0546,4.0287,4.0692,4.106,4.1305,4.1422,4.2555,4.3166,4.1999,4.1779,4.1408,4.0288,0.0,4.0288,4.0289,4.1248,4.2244,4.2808,4.325,4.3548,4.3597,4.3849,4.4028,4.4117,4.4419,4.4474,4.4146,4.4146,4.4146,4.4146,4.3419,4.3069,4.314,4.3051,4.3266,4.3777,4.3777,4.3777,4.3758,4.4016,4.4346,4.4732,4.4988,4.5302,4.5586,4.5586,4.5438,4.5222,4.5222,4.5074,4.483,4.483,4.483,4.4872,4.3497,4.3497,4.3497,4.3497,4.3497,4.3497,4.3497,4.3497,4.3497,4.3497,4.3497,4.3497,4.3497,4.3497,4.3497,4.3497,4.3497,4.3497,4.3497,4.3014,4.2655,4.2616,4.2281,4.2188,4.2354,4.3064,4.3453,4.3504,4.4215,4.4121,4.3306,4.3306,4.2395,4.069,4.069,4.069,4.0622,4.0622,4.0622,4.0622,4.0622,4.0115,3.9424,3.9424,3.9424,3.9424,3.9424,3.9424,3.9424,3.9424,3.9454,3.9484,3.9484,3.9484,3.9484,3.9484,3.9529,3.9694,4.0307,4.0472,4.0322,3.9709,3.9529,3.917,3.7967,3.8415,3.9026,3.9022,3.9809,4.0375,4.0257,4.024,3.9538,3.724,0.0,0.0,3.8634,4.0817,4.2808,4.3375,4.3497,4.3612,4.3924,4.3986,4.4146,4.4527,4.458,4.458,4.4553,4.4553,4.4553,4.4553,4.4146,4.4087,4.4455,4.4087,4.4117,4.4501,4.4501,4.4501,4.4527,4.4553,4.4732,4.5074,4.5096,4.5302,4.5586,4.5586,4.5586,4.5568,4.5568,4.555,4.5513,4.5513,4.5513,4.5531,4.305,4.3014,4.2884,4.2523,4.2752,4.3014,4.3014,4.3304,4.3497,4.3497,4.3497,4.3497,4.3497,4.3497,4.3497,4.3497,4.3497,4.3497,4.3497,4.3286,4.2696,4.1621,4.1429,4.1415,4.1593,4.2337,4.2946,4.342,4.4198,4.444,4.4138,4.4138,4.3486,4.2316,4.2316,4.1997,4.1543,4.1543,4.1543,4.1478,4.0946,4.05,4.0115,3.961,3.9424,3.9424,3.9424,3.9424,3.9424,3.9424,3.9424,3.9424,3.9424,3.9424,3.9424,3.9424,3.9424,3.9469,3.9723,3.9783,3.9634,3.896,3.8482,3.8052,3.7623,3.7856,3.8322,3.8764,3.9515,4.007,4.007,4.007,3.9929,3.9334,0.0,4.0937,4.0977,4.1973,4.2902,4.3444,4.3497,4.3612,4.3986,4.4252,4.4508,4.4896,4.5096,4.514,4.4919,4.4919,4.4919,4.4919,4.4757,4.4657,4.458,4.4447,4.4447,4.458,4.458,4.458,4.4624,4.4825,4.4966,4.5096,4.5322,4.5495,4.5586,4.5586,4.5586,4.5586,4.5586,4.5586,4.5586,4.5586,4.5586,4.5586,4.2826,4.2711,4.2519,4.1895,4.2302,4.2711,4.2711,4.3178,4.3497,4.3497,4.3497,4.3497,4.3497,4.3497,4.3497,4.3497,4.3497,4.3497,4.3497,4.3321,4.2734,4.1534,4.1251,4.1163,4.1086,4.1663,4.232,4.3064,4.3842,4.4333,4.4587,4.4587,4.4121,4.3306,4.3306,4.2986,4.2395,4.2395,4.2395,4.2316,4.1478,4.0946,4.0622,3.9737,3.9424,3.9424,3.9424,3.9424,3.9424,3.9424,3.9424,3.9424,3.9424,3.9424,3.9424,3.9424,3.9275,3.9095,3.9095,3.8945,3.8676,3.8197,3.7599,3.7128,3.7278,3.755,3.8035,3.8745,3.9542,4.007,4.007,4.007,4.0336,4.1041,4.1161,4.1621,4.277,4.2939,4.3105,4.3444,4.3597,4.3804,4.4146,4.4535,4.4896,4.5222,4.5476,4.5495,4.5263,4.5243,4.5243,4.5243,4.5243,4.514,4.4919,4.4806,4.4806,4.4919,4.4919,4.4919,4.4919,4.514,4.5243,4.5263,4.5495,4.5586,4.5586,4.5586,4.5586,4.5586,4.5586,4.5586,4.5586,4.5586,4.5586,4.5586,4.2788,4.2711,4.248,4.1895,4.2302,4.2693,4.2693,4.3124,4.3497,4.3497,4.3497,4.3497,4.3497,4.3497,4.3497,4.3497,4.3497,4.3497,4.3497,4.3014,4.2693,4.2711,4.2121,4.149,4.0903,4.1119,4.1559,4.2286,4.3047,4.3809,4.457,4.4587,4.4138,4.3306,4.3306,4.3306,4.3306,4.3306,4.3306,4.3229,4.2395,4.1478,4.0622,3.9737,3.9424,3.9424,3.9424,3.9424,3.9424,3.9424,3.9424,3.9424,3.9424,3.9424,3.9409,3.9409,3.8931,3.8377,3.8377,3.7898,3.7404,3.7404,3.6941,3.6547,3.66,3.7219,3.8035,3.8745,3.9542,4.007,4.007,4.0121,4.0466,4.1639,4.1793,4.2226,4.3356,4.3497,4.3497,4.3497,4.3804,4.4146,4.4553,4.4896,4.5243,4.5568,4.5586,4.5586,4.5586,4.5586,4.5586,4.5586,4.5586,4.5586,4.5586,4.5263,4.5263,4.5586,4.5586,4.5586,4.5586,4.5586,4.5586,4.5586,4.5586,4.5586,4.5586,4.5586,4.5586,4.5586,4.5586,4.5586,4.5586,4.5586,4.5586,4.5586,4.2203,4.1707,4.1268,4.0672,4.142,4.208,4.208,4.2903,4.3497,4.3497,4.3497,4.3497,4.3497,4.3497,4.3497,4.3497,4.3497,4.3497,4.3497,4.3339,4.3087,4.2711,4.1725,4.092,4.0319,4.09,4.1322,4.1525,4.2794,4.3538,4.3775,4.4333,4.444,4.4196,4.4196,4.4196,4.4196,4.4196,4.4196,4.4138,4.3229,4.2395,4.1543,4.0622,3.992,3.9424,3.9424,3.9424,3.9424,3.9424,3.9424,3.9424,3.9424,3.9095,3.8691,3.8691,3.8212,3.7704,3.7704,3.724,3.6761,3.6761,3.6626,3.6663,3.7333,3.7632,3.8149,3.9437,3.9952,4.007,4.007,4.0417,4.092,4.1664,4.2162,4.2675,4.341,4.3497,4.3497,4.3497,4.3597,4.3899,4.4527,4.4682,4.4988,4.5568,4.5586,4.5586,4.5586,4.5586,4.5586,4.5586,4.5586,4.5586,4.5586,4.5495,4.5495,4.5586,4.5586,4.5586,4.5586,4.5586,4.5586,4.5586,4.5586,4.5586,4.5586,4.5586,4.5586,4.5586,4.5586,4.5643,4.5738,4.5738,4.5738,4.5738,4.1937,4.1313,4.0733,4.0204,4.0861,4.1534,4.175,4.258,4.325,4.3479,4.3497,4.3497,4.3497,4.3497,4.3497,4.3497,4.3497,4.3497,4.3497,4.3286,4.2921,4.2382,4.1402,4.0733,4.04,4.0662,4.0899,4.1204,4.21,4.2692,4.298,4.3758,4.413,4.413,4.4451,4.4587,4.4587,4.4587,4.4587,4.4497,4.329,4.2458,4.1869,4.0638,3.9864,3.9424,3.9424,3.9424,3.9379,3.9095,3.8841,3.8631,3.8631,3.8332,3.8003,3.8003,3.7539,3.7045,3.7045,3.6582,3.6088,3.6088,3.6088,3.641,3.7567,3.7822,3.8262,3.9782,4.007,4.007,4.007,4.0528,4.1087,4.1707,4.2302,4.2902,4.341,4.3497,4.3497,4.3497,4.3631,4.3868,4.4318,4.4631,4.5011,4.5568,4.5586,4.5586,4.5586,4.5586,4.5586,4.5586,4.5586,4.5586,4.5586,4.5586,4.5586,4.5586,4.5586,4.5586,4.5586,4.5586,4.5586,4.5586,4.5586,4.5586,4.5586,4.5586,4.5586,4.5605,4.5643,4.5738,4.5794,4.5819,4.5838,4.5844,4.1895,4.1268,4.0655,4.0221,4.0577,4.1178,4.1725,4.2342,4.2939,4.3444,4.3497,4.3497,4.3497,4.3497,4.3497,4.3497,4.3497,4.3497,4.3497,4.305,4.248,4.1853,4.1251,4.0949,4.0827,4.0319,4.0409,4.1102,4.117,4.1542,4.2219,4.2963,4.3352,4.3453,4.4164,4.4519,4.4587,4.4587,4.4587,4.444,4.2892,4.2125,4.1804,4.0255,3.9553,3.9424,3.9424,3.9424,3.932,3.8616,3.7943,3.7404,3.7404,3.7291,3.7178,3.7315,3.6813,3.632,3.6402,3.5953,3.5504,3.5504,3.5554,3.5958,3.7472,3.7822,3.8262,3.9782,4.007,4.007,4.007,4.0577,4.1178,4.1707,4.2342,4.2939,4.3444,4.3497,4.3497,4.3497,4.3772,4.3955,4.4016,4.4663,4.5222,4.5531,4.5586,4.5586,4.5586,4.5586,4.5586,4.5586,4.5586,4.5586,4.5586,4.5586,4.5586,4.5586,4.5586,4.5586,4.5586,4.5586,4.5586,4.5586,4.5586,4.5586,4.5586,4.5586,4.5586,4.5605,4.5757,4.5794,4.5819,4.5886,4.5918,4.5918,4.1853,4.0984,4.0254,4.0121,4.0938,4.1664,4.1768,4.2657,4.3375,4.3479,4.3497,4.3497,4.3497,4.3497,4.3497,4.3497,4.3497,4.3497,4.3497,4.341,4.2865,4.1835,4.1664,4.1196,4.0286,4.0171,4.0155,4.0324,4.0916,4.1288,4.1457,4.2185,4.2861,4.342,4.3589,4.4012,4.4587,4.4587,4.4587,4.457,4.4196,4.3229,4.1933,4.1609,4.0585,3.9424,3.9424,3.9424,3.932,3.8616,3.7943,3.7404,3.7404,3.6537,3.5696,3.6454,3.5695,3.4747,3.5487,3.5609,3.5504,3.5504,3.5943,3.6631,3.7573,3.7822,3.8262,3.9782,4.007,4.007,4.007,4.0938,4.1664,4.1768,4.2657,4.3375,4.3479,4.3497,4.3497,4.3497,4.3563,4.3693,4.3986,4.4663,4.5118,4.5201,4.5438,4.5586,4.5586,4.5586,4.5586,4.5586,4.5586,4.5586,4.5586,4.5586,4.5586,4.5586,4.5586,4.5586,4.5586,4.5586,4.5586,4.5586,4.5586,4.5586,4.5586,4.5586,4.5586,4.5605,4.5757,4.5834,4.5897,4.6018,4.6056,4.603,4.2203,4.1508,4.0891,4.0891,4.142,4.1895,4.2162,4.2714,4.3214,4.3463,4.3497,4.3497,4.3497,4.3497,4.3497,4.3497,4.3149,4.3075,4.3461,4.313,4.2414,4.1304,4.1304,4.0569,3.9088,3.9039,3.9394,4.007,4.0121,4.0442,4.1047,4.1189,4.1783,4.2809,4.287,4.3098,4.3504,4.3876,4.4028,4.399,4.3987,4.3152,4.1933,4.1543,4.0585,3.9379,3.905,3.8332,3.7449,3.6761,3.6297,3.5932,3.5518,3.4986,3.4727,3.5556,3.4971,3.4303,3.5599,3.6023,3.5991,3.5991,3.6569,3.7263,3.769,3.8092,3.8652,3.985,4.007,4.007,4.007,4.103,4.181,4.181,4.2772,4.3497,4.3497,4.3497,4.3497,4.3497,4.3497,4.3612,4.3986,4.4354,4.4713,4.5074,4.5263,4.5438,4.5586,4.5586,4.5586,4.5586,4.5586,4.5586,4.5586,4.5643,4.5699,4.5699,4.5699,4.5699,4.5699,4.5699,4.5643,4.5586,4.5586,4.5586,4.5586,4.568,4.5699,4.5719,4.5873,4.5947,4.6009,4.6153,4.6147,4.607,4.2577,4.2162,4.1768,4.1664,4.181,4.2121,4.2616,4.2788,4.2976,4.3444,4.3497,4.3497,4.3497,4.3369,4.3277,4.3277,4.2561,4.2378,4.3039,4.247,4.165,4.0669,4.0529,3.9729,3.8078,3.7936,3.8497,3.9698,3.9106,3.9364,4.0371,3.9929,4.0404,4.1595,4.1818,4.1914,4.1965,4.2861,4.3217,4.323,4.314,4.2606,4.1757,4.0841,4.001,3.9189,3.8497,3.7067,3.5413,3.473,3.4397,3.4196,3.3369,3.3331,3.3779,3.4617,3.4292,3.4142,3.5867,3.6481,3.6615,3.6615,3.7322,3.7978,3.7978,3.8469,3.9139,3.9952,4.007,4.007,4.007,4.0938,4.1664,4.1793,4.2696,4.341,4.3497,4.3497,4.3497,4.3497,4.3497,4.3597,4.3881,4.3955,4.4243,4.4853,4.503,4.5222,4.5495,4.5568,4.5586,4.5586,4.5586,4.5586,4.5586,4.5738,4.5811,4.5819,4.5849,4.583,4.5819,4.583,4.5757,4.5643,4.5624,4.5624,4.5643,4.5757,4.5811,4.5838,4.6042,4.6103,4.6124,4.6245,4.623,4.6111,4.2021,4.1853,4.1621,4.1133,4.1895,4.2616,4.2711,4.3087,4.341,4.3479,4.3497,4.3497,4.3497,4.2873,4.2451,4.2451,4.1735,4.1313,4.1423,4.1332,4.0969,4.0309,3.9872,3.9311,3.8535,3.8091,3.8007,3.821,3.8108,3.8156,3.832,3.8241,3.8631,3.9457,4.0087,4.0375,4.0476,4.1863,4.2439,4.2453,4.236,4.1841,4.1023,4.0203,3.94,3.8616,3.7858,3.669,3.5401,3.4738,3.4098,3.3585,3.3224,3.2546,3.2222,3.3682,3.352,3.3199,3.5104,3.6131,3.6615,3.6615,3.77,3.8745,3.8745,3.8854,3.9139,3.9952,4.007,4.007,4.007,4.0625,4.1161,4.1725,4.2382,4.2976,4.3444,4.3497,4.3497,4.3497,4.3497,4.3513,4.3563,4.3836,4.4028,4.4146,4.4738,4.5118,4.518,4.5438,4.5586,4.5586,4.5586,4.5586,4.5586,4.5738,4.5819,4.5891,4.5993,4.6008,4.5881,4.5881,4.5873,4.5853,4.5796,4.5815,4.5853,4.5815,4.5829,4.591,4.604,4.6103,4.6124,4.6245,4.6289,4.6248,4.281,4.2772,4.2678,4.2408,4.2772,4.3142,4.3142,4.3339,4.3497,4.3497,4.3497,4.3497,4.3497,4.2782,4.2121,4.168,4.0891,4.0616,4.1075,4.0689,4.0063,3.924,3.9011,3.8281,3.696,3.6741,3.6637,3.6637,3.7077,3.7636,3.8345,3.7619,3.7823,3.8814,3.8877,3.887,3.8937,4.0003,4.046,4.051,4.0869,4.0278,3.9246,3.9658,3.8839,3.728,3.6199,3.4971,3.3713,3.3066,3.2539,3.2182,3.2017,3.1857,3.2027,3.3554,3.3739,3.3756,3.5577,3.6344,3.6737,3.716,3.8117,3.9032,3.9489,3.9558,3.9662,4.002,4.007,4.007,4.007,4.0528,4.1087,4.1707,4.2302,4.2902,4.341,4.3497,4.3497,4.3497,4.3497,4.3497,4.3497,4.3612,4.3804,4.3986,4.4299,4.4663,4.5074,4.5243,4.5419,4.5586,4.5586,4.5586,4.5586,4.5776,4.5868,4.5899,4.6119,4.6145,4.6019,4.6014,4.5969,4.5912,4.5873,4.5868,4.5911,4.595,4.5989,4.6028,4.6153,4.6212,4.6215,4.628,4.6308,4.6209]},{"header":{"parameterUnit":"m.s-1","parameterCategory":1,"la1":30.6,"la2":28.766,"lo1":-90.7593,"lo2":-88.6598,"dx":0.0162,"dy":0.0183,"nx":116,"ny":114,"refTime":"2022-12-03T06:00:00:Z","depth":0,"parameterNumber":3,"parameterNumberName":"V-component_of_WINDS"},"data":[0.0,0.0,0.0,0.0,0.0,0.0,0.0,0.0,0.0,0.0,0.0,0.0,0.0,0.0,0.0,0.0,0.0,0.0,0.0,0.0,0.0,0.0,0.0,0.0,0.0,0.0,0.0,0.0,0.0,0.0,0.0,0.0,0.0,0.0,0.0,0.0,0.0,0.0,0.0,0.0,0.0,0.0,0.0,0.0,0.0,0.0,0.0,0.0,0.0,0.0,0.0,0.0,0.0,0.0,0.0,0.0,0.0,0.0,0.0,0.0,0.0,0.0,0.0,0.0,0.0,0.0,0.0,0.0,0.0,0.0,0.0,0.0,0.0,0.0,0.0,0.0,0.0,0.0,0.0,0.0,0.0,0.0,0.0,0.0,0.0,0.0,0.0,0.0,0.0,0.0,0.0,0.0,0.0,0.0,0.0,0.0,0.0,0.0,0.0,0.0,0.0,0.0,0.0,0.0,0.0,0.0,0.0,0.0,0.0,0.0,0.0,0.0,0.0,0.0,0.0,0.0,0.0,0.0,0.0,0.0,0.0,0.0,0.0,0.0,0.0,0.0,0.0,0.0,0.0,0.0,0.0,0.0,0.0,0.0,0.0,0.0,0.0,0.0,0.0,0.0,0.0,0.0,0.0,0.0,0.0,0.0,0.0,0.0,0.0,0.0,0.0,0.0,0.0,0.0,0.0,0.0,0.0,0.0,0.0,0.0,0.0,0.0,0.0,0.0,0.0,0.0,0.0,0.0,0.0,0.0,0.0,0.0,0.0,0.0,0.0,0.0,0.0,0.0,0.0,0.0,0.0,0.0,0.0,0.0,0.0,0.0,0.0,0.0,0.0,0.0,0.0,0.0,0.0,0.0,0.0,0.0,0.0,0.0,0.0,0.0,0.0,0.0,0.0,0.0,0.0,0.0,0.0,0.0,0.0,0.0,0.0,0.0,0.0,0.0,0.0,0.0,0.0,0.0,0.0,0.0,0.0,0.0,0.0,0.0,0.0,0.0,0.0,0.0,0.0,0.0,0.0,0.0,0.0,0.0,0.0,0.0,0.0,0.0,0.0,0.0,0.0,0.0,0.0,0.0,0.0,0.0,0.0,0.0,0.0,0.0,0.0,0.0,0.0,0.0,0.0,0.0,0.0,0.0,0.0,0.0,0.0,0.0,0.0,0.0,0.0,0.0,0.0,0.0,0.0,0.0,0.0,0.0,0.0,0.0,0.0,0.0,0.0,0.0,0.0,0.0,0.0,0.0,0.0,0.0,0.0,0.0,0.0,0.0,0.0,0.0,0.0,0.0,0.0,0.0,0.0,0.0,0.0,0.0,0.0,0.0,0.0,0.0,0.0,0.0,0.0,0.0,0.0,0.0,0.0,0.0,0.0,0.0,0.0,0.0,0.0,0.0,0.0,0.0,0.0,0.0,0.0,0.0,0.0,0.0,0.0,0.0,0.0,0.0,0.0,0.0,0.0,0.0,0.0,0.0,0.0,0.0,0.0,0.0,0.0,0.0,0.0,0.0,0.0,0.0,0.0,0.0,0.0,0.0,0.0,0.0,0.0,0.0,0.0,0.0,0.0,0.0,0.0,0.0,0.0,0.0,0.0,0.0,0.0,0.0,0.0,0.0,0.0,0.0,0.0,0.0,0.0,0.0,0.0,0.0,0.0,0.0,0.0,0.0,0.0,0.0,0.0,0.0,0.0,0.0,0.0,0.0,0.0,0.0,0.0,0.0,0.0,0.0,0.0,0.0,0.0,0.0,0.0,0.0,0.0,0.0,0.0,0.0,0.0,0.0,0.0,0.0,0.0,0.0,0.0,0.0,0.0,0.0,0.0,0.0,0.0,0.0,0.0,0.0,0.0,0.0,0.0,0.0,0.0,0.0,0.0,0.0,0.0,0.0,0.0,0.0,0.0,0.0,0.0,0.0,0.0,0.0,0.0,0.0,0.0,0.0,0.0,0.0,0.0,0.0,0.0,0.0,0.0,0.0,0.0,0.0,0.0,0.0,0.0,0.0,0.0,0.0,0.0,0.0,0.0,0.0,0.0,0.0,0.0,0.0,0.0,0.0,0.0,0.0,0.0,0.0,0.0,0.0,0.0,0.0,0.0,0.0,0.0,0.0,0.0,0.0,0.0,0.0,0.0,0.0,0.0,0.0,0.0,0.0,0.0,0.0,0.0,0.0,0.0,0.0,0.0,0.0,0.0,0.0,0.0,0.0,0.0,0.0,0.0,0.0,0.0,0.0,0.0,0.0,0.0,0.0,0.0,0.0,0.0,0.0,0.0,0.0,0.0,0.0,0.0,0.0,0.0,0.0,0.0,0.0,0.0,0.0,0.0,0.0,0.0,0.0,0.0,0.0,0.0,0.0,0.0,0.0,0.0,0.0,0.0,0.0,0.0,0.0,0.0,0.0,0.0,0.0,0.0,0.0,0.0,0.0,0.0,0.0,0.0,0.0,0.0,0.0,0.0,0.0,0.0,0.0,0.0,0.0,0.0,0.0,0.0,0.0,0.0,0.0,0.0,0.0,0.0,0.0,0.0,0.0,0.0,0.0,0.0,0.0,0.0,0.0,0.0,0.0,0.0,0.0,0.0,0.0,0.0,0.0,0.0,0.0,0.0,0.0,0.0,0.0,0.0,0.0,0.0,0.0,0.0,0.0,0.0,0.0,0.0,0.0,0.0,0.0,0.0,0.0,0.0,0.0,0.0,0.0,0.0,0.0,0.0,0.0,0.0,0.0,0.0,0.0,0.0,0.0,0.0,0.0,0.0,0.0,0.0,0.0,0.0,0.0,0.0,0.0,0.0,0.0,0.0,0.0,0.0,0.0,0.0,0.0,0.0,0.0,0.0,0.0,0.0,0.0,0.0,0.0,0.0,0.0,0.0,0.0,0.0,0.0,0.0,0.0,0.0,0.0,0.0,0.0,0.0,0.0,0.0,0.0,0.0,0.0,0.0,0.0,0.0,0.0,0.0,0.0,0.0,0.0,0.0,0.0,0.0,0.0,0.0,0.0,0.0,0.0,0.0,0.0,0.0,0.0,0.0,0.0,0.0,0.0,0.0,0.0,0.0,0.0,0.0,0.0,0.0,0.0,0.0,0.0,0.0,0.0,0.0,0.0,0.0,0.0,0.0,0.0,0.0,0.0,0.0,0.0,0.0,0.0,0.0,0.0,0.0,0.0,0.0,0.0,0.0,0.0,0.0,0.0,0.0,0.0,0.0,0.0,0.0,0.0,0.0,0.0,0.0,0.0,0.0,0.0,0.0,0.0,0.0,0.0,0.0,0.0,0.0,0.0,0.0,0.0,0.0,0.0,0.0,0.0,0.0,0.0,0.0,0.0,0.0,0.0,0.0,0.0,0.0,0.0,0.0,0.0,0.0,0.0,0.0,0.0,0.0,0.0,0.0,0.0,0.0,0.0,0.0,0.0,0.0,0.0,0.0,0.0,0.0,0.0,0.0,0.0,0.0,0.0,0.0,0.0,0.0,0.0,0.0,0.0,0.0,0.0,0.0,0.0,0.0,0.0,0.0,0.0,0.0,0.0,0.0,0.0,0.0,0.0,0.0,0.0,0.0,0.0,0.0,0.0,0.0,0.0,0.0,0.0,0.0,0.0,0.0,0.0,0.0,0.0,0.0,0.0,0.0,0.0,0.0,0.0,0.0,0.0,0.0,0.0,0.0,0.0,0.0,0.0,0.0,0.0,0.0,0.0,0.0,0.0,0.0,0.0,0.0,0.0,0.0,0.0,0.0,0.0,0.0,0.0,0.0,0.0,0.0,0.0,0.0,0.0,0.0,0.0,0.0,0.0,0.0,0.0,0.0,0.0,0.0,0.0,0.0,0.0,0.0,0.0,0.0,0.0,0.0,0.0,0.0,0.0,0.0,0.0,0.0,0.0,0.0,0.0,0.0,0.0,0.0,0.0,0.0,0.0,0.0,0.0,0.0,0.0,0.0,0.0,0.0,0.0,0.0,0.0,0.0,0.0,0.0,0.0,0.0,0.0,0.0,0.0,0.0,0.0,0.0,0.0,0.0,0.0,0.0,0.0,0.0,0.0,0.0,0.0,0.0,0.0,0.0,0.0,0.0,0.0,0.0,0.0,0.0,0.0,0.0,0.0,0.0,0.0,0.0,0.0,0.0,0.0,0.0,0.0,0.0,0.0,0.0,0.0,0.0,0.0,0.0,0.0,0.0,0.0,0.0,0.0,0.0,0.0,0.0,0.0,0.0,0.0,0.0,0.0,0.0,0.0,0.0,0.0,0.0,0.0,0.0,0.0,0.0,0.0,0.0,0.0,0.0,0.0,0.0,0.0,0.0,0.0,0.0,0.0,0.0,0.0,0.0,0.0,0.0,0.0,0.0,0.0,0.0,0.0,0.0,0.0,0.0,0.0,0.0,0.0,0.0,0.0,0.0,0.0,0.0,0.0,0.0,0.0,0.0,0.0,0.0,0.0,0.0,0.0,0.0,0.0,0.0,0.0,0.0,0.0,0.0,0.0,0.0,0.0,0.0,0.0,0.0,0.0,0.0,0.0,0.0,0.0,0.0,0.0,0.0,0.0,0.0,0.0,0.0,0.0,0.0,0.0,0.0,0.0,0.0,0.0,0.0,0.0,0.0,0.0,0.0,0.0,0.0,0.0,0.0,0.0,0.0,0.0,0.0,0.0,0.0,0.0,0.0,0.0,0.0,0.0,0.0,0.0,0.0,0.0,0.0,0.0,0.0,0.0,0.0,0.0,0.0,0.0,0.0,0.0,0.0,0.0,0.0,0.0,0.0,0.0,0.0,0.0,0.0,0.0,0.0,0.0,0.0,0.0,0.0,0.0,0.0,0.0,0.0,0.0,0.0,0.0,0.0,0.0,0.0,0.0,0.0,0.0,0.0,0.0,0.0,0.0,0.0,0.0,0.0,0.0,0.0,0.0,0.0,0.0,0.0,0.0,0.0,0.0,0.0,0.0,0.0,0.0,0.0,0.0,0.0,0.0,0.0,0.0,0.0,0.0,0.0,0.0,0.0,0.0,0.0,0.0,0.0,0.0,0.0,0.0,0.0,0.0,0.0,0.0,0.0,0.0,0.0,0.0,0.0,0.0,0.0,0.0,0.0,0.0,0.0,0.0,0.0,0.0,0.0,0.0,0.0,0.0,0.0,0.0,0.0,0.0,0.0,0.0,0.0,0.0,0.0,0.0,0.0,0.0,0.0,0.0,0.0,0.0,0.0,0.0,0.0,0.0,0.0,0.0,0.0,0.0,0.0,0.0,0.0,0.0,0.0,0.0,0.0,0.0,0.0,0.0,0.0,0.0,0.0,0.0,0.0,0.0,0.0,0.0,0.0,0.0,0.0,0.0,0.0,0.0,0.0,0.0,0.0,0.0,0.0,0.0,0.0,0.0,0.0,0.0,0.0,0.0,0.0,0.0,0.0,0.0,0.0,0.0,0.0,0.0,0.0,0.0,0.0,0.0,0.0,0.0,0.0,0.0,0.0,0.0,0.0,0.0,0.0,0.0,0.0,0.0,0.0,0.0,0.0,0.0,0.0,0.0,0.0,0.0,0.0,0.0,0.0,0.0,0.0,0.0,0.0,0.0,0.0,0.0,0.0,0.0,0.0,0.0,0.0,0.0,0.0,0.0,0.0,0.0,0.0,0.0,0.0,0.0,0.0,0.0,0.0,0.0,0.0,0.0,0.0,0.0,0.0,0.0,0.0,0.0,0.0,0.0,0.0,0.0,0.0,0.0,0.0,0.0,0.0,0.0,0.0,0.0,0.0,0.0,0.0,0.0,0.0,0.0,0.0,0.0,0.0,0.0,0.0,0.0,0.0,0.0,0.0,0.0,0.0,0.0,0.0,0.0,0.0,0.0,0.0,0.0,0.0,0.0,0.0,0.0,0.0,0.0,0.0,0.0,0.0,0.0,0.0,0.0,0.0,0.0,0.0,0.0,0.0,0.0,0.0,0.0,0.0,0.0,0.0,0.0,0.0,0.0,0.0,0.0,0.0,0.0,0.0,0.0,0.0,0.0,0.0,0.0,0.0,0.0,0.0,0.0,0.0,0.0,0.0,0.0,0.0,0.0,0.0,0.0,0.0,0.0,0.0,0.0,0.0,0.0,1.0281,0.0,0.0,0.0,0.0,0.0,0.0,0.0,0.0,0.0,0.0,0.0,0.0,0.0,0.0,0.0,0.0,0.0,0.0,0.0,0.0,0.0,0.0,0.0,0.0,0.6141,0.5913,0.5913,0.6457,0.0,0.0,0.0,0.0,0.0,0.0,0.0,0.0,0.0,0.5067,0.6125,0.6066,0.7347,0.9803,0.946,0.9281,0.9228,0.0,0.0,0.0,0.0,0.0,0.0,0.0,0.0,0.0,0.0,0.0,0.0,0.0,0.0,0.0,0.0,0.0,0.0,0.0,0.0,0.0,0.0,0.0,0.0,0.0,0.0,0.0,0.0,0.0,0.0,0.0,0.0,0.0,0.0,0.0,0.0,0.0,0.0,0.0,0.0,0.0,0.0,0.0,0.0,0.0,0.0,0.0,0.0,0.0,0.0,0.0,0.0,0.0,0.0,0.0,0.0,0.0,0.0,0.0,0.0,0.0,0.0,0.0,0.0,0.0,0.0,0.0,0.0,0.0,0.0,0.0,1.0478,0.0,0.0,0.0,0.0,0.0,0.0,0.0,0.0,0.0,0.0,0.0,0.0,0.0,0.0,0.0,0.0,0.0,0.0,0.0,0.0,0.0,0.6533,0.6922,0.6037,0.5585,0.6,0.6262,0.6476,0.6638,0.7248,0.0,0.0,0.0,0.0,0.5842,0.5293,0.6048,0.8122,0.8678,1.0231,1.2672,1.3433,1.3154,1.2002,1.1123,0.0,0.0,0.0,0.0,0.0,0.0,0.0,0.0,0.0,0.0,0.0,0.0,0.0,0.0,0.0,0.0,0.0,0.0,0.0,0.0,0.0,0.0,0.0,0.0,0.0,0.0,0.0,0.0,0.0,0.0,0.0,0.0,0.0,0.0,0.0,0.0,0.0,0.0,0.0,0.0,0.0,0.0,0.0,0.0,0.0,0.0,0.0,0.0,0.0,0.0,0.0,0.0,0.0,0.0,0.0,0.0,0.0,0.0,0.0,0.0,0.0,0.0,0.0,1.1531,1.1464,1.1226,1.227,1.3218,1.3808,1.1822,1.1933,1.3184,0.0,0.0,0.0,0.0,0.0,0.0,0.0,0.0,0.0,0.0,0.0,0.0,0.0,0.0,0.0,0.0,0.0,0.0,0.0,0.0,0.6084,0.6364,0.6068,0.6003,0.646,0.6181,0.6354,0.7238,0.7225,0.0,0.0,0.0,0.6348,0.599,0.596,0.678,0.8506,1.2521,1.4989,1.6091,1.6963,1.7041,1.6416,1.373,1.2412,1.2034,0.0,0.0,0.0,0.0,0.0,0.0,0.0,0.0,0.0,0.0,0.0,0.0,0.0,0.0,0.0,0.0,0.0,0.0,0.0,0.0,0.0,0.0,0.0,0.0,0.0,0.0,0.0,0.0,0.0,0.0,0.0,0.0,0.0,0.0,0.0,0.0,0.0,0.0,0.0,0.0,0.0,0.9933,1.0394,0.0,0.0,0.0,0.0,0.0,0.0,0.0,0.0,0.0,0.0,0.0,0.0,0.0,1.2104,1.1617,1.2989,1.3176,1.2135,1.3213,1.367,1.367,1.4352,1.4968,1.5485,1.5206,0.0,1.3978,1.3564,0.0,0.0,0.0,0.0,0.0,0.0,0.0,0.0,0.0,0.0,0.0,0.0,0.0,0.0,0.0,0.0,0.0,0.0,0.0,0.0,0.0,0.7065,0.7093,0.7325,0.7349,0.7437,0.7626,0.7771,0.0,0.0,0.7045,0.6774,0.663,0.7396,0.9337,1.2475,1.5966,1.7833,1.8174,1.8555,1.8633,1.8389,1.6816,1.5176,1.3506,1.2314,0.0,0.0,0.0,0.0,0.0,0.0,0.0,0.0,0.0,0.0,0.0,0.0,0.0,0.0,0.0,0.0,0.0,0.0,0.0,0.0,0.0,0.0,0.0,0.0,0.0,0.0,0.0,0.0,0.0,0.0,0.0,0.0,0.0,0.0,0.0,0.0,0.0,0.0,0.0,0.9345,1.0167,1.0955,1.0675,1.012,0.0,0.0,0.0,0.0,0.0,0.0,0.0,0.0,0.0,1.314,1.3701,1.3926,1.3686,1.4371,1.4612,1.4303,1.4133,1.4106,1.4142,1.575,1.6592,1.6792,1.684,1.6293,1.5487,1.4542,1.3342,1.2281,0.0,0.0,0.0,0.0,1.3581,1.4068,0.0,0.0,0.0,0.0,0.0,0.0,0.0,0.0,0.0,0.0,0.0,0.0,0.8625,0.8724,0.8712,0.8693,0.8654,0.8542,0.8318,0.8159,0.8027,0.7862,0.7283,0.7088,0.7426,0.95,1.2452,1.6265,1.8521,1.9727,1.9951,1.9834,1.9727,1.959,1.916,1.7473,1.5078,1.4316,1.2493,1.0096,0.0,0.0,0.0,0.0,0.0,0.0,0.0,0.0,0.0,0.0,0.0,0.0,0.0,0.0,0.0,0.0,0.0,0.0,0.0,0.0,0.0,0.0,0.0,0.0,0.0,0.0,0.0,0.0,0.0,0.0,0.0,0.0,0.0,0.0,0.0,0.0,0.0,0.9633,1.0541,1.1329,1.1363,1.0955,0.0,0.0,0.0,0.0,0.0,0.0,1.2525,1.3394,1.4215,1.4943,1.5324,1.5516,1.5616,1.57,1.5953,1.6279,1.5401,1.4967,1.5047,1.6826,1.7642,1.7592,1.7606,1.7387,1.6814,1.5277,1.4548,1.4462,1.4847,1.5332,1.5822,1.6413,1.6664,1.6583,0.0,0.0,0.0,0.0,0.0,0.0,0.0,0.0,0.0,0.0,0.0,0.909,1.0994,1.0985,1.088,1.0902,0.9803,0.9257,0.9678,0.8172,0.7553,0.8238,0.7163,0.7104,0.8294,1.2378,1.579,1.8436,1.9844,2.0928,2.1748,2.1328,2.0908,2.0478,2.0049,1.9092,1.7705,1.6025,1.4541,1.3026,1.0489,0.0,0.0,0.0,0.0,0.0,0.0,0.0,0.0,0.0,0.0,0.0,0.0,0.0,0.0,0.0,0.0,0.0,0.0,0.0,0.0,0.0,0.0,0.0,0.0,0.0,0.0,0.0,0.0,0.0,0.0,0.0,0.0,0.0,0.0,0.0,0.0,0.0,0.0,1.145,1.1904,0.0,0.0,0.0,0.0,1.1737,1.2605,1.3494,1.4342,1.5217,1.5845,1.6172,1.6627,1.6817,1.6619,1.7231,1.7495,1.7495,1.7488,1.7384,1.7397,1.7515,1.764,1.7562,1.7549,1.7542,1.7468,1.654,1.6472,1.6855,1.6888,1.8027,1.9652,1.9436,1.9246,1.9107,0.0,0.0,0.0,0.5309,0.5309,0.534,0.5491,0.5528,0.6053,0.7391,0.8712,1.0074,1.1393,1.2452,1.2987,1.2704,1.2246,1.1616,1.0709,0.9463,0.9294,1.0403,0.9231,1.0045,1.3272,1.5663,1.7852,1.9873,2.0908,2.1582,2.1885,2.1728,2.1416,2.0977,2.0537,1.9922,1.9141,1.7695,1.6205,1.462,1.275,1.1067,0.0,0.0,0.0,0.0,0.0,0.0,0.0,0.0,0.0,0.0,0.0,0.0,0.0,0.0,0.0,0.0,0.0,0.0,0.0,0.0,0.0,0.0,0.0,0.0,0.0,0.0,0.0,0.0,0.0,0.0,0.0,0.0,0.0,0.0,0.0,0.0,0.0,1.2265,1.2639,0.0,1.2103,1.2505,1.3053,1.354,1.4396,1.5197,1.5892,1.6406,1.6994,1.7682,1.7716,1.7668,1.767,1.7843,1.8257,1.8816,1.8816,1.8568,1.8196,1.8196,1.822,1.8394,1.8077,1.7976,1.7929,1.8231,1.8379,1.8548,1.9383,2.0866,2.2369,2.1459,2.1279,2.1188,0.0,0.0,0.0,0.5309,0.5309,0.5309,0.5309,0.5524,0.6299,0.8005,0.9589,1.131,1.3103,1.4338,1.4841,1.4268,1.4119,1.3367,1.1768,1.0716,1.0474,1.1247,1.0962,1.2508,1.6211,1.7705,1.9355,2.1221,2.1953,2.2461,2.2734,2.2451,2.2158,2.1855,2.1123,2.0625,2.0283,1.9141,1.7765,1.6189,1.479,1.3259,1.1696,0.0,0.0,0.0,0.0,0.0,0.0,0.0,0.0,0.0,0.0,0.0,0.0,0.0,0.0,0.0,0.0,0.0,0.0,0.0,0.0,0.0,0.0,0.0,0.0,0.0,0.0,0.0,0.0,0.0,0.0,0.0,0.0,0.0,0.0,0.0,1.2679,1.2879,1.3434,1.3641,1.3319,1.3828,1.4482,1.507,1.5738,1.6339,1.6827,1.7328,1.7876,1.847,1.8615,1.8677,1.8561,1.8758,1.9138,1.9718,1.9853,1.9597,1.8944,1.8944,1.8918,1.8867,1.8541,1.8386,1.8265,1.9418,2.021,2.0718,2.2005,2.3536,2.4775,2.3739,2.3151,2.2436,0.0,0.0,0.5309,0.5309,0.5309,0.5309,0.5309,0.5531,0.6826,0.9969,1.1002,1.2752,1.6282,1.6738,1.6421,1.5588,1.5169,1.4348,1.2878,1.1696,1.0987,1.0835,1.2286,1.4288,1.6733,1.8496,2.04,2.2519,2.2949,2.3603,2.4404,2.3564,2.3174,2.3105,2.1826,2.125,2.1172,2.0303,1.9209,1.792,1.6505,1.5482,1.4632,0.0,0.0,0.0,0.0,0.0,0.0,0.0,0.0,0.0,0.0,0.0,0.0,0.0,0.0,0.0,0.0,0.0,0.0,0.0,0.0,0.0,0.0,0.0,0.0,0.0,0.0,0.0,0.0,0.0,0.0,0.0,0.0,0.0,1.1563,1.2512,1.3267,1.3267,1.4275,1.4756,1.4195,1.4923,1.5665,1.6253,1.656,1.6847,1.7148,1.8009,1.8497,1.8517,1.9462,1.9775,1.9406,1.9925,2.0192,2.0199,2.0857,2.0727,1.9932,1.9932,1.951,1.8965,1.8958,1.8791,1.8746,2.0223,2.1907,2.3603,2.4615,2.5863,2.6962,2.6117,2.4723,2.2792,0.5309,0.5309,0.5309,0.5309,0.5309,0.5309,0.5309,0.5746,0.6891,0.9161,1.1054,1.3112,1.5507,1.6904,1.7271,1.645,1.6287,1.5685,1.4348,1.2795,1.2337,1.3185,1.6288,1.8245,1.8896,2.0178,2.1221,2.2063,2.3644,2.4506,2.4769,2.3987,2.3447,2.3105,2.2139,2.1533,2.1201,2.0625,2.0,1.9243,1.7515,1.6403,1.5605,0.0,0.0,0.0,0.0,0.0,0.0,0.0,0.0,0.0,0.0,0.0,0.0,0.0,0.0,0.0,0.0,0.0,0.0,0.0,0.0,0.0,0.0,0.0,0.0,0.0,0.0,0.0,0.0,0.0,0.0,0.0,0.0,1.2906,1.2746,1.3734,1.4482,1.4482,1.4957,1.5297,1.5344,1.5765,1.6279,1.6867,1.6981,1.7154,1.7448,1.8116,1.8684,1.9112,1.9616,2.0012,2.0314,2.0241,2.0368,2.0584,2.0727,2.0727,2.0456,2.0456,2.0288,1.986,1.9653,2.0185,2.1318,2.2417,2.3921,2.5539,2.545,2.663,2.8085,2.5611,2.3024,2.0635,0.5522,0.5404,0.5309,0.5309,0.5309,0.5372,0.5522,0.6116,0.7403,0.9835,1.171,1.3698,1.5962,1.7295,1.7666,1.6807,1.6894,1.6195,1.4375,1.3449,1.3784,1.5451,1.8162,1.9639,1.9687,2.1094,2.1806,2.1922,2.388,2.503,2.5218,2.4643,2.4092,2.3643,2.2783,2.207,2.1484,2.1035,2.0478,1.9798,1.8767,1.7853,1.7054,1.6345,1.56,1.4834,1.4648,1.4189,1.3721,1.3965,0.0,0.0,0.0,0.0,0.0,0.0,0.0,0.0,0.0,0.0,0.0,0.0,0.0,0.0,0.0,0.0,0.0,0.0,0.0,0.0,0.0,0.0,0.0,0.0,1.4501,1.5808,1.5943,1.5588,1.5418,1.5665,1.5838,1.6059,1.6353,1.654,1.6834,1.7295,1.7328,1.7462,1.7762,1.8333,1.8937,1.9533,2.0067,2.0514,2.0855,2.0688,2.0688,2.0855,2.0855,2.0855,2.0855,2.0855,2.0695,0.0,2.0241,2.1026,2.25,2.3795,2.5396,0.0,0.0,0.0,0.0,0.0,2.2754,1.994,0.5765,0.5554,0.5309,0.5309,0.534,0.5491,0.5859,0.6578,0.8128,1.114,1.2526,1.4232,1.6938,1.7617,1.7539,1.6728,1.71,1.6402,1.3997,1.4243,1.5429,1.7539,1.8828,1.9707,2.0058,2.1703,2.2462,2.2317,2.4126,2.5178,2.5723,2.5283,2.4834,2.4385,2.3525,2.2676,2.1855,2.1416,2.0752,1.999,1.999,1.9473,1.8662,1.8242,1.7607,1.6885,1.6445,1.5791,1.5156,1.5205,0.0,0.0,0.0,0.0,0.0,0.0,0.0,0.0,0.0,0.0,0.0,0.0,0.0,0.0,0.0,0.0,0.0,0.0,0.0,0.0,0.0,0.0,0.0,0.0,1.766,1.9443,1.9795,1.7826,1.6629,1.7131,1.722,1.725,1.7422,1.7483,1.7509,1.7562,1.7615,1.7769,1.8083,0.0,0.0,0.0,0.0,2.1355,2.1355,2.1601,2.1594,2.1594,2.1594,2.1594,2.1594,2.1475,2.1339,2.1328,2.1087,2.1897,2.3407,2.4801,2.6399,2.811,2.9041,2.936,2.8937,2.6336,2.3172,2.0294,0.5404,0.534,0.5309,0.5309,0.5554,0.582,0.589,0.6788,0.8366,1.0825,1.212,1.3699,1.6062,1.6709,1.6768,1.624,1.6924,1.7171,1.6638,1.7312,1.8074,1.8896,2.0166,2.1354,2.2409,2.3242,2.4082,2.4941,2.5382,2.5563,2.5723,2.5283,2.4834,2.4385,2.3535,2.2685,2.1855,2.1416,2.0928,2.0439,2.0439,1.9922,1.9111,1.8682,1.8408,1.8213,1.7783,1.7529,1.7441,1.7773,1.7148,1.623,1.623,1.54,0.0,0.0,0.0,0.0,0.0,0.0,0.0,0.0,0.0,0.0,0.0,0.0,0.0,0.0,0.0,0.0,0.0,0.0,0.0,1.7921,1.8954,1.9895,2.0749,2.0492,2.0151,2.0006,2.0239,1.9943,1.894,1.8979,1.8747,1.7681,1.7816,1.809,1.839,1.9117,1.9721,2.014,2.211,2.3084,2.3084,2.4409,2.5008,2.5008,0.0,0.0,2.5008,2.3683,2.3769,2.4913,2.3593,2.4645,2.7353,2.7591,2.7991,2.83,2.8582,2.7828,2.6508,2.466,2.2697,2.0895,0.5309,0.5309,0.5372,0.5554,0.5765,0.6037,0.6427,0.7347,0.8791,1.1027,1.2349,1.3719,1.5283,1.5625,1.541,1.4541,1.4873,1.5771,1.7285,1.7773,1.8584,1.9863,2.1172,2.2383,2.3555,2.4102,2.4869,2.5671,2.5671,2.5663,2.5732,2.5508,2.5166,2.4717,2.4072,2.331,2.248,2.2051,2.1494,2.0898,2.0898,2.1013,2.0988,1.9732,1.9004,1.8533,1.8398,1.8184,1.8047,1.8252,1.79,1.7373,1.7373,1.6631,1.5547,0.0,0.0,0.0,0.0,0.0,0.0,0.0,0.0,0.0,0.0,0.0,0.0,0.0,0.0,1.4436,0.0,0.0,1.8232,1.8625,2.0694,2.2478,2.297,2.325,2.2912,2.1427,2.1371,2.1178,2.049,2.0538,2.0101,1.8935,1.8534,1.8577,1.8898,1.9888,2.0784,2.1633,2.2951,2.3938,2.4778,2.5619,2.5976,2.5976,2.5976,2.5976,2.5976,2.5138,2.5261,2.5976,2.5138,2.6114,2.8417,2.9285,2.9157,2.8298,2.7563,2.6227,2.4655,2.3938,2.2591,2.1089,0.5309,0.5302,0.5414,0.582,0.5975,0.6275,0.6999,0.784,0.9103,1.1103,1.2305,1.328,1.4072,1.4169,1.3859,1.3084,1.3153,1.4492,1.7432,1.7705,1.8672,2.0732,2.1992,2.3047,2.4026,2.4746,2.5256,2.5742,2.5917,2.611,2.611,2.611,2.5823,2.5288,2.4663,2.3896,2.2998,2.2656,2.207,2.1357,2.1579,2.2198,2.2871,2.1451,2.0256,1.9261,1.9092,1.8626,1.8115,1.8037,1.8008,1.8008,1.8008,1.7539,1.6826,1.6025,1.543,0.0,0.0,0.0,0.0,0.0,0.0,0.0,0.0,0.0,1.3389,1.3556,1.4807,1.6465,1.8373,1.9623,2.0161,1.9754,2.258,2.484,2.5042,2.5392,2.4913,2.2767,2.2466,2.2366,2.2156,2.2055,2.1526,2.0294,1.9535,1.9354,1.9492,2.0448,2.1718,2.3163,2.3794,2.4778,2.6461,2.6832,2.6953,2.6953,2.6953,2.6953,2.6961,2.6591,2.6591,2.6953,2.6953,2.7692,2.903,3.0392,2.9776,2.7803,2.647,2.477,2.3076,2.3076,2.2215,2.1109,0.5309,0.53,0.5428,0.5844,0.6183,0.6579,0.702,0.7828,0.8892,1.0254,1.0879,1.1393,1.1903,1.1939,1.2332,1.3368,1.4128,1.5684,1.832,1.8857,1.9873,2.166,2.2607,2.3486,2.4336,2.5205,2.5684,2.5742,2.6849,2.741,2.741,2.741,2.6931,2.6076,2.4965,2.374,2.2578,2.2539,2.2246,2.1889,2.2888,2.3349,2.3488,2.4337,2.346,2.1712,2.0894,1.9757,1.8516,1.8135,1.8008,1.8008,1.8008,1.7949,1.7773,1.7305,1.6572,1.5732,1.4873,1.4121,1.3643,1.3926,1.397,1.441,0.0,0.0,1.4197,1.6732,1.7369,1.8258,2.1001,2.2794,2.3767,2.3711,2.4146,2.4708,2.5489,2.5703,2.5635,2.5333,2.5226,2.4815,2.3583,2.3484,2.2664,2.061,2.0619,2.0544,2.0087,2.0454,2.1623,2.3507,2.5,2.647,2.817,2.9648,3.0392,3.0392,3.0392,3.0392,3.0274,2.8792,2.892,3.0392,3.0392,3.0401,3.0645,3.0772,2.9039,2.6227,2.6098,2.4155,2.1355,2.1355,2.1229,2.1109,0.5309,0.5293,0.5545,0.6329,0.6609,0.6892,0.7373,0.7994,0.875,0.9775,1.0273,1.0553,1.0479,0.9845,1.0,1.1509,1.289,1.4775,1.7363,1.8867,2.0322,2.1816,2.2705,2.3555,2.4394,2.5029,2.5843,2.6849,2.7315,2.7955,2.8669,2.8305,2.7592,2.6571,2.5499,2.4355,2.3242,2.2988,2.3043,2.3279,2.375,2.4447,2.5358,2.5831,2.5142,2.3654,2.2457,2.0951,0.0,1.8941,1.8395,1.8008,1.8008,1.7666,1.7275,1.7363,1.6943,1.6484,1.6621,1.6035,1.542,1.5546,1.6016,1.6524,1.7197,1.6963,1.7026,1.8364,1.9076,2.0006,2.2193,2.3997,2.5125,0.0,2.5198,2.5276,2.5606,2.5742,2.5742,2.5742,2.5742,2.543,2.4913,2.514,2.4785,2.3417,2.3029,2.2475,2.1875,2.2219,2.3185,2.4893,2.6591,2.8179,2.9903,3.0518,3.0889,3.0889,3.0889,3.0889,3.0889,3.0147,3.0265,3.0889,3.0889,3.0889,3.0889,3.0889,2.892,2.5976,2.5976,2.4031,2.1109,2.1109,2.1109,2.1109,0.5289,0.5297,0.5678,0.6902,0.7116,0.7257,0.7627,0.7998,0.8457,0.9189,0.9561,0.9608,0.9226,0.8228,0.8228,0.9801,1.1655,1.3799,1.6377,1.8437,2.0254,2.1816,2.2588,2.3379,2.4228,2.4668,2.5738,2.74,2.7625,2.8353,2.9636,2.9147,2.8399,2.7434,2.6183,2.5152,2.4247,2.3791,2.3908,2.4405,2.4729,2.5452,2.6387,2.6697,2.5949,2.4546,2.3236,2.1457,1.9565,1.8526,1.7875,1.7432,1.7197,1.6855,1.666,1.7217,1.708,1.6787,1.7051,1.6836,1.6572,1.6699,1.7461,1.8193,1.8252,1.8638,1.917,1.9903,2.0659,2.1789,2.3524,2.4879,2.5714,2.5684,2.5742,2.5742,2.5742,2.5742,2.5742,2.5742,2.5947,2.6094,2.6094,2.6377,2.6368,2.5865,2.5242,2.4604,2.3885,2.4163,2.5024,2.6591,2.7811,2.9157,3.0889,3.0889,3.0889,3.0889,3.0889,3.0889,3.0889,3.0889,3.0957,3.1064,3.1064,3.1133,3.125,3.125,2.9259,2.6273,2.6174,2.4176,2.1223,2.1136,2.1109,2.1109,0.529,0.5291,0.5808,0.74,0.7675,0.7695,0.7695,0.7705,0.788,0.8359,0.846,0.831,0.7913,0.7408,0.7648,0.894,1.0984,1.334,1.5978,1.7705,1.9639,2.1787,2.2305,2.293,2.3789,2.4219,2.5277,2.6907,2.7601,2.8733,3.0363,2.9842,2.932,2.8728,2.7039,2.5969,2.548,2.5003,2.4781,2.4848,2.5965,2.6127,2.5716,2.6853,2.5963,2.3865,2.2779,2.0787,1.8312,1.6208,1.5771,1.6037,1.5146,1.5439,1.6311,1.7129,1.708,1.6465,1.5225,1.5469,1.6182,1.6621,1.7619,1.8945,2.0185,1.9879,1.9762,2.1446,2.2486,2.3536,2.5269,2.5648,2.5714,2.5684,2.5742,2.5742,2.5742,2.5742,2.5742,2.5742,2.6475,2.6973,0.0,2.6982,2.7036,2.7074,2.6981,2.674,2.5927,2.5968,2.6712,2.8298,2.8417,2.9157,3.0889,3.0889,3.0889,3.0889,3.0889,3.0889,3.0889,3.0889,3.1113,3.1504,3.1504,3.1738,3.2129,3.2129,3.0103,2.7024,2.6669,2.4535,2.1503,2.1216,2.1109,2.1109,0.5293,0.6175,0.7058,0.7605,0.7705,0.7695,0.7695,0.7695,0.7754,0.793,0.7709,0.0,0.0,0.0,0.0,0.0,1.0448,1.2334,1.4629,1.6943,1.9053,2.0928,2.1973,2.291,2.3769,2.4615,2.5863,2.7557,2.8528,2.9748,3.1045,3.0515,2.9752,2.8833,2.7554,2.6245,2.5037,2.447,2.4668,2.5195,2.5333,2.5719,2.6339,2.7385,2.5324,2.1893,0.0,2.0412,1.7816,1.5972,1.5134,1.4727,1.4443,1.417,1.4121,1.4971,1.5527,1.5957,1.6387,1.6719,1.7109,1.7822,1.8965,2.0029,2.0469,2.0922,2.1441,2.2071,2.263,2.3435,2.4666,2.5325,2.5729,2.5658,2.5682,2.5742,2.5742,2.5986,2.6269,2.6553,2.71,0.0,0.0,0.0,0.0,2.869,2.8072,2.7624,2.7537,2.7563,2.7811,2.8417,2.953,3.0274,3.0889,3.0889,3.0889,3.0898,3.1172,3.1455,3.1728,3.1435,3.1543,3.1934,3.1641,3.1768,3.2168,3.0879,2.911,2.6955,2.5683,2.3742,2.1543,2.1443,2.1403,2.1376,0.5313,0.6609,0.7707,0.7694,0.7709,0.0,0.0,0.0,0.0,0.0,0.0,0.0,0.0,0.0,0.0,0.0,0.0,1.1309,1.327,1.5732,1.7852,1.958,2.0596,2.1533,2.2383,2.3063,2.4555,2.7042,2.7603,2.8875,3.0796,3.0068,2.9291,2.8567,2.75,2.645,2.5326,2.4641,2.4862,2.5737,2.5188,2.5145,2.5319,2.5479,2.2942,0.0,1.945,1.7979,1.5789,1.4645,1.3889,1.3377,1.3262,1.3369,1.3633,1.4023,1.4961,1.6103,1.7109,1.7598,1.8135,1.9554,2.0361,2.1036,2.1719,2.2113,2.2339,2.259,2.261,2.2964,2.3801,2.4611,2.5139,2.5421,2.5712,2.6025,2.6172,2.6435,2.6768,2.7197,2.7764,2.8496,0.0,0.0,0.0,3.0019,2.9344,2.9016,2.9266,2.9285,2.9285,2.9285,3.0392,3.0889,3.0889,3.1035,3.1191,3.1348,3.1621,3.1894,3.2158,3.1875,3.1982,3.2383,3.21,3.2217,3.2494,3.1311,2.9897,2.8349,2.7057,2.5471,2.3759,2.3643,2.3293,2.2681,0.5401,0.6706,0.7844,0.0,0.0,0.0,0.0,0.0,0.0,0.0,0.0,0.0,0.0,0.0,0.0,0.0,0.0,0.0,1.1976,1.4092,1.6035,1.7803,1.832,1.8984,1.9863,1.9849,2.1607,2.5224,2.4923,2.6371,2.9514,2.8449,2.7949,2.7971,2.6892,2.6445,2.6332,2.5197,2.5272,2.608,2.5396,2.417,2.2639,2.139,1.9019,1.6323,1.552,1.4058,1.2497,1.2288,1.2202,1.2049,1.1698,1.3046,1.4642,1.4272,1.5371,1.6865,1.7324,1.8076,1.93,2.1648,2.1761,2.1899,2.3845,2.3304,2.2522,2.2988,2.2485,2.2148,0.0,0.0,2.4229,2.4893,2.5771,2.6523,2.6934,2.7041,2.7246,0.0,0.0,0.0,0.0,0.0,0.0,3.0889,0.0,3.0889,3.0889,3.0889,3.0889,3.0889,3.0889,3.0898,3.0928,3.1338,3.1768,3.2207,3.2207,3.2217,3.2226,3.2207,3.2432,3.2822,3.2803,3.3037,3.3418,3.3292,3.2228,3.0735,3.0365,2.9195,2.774,2.74,2.6472,2.4818,0.0,0.0,0.0,0.0,0.0,0.0,0.0,0.0,0.0,0.0,0.0,0.0,0.0,0.0,0.0,0.0,0.0,0.0,1.0684,1.2197,1.3945,1.5986,1.7119,1.8252,1.9424,2.0206,2.1403,2.2994,2.3413,2.4578,2.6384,2.6104,2.6279,2.6854,2.6138,2.5372,2.4582,2.3866,2.2761,2.1468,2.1306,2.0017,1.8379,2.0079,1.8547,1.5648,1.7798,1.5592,1.1616,1.1562,1.1214,1.0864,1.1455,1.2698,1.4138,1.4868,1.6104,1.7383,1.8115,1.9726,2.1459,2.2029,2.2841,2.375,2.5113,2.4127,2.2975,2.333,2.3094,2.2471,2.1409,0.0,0.0,2.3712,2.5195,0.0,2.6533,2.7363,0.0,2.8545,0.0,3.0049,3.0508,3.0762,0.0,0.0,3.0889,3.0889,3.0889,3.0889,3.0889,3.0889,3.0889,3.1035,3.1348,3.1787,3.2217,3.2637,3.2637,3.2803,3.3086,3.2773,3.2861,3.3242,3.293,3.3037,3.3292,3.1963,3.1166,3.0633,2.9241,2.8555,2.8146,2.8185,2.7198,2.5824,0.0,0.0,0.0,0.0,0.0,0.0,0.0,0.0,0.0,0.0,0.0,0.0,0.0,0.0,0.0,0.0,0.0,0.0,0.0,1.083,1.2275,1.3662,1.4805,1.583,1.6738,1.7265,1.8529,2.0579,2.0419,2.1423,2.3506,2.3071,2.3362,2.4255,2.369,2.31,2.2498,2.192,2.0969,0.0,0.0,1.7618,1.6633,1.7203,1.6083,1.4442,1.6245,1.485,1.1985,1.1158,1.1351,1.2051,1.2527,1.351,1.4717,1.6157,1.7407,1.8592,1.9467,2.1395,2.3186,2.3643,2.4491,2.5376,2.5994,2.4897,2.3721,2.3129,2.2597,2.1855,2.0525,2.206,2.3443,0.0,0.0,0.0,2.7148,2.7842,2.8584,0.0,2.9902,0.0,3.084,3.0889,3.0889,0.0,3.0889,3.0889,3.0889,3.0889,3.0976,3.1162,3.1162,3.1455,3.207,3.2324,3.2656,3.3066,3.3066,3.3193,3.3418,3.3174,3.3203,3.3408,0.0,3.3203,3.3301,3.2564,3.2235,3.2124,3.1371,3.105,3.1172,3.1172,2.9673,2.7775,0.0,0.0,0.0,0.0,0.0,0.0,0.0,0.0,0.0,0.806,0.7914,0.794,0.0,0.0,0.0,0.0,0.0,0.0,0.0,0.0,1.0957,1.1498,1.2312,1.2959,1.3496,1.3412,1.4875,1.8002,1.6894,1.7832,2.0705,1.9811,2.0025,2.1131,2.0657,2.0461,2.0413,1.9911,1.9565,1.9153,1.7242,1.6405,1.6032,0.0,1.3398,1.3351,1.3245,1.3369,1.3478,1.2361,1.3146,1.462,1.4639,1.5149,1.6067,1.7833,1.9082,2.008,2.1332,2.291,2.4555,2.5721,2.6346,2.6713,2.6735,2.5655,2.4226,2.2706,2.1761,2.0881,1.9823,2.1161,2.2468,2.2402,0.0,2.668,2.8018,2.8301,2.8828,3.0049,3.0244,3.0449,3.085,3.0889,3.0889,3.0889,3.0889,3.0889,3.0889,3.0889,3.1084,3.1504,3.1631,3.2051,3.2793,3.2851,3.3057,3.3418,3.3418,3.3418,3.3418,3.3418,3.3418,3.3418,0.0,0.0,3.3457,3.3896,3.4072,3.4111,3.4531,3.4736,3.4795,3.4795,3.271,2.9847,0.0,0.0,0.0,0.0,0.0,0.0,0.0,0.0,0.0,0.0,0.8976,0.9101,0.0,0.0,0.0,0.0,0.0,0.0,0.0,0.0,0.0,1.0986,1.1557,1.2324,1.3486,1.346,1.4108,1.5425,1.4848,1.5423,1.7004,1.683,1.769,1.9335,1.9238,1.9233,1.9309,1.9158,1.8055,1.6322,1.647,1.5697,1.4475,1.4578,0.0,0.0,1.3439,1.4359,1.6419,1.9748,1.9285,1.7292,1.7331,1.7408,1.7922,1.9634,2.0295,2.0966,2.3255,2.4138,2.4872,2.6706,2.7557,2.7822,2.7804,2.5894,2.3839,2.2861,2.1974,2.0899,1.9082,2.0695,2.2227,2.2053,2.3848,2.5879,2.7539,2.8369,2.915,0.0,3.0537,3.0801,3.0889,3.0889,0.0,0.0,0.0,3.0889,3.0889,3.0889,3.1084,3.1504,3.2207,3.2646,3.2793,3.3135,3.335,3.3418,3.3418,3.3418,3.3418,3.3418,3.3418,3.3418,3.3418,0.0,3.3457,3.3896,3.4072,3.4111,3.4531,3.4941,3.5273,3.5273,3.3139,3.036,0.0,0.0,0.0,0.0,0.0,0.0,0.0,1.0092,1.0851,1.2172,1.285,1.2186,0.9485,0.9198,0.9125,0.0,0.0,0.0,0.0,0.0,0.0,1.0225,1.0869,1.1514,1.2139,1.2373,1.2783,1.3361,0.0,1.369,1.535,1.4853,1.5478,1.705,1.7448,1.7507,1.7225,1.7122,1.6021,1.4384,1.525,1.4797,1.3691,1.4745,0.0,0.0,1.5057,1.6732,1.9154,1.9562,1.8905,1.8009,1.7976,1.8021,1.8335,2.0105,2.1232,2.2382,2.4434,2.5506,2.6428,2.751,2.8415,2.8602,2.7101,2.5773,2.4253,2.208,2.0902,1.9905,1.8637,1.967,2.081,2.0879,2.3037,2.5332,2.708,2.8252,2.9326,3.043,3.0752,3.0889,3.0889,3.0889,3.0889,0.0,0.0,3.1211,3.1211,3.1641,3.1875,3.1855,3.2676,3.3115,3.3115,3.332,3.3418,3.3418,3.3418,3.3418,3.3418,3.3418,3.3418,3.3418,3.3418,0.0,3.3799,3.4219,3.4541,3.4805,3.5225,3.5517,3.5723,3.5723,3.4,3.1878,0.0,0.0,0.0,0.0,0.0,0.0,0.0,1.3582,1.6002,1.6911,1.7307,1.6101,1.2413,1.0552,0.9599,0.0,0.0,0.0,0.0,0.0,0.0,0.0,0.0,0.0,0.0,0.0,0.0,0.0,1.1791,0.0,0.0,0.0,0.0,0.0,1.5846,1.5835,1.5421,1.5222,1.4438,0.0,0.0,1.4363,0.0,0.0,0.0,0.0,0.0,1.8708,2.0788,1.8654,1.8102,1.8427,1.8487,1.8327,1.8378,2.0525,2.203,2.3588,2.5738,2.6948,2.7728,2.8335,2.9118,2.9051,2.6239,2.5511,2.4519,2.1317,1.9929,1.9079,1.8505,1.8931,1.9543,1.9997,2.2207,2.458,2.6592,2.79,2.917,3.0576,3.083,0.0,3.0889,3.0889,0.0,0.0,0.0,0.0,3.166,3.2383,3.2646,3.2314,3.3027,3.3467,3.3555,3.3467,3.3467,3.3555,3.3467,3.3418,3.3418,3.333,3.334,3.3418,3.3418,0.0,0.0,3.4629,3.5068,3.543,3.585,3.6016,3.6016,3.6016,3.4874,3.3309,0.0,0.0,0.0,0.0,0.0,0.0,0.0,1.9414,2.4033,2.2608,2.1156,2.0629,2.1707,1.4857,1.0242,0.0,0.0,0.0,0.0,0.0,0.0,0.0,0.0,0.0,0.0,0.0,0.0,1.1995,0.0,0.0,0.0,0.0,0.0,0.0,0.0,1.4831,1.4789,1.4755,0.0,0.0,0.0,0.0,0.0,0.0,0.0,0.0,0.0,1.8877,2.0241,2.1931,2.1194,1.971,2.0211,1.9295,1.8673,2.1886,2.2946,2.4022,2.828,2.8492,2.7906,2.9271,2.9702,2.9051,2.6239,2.5234,2.4092,2.131,2.0182,1.9575,1.8924,1.9214,1.9754,2.0404,2.1416,2.3135,2.6035,2.7217,2.8398,3.0068,0.0,0.0,3.0889,3.0889,0.0,0.0,0.0,0.0,3.2109,3.2549,3.2773,3.2744,3.3184,3.3613,3.4004,3.3613,3.3623,3.4004,3.3613,3.3418,3.3408,3.3027,3.3057,3.3418,3.3418,0.0,0.0,3.498,3.5351,3.543,3.585,3.6016,3.6016,3.6016,3.4874,3.3457,0.0,0.0,0.0,0.0,0.0,0.0,1.2647,2.0171,2.5431,2.4778,2.3158,2.2357,2.3058,1.6356,1.1857,1.1859,0.0,0.0,0.0,0.0,0.0,0.0,0.0,0.0,0.0,0.0,1.2617,1.255,1.255,0.0,0.0,0.0,0.0,0.0,0.0,1.4035,1.4633,1.3926,0.0,0.0,0.0,0.0,0.0,0.0,0.0,0.0,0.0,0.0,1.9858,2.0321,2.0261,1.9948,1.946,1.9157,1.9383,2.1061,2.2315,2.3798,2.7013,2.7731,2.7983,2.9456,2.9528,2.8637,2.6151,2.4933,2.3627,2.1167,1.9871,1.909,1.891,1.8714,1.8877,1.9964,2.0918,2.2363,2.4853,2.6182,2.7529,2.9228,2.9824,0.0,0.0,0.0,0.0,0.0,0.0,0.0,3.291,3.3076,3.3057,3.2803,3.3203,3.3633,3.4072,3.3896,3.3906,3.4062,3.3633,3.3291,3.3027,3.2607,3.2646,3.3057,3.331,0.0,0.0,3.5137,3.5537,3.5791,3.5957,3.6016,3.6016,3.6016,3.5587,3.5021,0.0,0.0,0.0,0.0,0.0,1.0882,1.2658,1.9329,2.4044,2.3474,2.3258,2.3071,2.3058,1.8794,1.5106,1.3096,1.1797,0.0,0.0,0.0,0.0,0.0,0.0,0.0,0.0,0.0,1.2881,1.2879,1.2879,1.2928,0.0,0.0,0.0,0.0,0.0,0.0,0.0,0.0,0.0,0.0,0.0,0.0,0.0,0.0,0.0,0.0,0.0,0.0,0.0,0.0,0.0,2.0322,1.9668,1.9516,1.9733,2.0421,2.1471,2.2932,2.5566,2.6656,2.7402,2.8888,2.911,2.8348,2.6101,2.477,2.3364,2.1184,1.9818,1.8981,1.891,1.8559,1.8697,1.9728,2.0654,2.1982,2.4121,2.5439,2.6787,2.8359,0.0,2.9678,0.0,0.0,0.0,0.0,0.0,0.0,0.0,3.3613,3.3418,3.2998,3.3389,3.3818,3.4258,3.4258,3.4326,3.4453,3.3887,3.3389,3.2969,3.2549,3.2519,3.2822,0.0,0.0,0.0,3.5332,3.5752,3.6016,3.6016,3.6016,3.6016,3.6016,3.6016,3.6016,0.0,0.0,0.0,0.0,0.0,0.0,1.2629,1.7288,2.001,1.8268,2.1045,2.3073,2.3099,2.3034,2.0285,1.3477,1.2878,0.0,0.0,0.0,0.0,0.0,0.0,0.0,0.0,0.0,1.2889,1.2902,1.2902,1.2898,1.2877,1.2889,1.2893,1.2884,0.0,0.0,0.0,0.0,0.0,0.0,0.0,0.0,0.0,0.0,0.0,0.0,0.0,0.0,0.0,0.0,0.0,0.0,0.0,2.0707,1.9469,2.0333,2.0619,2.1352,2.4514,2.5617,2.6177,2.7714,2.8521,2.8348,2.6101,2.477,2.3364,2.1184,2.02,1.9585,1.9028,1.9249,1.9641,1.9851,2.0654,2.1982,2.4121,2.5176,2.623,0.0,0.0,2.9092,0.0,0.0,0.0,0.0,0.0,0.0,0.0,3.4062,3.3867,3.3428,3.3838,3.4267,3.4687,3.4687,3.4922,3.5371,3.4482,3.3838,3.3398,3.2978,3.2793,0.0,0.0,0.0,0.0,3.5654,3.6016,3.6016,3.6016,3.6016,3.6016,3.6016,3.6016,3.6016,0.0,0.0,0.0,0.0,0.0,0.0,0.0,1.6297,1.8601,1.8064,1.8942,1.829,1.4961,1.9695,2.0332,1.3485,1.2877,0.0,0.0,0.0,0.0,0.0,0.0,0.0,0.0,1.3266,1.2912,1.2923,1.4073,1.4582,1.4587,1.4627,1.4008,1.289,1.2916,0.0,0.0,0.0,0.0,0.0,0.0,0.0,0.0,0.0,0.0,0.0,0.0,0.0,0.0,0.0,0.0,0.0,0.0,0.0,0.0,1.9143,1.9448,2.0103,2.187,2.3263,2.4476,2.5396,2.6476,2.6854,2.5398,2.4205,2.31,2.202,2.1041,2.0214,1.9595,1.982,2.0417,2.1105,2.1494,2.2422,2.456,2.5625,0.0,2.7549,2.9209,3.0322,0.0,0.0,0.0,0.0,0.0,0.0,0.0,3.4346,3.4434,3.4297,3.415,3.4434,3.5166,3.5176,3.5244,3.5391,3.4785,3.4277,3.3848,3.3418,0.0,0.0,0.0,0.0,0.0,3.5781,3.6016,3.6016,3.6016,3.6016,3.6016,3.6016,3.6016,3.6016,0.0,0.0,0.0,0.0,0.0,0.0,0.0,1.5638,1.6587,1.5389,1.523,1.3876,1.0293,1.5467,1.7557,1.329,1.2914,0.0,0.0,0.0,0.0,0.0,0.0,0.0,1.4577,1.3503,1.3552,1.479,1.6554,1.7039,1.6408,1.6376,1.5156,1.2878,1.2913,1.2907,0.0,0.0,0.0,0.0,0.0,0.0,1.7968,0.0,0.0,0.0,0.0,0.0,0.0,0.0,0.0,0.0,0.0,0.0,0.0,0.0,1.8594,1.9118,2.0581,2.2094,2.3431,2.4209,2.5192,2.5741,2.4993,2.3791,2.2673,2.2121,2.1117,2.0153,1.955,1.992,2.049,2.1026,2.1562,2.2637,2.4766,2.5693,0.0,2.7978,0.0,0.0,0.0,0.0,0.0,0.0,0.0,0.0,0.0,3.4814,3.5029,3.5195,3.4785,3.4834,3.5391,3.5557,3.5635,3.5625,3.5176,3.4726,3.4297,3.4023,0.0,0.0,0.0,0.0,0.0,3.585,3.6016,3.6016,3.6016,3.6016,3.6016,3.6016,3.6016,3.6016,0.0,0.0,0.0,0.0,0.0,0.0,0.0,1.5195,1.4081,1.088,1.0453,1.008,0.8903,1.1256,1.2878,1.2883,0.0,0.0,0.0,0.0,0.0,0.0,0.0,0.0,1.5179,1.3917,1.4735,1.7833,1.9903,2.0101,1.8579,1.8143,1.6305,1.3259,1.3023,1.2907,0.0,0.0,0.0,0.0,0.0,1.6527,0.0,0.0,0.0,0.0,0.0,0.0,0.0,0.0,0.0,0.0,0.0,0.0,0.0,0.0,0.0,0.0,0.0,2.1802,2.2873,2.3663,2.4403,2.4797,2.4673,2.3464,0.0,2.1656,2.0586,1.9617,1.9115,1.9684,2.0151,2.0127,2.1201,2.2764,2.4902,2.5674,0.0,0.0,2.9434,0.0,0.0,0.0,0.0,0.0,0.0,0.0,0.0,3.542,3.5615,3.6006,3.5644,3.5439,3.5439,3.583,3.6016,3.6016,3.5625,3.5215,3.4795,3.4795,0.0,0.0,0.0,0.0,0.0,3.5859,3.6016,3.6016,3.6016,3.6016,3.6016,3.6016,3.6016,3.6016,0.0,0.0,0.0,0.0,0.0,0.0,0.0,0.0,0.0,0.0,0.9206,0.9114,0.8813,1.1272,1.2921,0.0,0.0,0.0,0.0,0.0,0.0,0.0,0.0,0.0,1.3502,1.5672,1.6542,1.5984,2.1701,2.4269,2.3808,1.9829,1.7558,1.6709,1.4078,1.2887,0.0,0.0,0.0,0.0,1.4754,1.6529,0.0,0.0,0.0,0.0,2.0752,2.192,0.0,0.0,0.0,0.0,0.0,0.0,0.0,0.0,1.7529,1.7637,1.8154,0.0,2.0296,2.0786,2.2101,2.3304,0.0,2.2899,2.2272,2.2146,2.0828,1.9835,2.0392,2.018,2.0512,2.2109,2.292,2.4092,2.626,2.7773,2.9228,3.0723,3.0713,0.0,0.0,0.0,0.0,0.0,0.0,0.0,0.0,3.5693,3.5918,3.6016,3.5928,3.5869,3.5869,3.5967,3.6016,3.6016,3.5918,3.581,3.5713,3.5713,0.0,0.0,0.0,0.0,3.5879,3.5976,3.6016,3.6016,3.6016,3.6016,3.6016,3.6016,3.6016,3.6016,0.0,0.0,0.0,0.0,0.0,0.0,0.0,0.0,0.0,0.0,0.0,0.8824,0.8822,1.1251,0.0,0.0,0.0,0.0,0.0,0.0,0.0,0.0,0.0,1.3259,1.4045,1.6665,1.7707,1.7206,2.1345,2.3732,2.4458,2.163,2.0339,2.0118,1.5148,1.292,0.0,0.0,0.0,0.0,1.3911,0.0,0.0,0.0,0.0,0.0,2.0573,2.1629,0.0,2.1865,2.1615,2.1008,0.0,0.0,0.0,0.0,1.709,1.709,1.709,1.8148,1.9384,1.9727,2.0955,2.2286,2.2947,2.2622,2.2051,2.1731,2.0514,1.9726,2.0506,2.0685,2.1138,2.231,2.375,2.5508,2.7861,2.9502,3.0723,3.1435,3.1494,0.0,0.0,0.0,0.0,0.0,0.0,0.0,0.0,3.5791,3.5928,3.5742,3.5732,3.583,3.6016,3.6016,3.6016,3.6016,3.6016,3.6016,3.6016,3.6016,3.6016,0.0,0.0,0.0,3.6016,3.6016,3.6016,3.5879,3.5021,3.4737,3.459,3.3734,3.3439,3.3439,0.0,0.0,0.0,0.0,0.0,0.0,0.0,0.0,0.0,0.0,0.0,0.0,0.0,0.0,0.0,0.0,0.0,0.0,0.0,0.0,0.0,0.0,1.2881,1.3767,1.5537,1.6899,1.8093,1.9125,2.0496,2.1924,2.3308,2.308,2.2531,2.1644,1.5864,1.3114,1.2919,0.0,0.0,0.0,1.2928,0.0,0.0,0.0,0.0,0.0,0.0,0.0,0.0,2.2268,2.2111,2.1118,2.0048,0.0,0.0,0.0,0.0,0.0,1.6777,1.7988,1.928,1.9473,2.0412,2.1558,2.2604,2.2382,2.1758,2.1192,2.0297,1.9864,2.0565,2.1445,2.2084,2.2324,2.4497,2.688,2.9238,3.0635,3.1445,3.1514,0.0,0.0,0.0,0.0,0.0,0.0,0.0,0.0,0.0,3.5791,3.583,3.54,3.5459,3.5596,3.582,3.5889,3.5957,3.6016,3.6016,3.6016,3.6016,3.6016,3.6016,0.0,0.0,0.0,3.6016,3.6016,3.584,3.5354,3.378,3.2896,3.2427,3.0775,3.0194,3.0153,0.0,0.0,0.0,0.0,0.0,0.0,0.0,0.0,0.0,0.0,0.0,0.0,0.0,0.0,0.0,0.0,0.0,0.0,0.0,0.0,0.0,1.2881,1.2895,1.4014,1.6461,1.6022,1.6566,1.8185,2.1983,2.3963,2.4165,2.2776,2.0123,1.6543,1.5484,1.4243,1.29,1.29,0.0,1.29,1.292,0.0,0.0,0.0,0.0,0.0,0.0,0.0,0.0,2.0634,2.0949,2.1371,1.8685,0.0,0.0,0.0,0.0,0.0,1.6982,1.7998,1.8735,1.8768,1.9738,2.0907,2.1518,2.162,2.1614,2.1778,2.1242,2.113,2.2812,2.3305,2.3774,2.4307,2.6416,2.8259,0.0,0.0,3.1123,0.0,0.0,0.0,0.0,0.0,0.0,0.0,0.0,0.0,0.0,3.5791,3.583,3.54,3.5742,3.5596,3.4912,3.5293,3.5664,3.6016,3.6016,3.6016,3.6016,3.6016,3.6016,0.0,0.0,3.6016,3.6016,3.6016,3.4948,3.3221,3.2939,3.1621,2.9984,3.0018,2.9796,2.9581,0.0,0.0,0.0,0.0,0.0,0.0,0.0,0.0,0.0,0.0,0.0,0.0,0.0,0.0,0.0,0.0,0.0,0.0,0.0,0.0,0.0,1.4219,1.399,1.426,1.5278,1.7651,1.9096,1.944,2.1987,2.3891,2.4985,2.1483,1.8452,1.6038,1.4655,1.3607,1.2876,1.291,1.2881,1.2881,0.0,0.0,0.0,0.0,0.0,0.0,0.0,0.0,0.0,0.0,1.9868,2.0386,1.7805,0.0,0.0,0.0,0.0,0.0,1.6152,1.7119,1.7978,1.8201,1.9081,2.0317,2.197,2.2367,2.1886,2.0211,2.073,2.1942,2.3444,2.4783,2.6466,2.884,0.0,2.8678,3.0006,3.0517,0.0,0.0,0.0,0.0,0.0,0.0,0.0,0.0,0.0,0.0,0.0,0.0,3.3866,3.3012,3.2418,3.2335,3.2692,3.2871,3.369,3.5312,3.5557,3.5801,3.6016,3.6016,3.5898,3.5693,0.0,3.5752,3.5189,3.4583,3.3456,3.2124,3.0172,2.8826,2.7739,2.6956,2.6505,2.6394,0.0,0.0,0.0,0.0,0.0,0.0,0.0,0.0,0.0,0.0,0.0,0.0,0.0,0.0,0.0,0.0,0.0,0.0,0.0,0.0,1.4129,1.5068,1.5867,1.6062,1.5489,1.8902,2.1034,2.1706,2.2543,2.3751,2.5256,2.0745,1.7862,1.6505,1.3996,1.2908,1.2881,1.289,1.2881,1.2881,0.0,0.0,0.0,0.0,0.0,0.0,0.0,0.0,0.0,0.0,0.0,0.0,0.0,0.0,0.0,1.6328,1.5801,1.5781,1.6084,1.6836,1.7686,1.8301,1.9062,2.0088,2.2045,2.3618,2.3934,2.1296,2.1275,2.2164,2.3753,2.6647,3.0084,3.3831,3.1728,2.9804,0.0,0.0,0.0,0.0,0.0,0.0,0.0,0.0,0.0,0.0,0.0,0.0,0.0,0.0,3.2106,3.0582,2.9401,2.9291,3.0277,3.013,3.157,3.456,3.501,3.5449,3.5869,3.5869,3.5693,3.54,3.5095,3.4681,3.403,3.2375,3.1352,3.0468,2.752,2.6178,2.5695,2.4125,2.3647,2.3761,0.0,0.0,0.0,0.0,0.0,0.0,0.0,0.0,0.0,0.0,0.0,0.0,0.0,0.0,0.0,0.0,0.0,0.0,0.0,0.0,1.3864,1.4209,1.8791,2.0801,1.9502,1.7935,1.973,2.5082,2.4842,2.4651,2.4463,2.1731,1.8976,1.6258,1.391,1.2885,1.292,1.2891,1.2881,1.2881,1.2881,0.0,0.0,0.0,0.0,0.0,0.0,0.0,0.0,0.0,0.0,0.0,0.0,0.0,1.8418,1.751,1.6953,1.6831,1.8086,1.8193,1.8262,1.9473,2.0103,2.0576,2.0744,2.5207,2.9233,2.9022,2.4545,2.1496,2.4293,2.9541,3.4725,3.8536,3.5758,3.2579,0.0,0.0,0.0,0.0,0.0,0.0,0.0,0.0,0.0,0.0,0.0,0.0,0.0,0.0,0.0,2.9443,2.9127,2.8627,2.7927,2.8048,3.0112,3.4121,3.4551,3.499,3.5439,3.5439,3.542,3.5208,3.2926,3.2107,3.2068,2.9889,2.8061,2.655,2.5967,2.484,2.346,2.3171,2.3287,2.3734,0.0,0.0,0.0,0.0,0.0,0.0,0.0,0.0,0.0,0.0,0.0,0.0,0.0,0.0,0.0,0.0,0.0,0.0,0.0,1.3331,1.4116,1.5283,1.7771,1.9467,2.0173,2.1912,2.5337,3.0525,2.7745,2.6196,2.5491,2.1878,1.8834,1.6423,1.4232,1.3394,1.3623,1.3105,1.3184,1.3613,1.3096,1.2881,0.0,0.0,0.0,0.0,0.0,0.0,0.0,0.0,1.7779,1.8338,1.7346,1.774,1.8359,1.6973,1.6445,1.6426,1.6904,1.751,1.8193,1.8936,1.9869,2.1033,2.2745,2.8167,3.301,3.3744,2.9851,2.6229,2.5999,2.9276,3.3979,3.981,3.6551,0.0,0.0,0.0,0.0,0.0,0.0,0.0,0.0,0.0,0.0,0.0,0.0,0.0,0.0,0.0,0.0,2.6792,2.5457,2.4986,2.5132,2.5335,2.7335,3.0941,3.0692,3.0686,3.121,3.216,3.2013,3.0704,3.1051,3.0437,2.8965,2.743,2.626,2.5405,2.4431,2.3598,2.3026,2.2906,2.3006,2.3187,0.0,0.0,0.0,0.0,0.0,0.0,0.0,0.0,0.0,0.0,0.0,0.0,0.0,0.0,0.0,0.0,0.0,0.0,1.2881,1.3271,1.4092,1.54,1.6891,1.8638,2.061,2.4224,2.789,3.1687,3.0751,2.8433,2.5009,2.205,1.9356,1.7061,1.5303,1.4687,1.4836,1.3906,1.3834,1.4327,1.3313,1.3017,0.0,0.0,0.0,0.0,0.0,0.0,0.0,0.0,1.6948,1.7321,1.7083,1.7626,1.8184,1.6865,1.667,1.6846,1.6719,1.7334,1.8272,1.9524,2.0491,2.2102,2.563,2.982,3.3611,3.5895,3.326,2.9928,2.76,2.9962,0.0,0.0,0.0,0.0,0.0,0.0,0.0,0.0,0.0,0.0,0.0,0.0,0.0,0.0,0.0,0.0,0.0,0.0,0.0,0.0,2.3196,2.2367,2.2993,2.3102,2.4265,2.661,2.5985,2.6898,2.9172,3.0352,2.9816,2.7885,2.8554,2.795,2.6344,2.48,2.4181,2.3854,2.2996,2.2645,2.2719,2.2719,2.2779,2.2859,0.0,0.0,0.0,0.0,0.0,0.0,0.0,0.0,0.0,0.0,0.0,0.0,0.0,0.0,0.0,0.0,0.0,0.0,1.2881,1.3271,1.3691,1.4058,1.6859,1.9253,2.1198,2.3731,2.5859,2.7579,3.3408,3.1504,2.2305,2.2295,2.0772,1.7969,1.7109,1.6728,1.6568,1.5332,1.4914,1.4966,1.3531,1.3296,1.3752,0.0,0.0,0.0,0.0,0.0,0.0,0.0,1.6416,1.6341,1.7578,1.7998,1.793,1.75,1.7969,1.8525,1.8105,1.8008,1.8775,2.1671,2.2446,2.381,2.8952,2.9626,3.06,3.5407,3.4193,3.1479,2.8821,3.2325,0.0,0.0,0.0,0.0,0.0,0.0,0.0,0.0,0.0,0.0,0.0,0.0,0.0,0.0,0.0,0.0,0.0,0.0,0.0,0.0,2.2904,2.155,2.1679,2.1256,2.1109,2.1109,2.1109,2.4313,3.0302,3.0302,2.9406,2.769,2.5207,2.4359,2.4349,2.2095,2.1289,2.1583,2.1877,2.2164,2.2412,2.2412,2.2605,2.2859,0.0,0.0,0.0,0.0,0.0,0.0,0.0,0.0,0.0,0.0,0.0,0.0,0.0,0.0,0.0,0.0,0.0,0.0,1.2881,1.2998,1.3262,1.3672,1.5662,1.6992,1.7488,1.9922,2.2611,2.5541,2.7744,2.6769,2.2761,2.2132,2.0923,1.9124,1.7842,1.6717,1.5732,1.5245,1.5463,1.6145,1.5596,1.5703,1.6065,0.0,0.0,0.0,0.0,0.0,0.0,0.0,0.0,0.0,1.6827,1.7396,1.7803,1.6758,1.707,1.7519,1.6465,1.837,2.0799,2.1368,2.3962,2.7211,3.0465,3.1344,3.2358,3.573,3.5722,3.4304,3.1606,3.5132,0.0,0.0,0.0,0.0,0.0,0.0,0.0,0.0,0.0,0.0,0.0,0.0,0.0,0.0,0.0,0.0,0.0,0.0,0.0,0.0,2.2681,2.2084,2.2979,2.1775,2.2208,2.4525,2.3442,2.3223,2.3859,2.5117,2.4741,2.3112,2.3547,2.3148,2.2115,2.1659,2.1597,2.1864,2.1951,2.2038,2.2118,2.2118,2.2298,2.2519,0.0,0.0,0.0,0.0,0.0,0.0,0.0,0.0,0.8804,0.8804,0.8804,0.8803,0.0,0.0,0.0,1.2782,1.2909,0.0,1.2887,1.2887,1.3278,1.4138,1.5174,1.6102,1.6917,1.8406,1.9823,2.1263,2.1681,2.1588,2.1128,2.1698,2.1568,2.0953,2.0017,1.8783,1.7255,1.6901,1.7041,1.7431,1.7351,1.7583,1.7717,0.0,0.0,0.0,0.0,0.0,0.0,0.0,0.0,0.0,1.6213,1.6583,1.7006,1.6719,1.7714,1.8875,1.8783,2.1086,2.3762,2.4621,2.6748,2.9344,3.2475,3.36,3.4428,3.6028,3.6403,3.588,3.424,3.712,0.0,0.0,0.0,0.0,0.0,0.0,0.0,0.0,0.0,0.0,0.0,0.0,0.0,0.0,0.0,0.0,0.0,0.0,0.0,0.0,2.4394,2.3753,2.454,2.2952,2.3076,2.5016,2.4054,2.3084,2.2097,2.3076,2.2709,2.1109,2.2223,2.1971,2.1122,2.1303,2.1483,2.1637,2.1637,2.171,2.181,2.181,2.1997,2.2218,0.0,0.0,0.0,0.0,0.0,0.0,0.0,0.8804,0.8804,0.8804,0.8804,0.8783,0.0,0.0,0.0,1.2686,1.2892,1.2822,1.2672,1.2642,1.3445,1.5124,1.5275,1.6297,1.8374,1.8295,1.7461,1.5949,1.6105,1.6969,1.8449,2.1124,2.2501,2.2764,2.2799,2.1691,1.9697,1.9175,1.8711,1.8363,1.8667,1.8854,1.8718,1.7171,0.0,0.0,0.0,0.0,0.0,0.0,0.0,0.0,1.5786,1.5771,1.6014,1.712,1.919,2.1511,2.3228,2.505,2.7117,2.9845,3.017,3.0796,3.4595,3.5931,3.637,3.642,3.654,3.6551,3.6505,0.0,0.0,0.0,0.0,0.0,0.0,0.0,0.0,0.0,0.0,0.0,0.0,0.0,0.0,0.0,0.0,0.0,0.0,0.0,0.0,2.9089,2.7011,2.6098,2.6219,2.4655,2.3938,0.0,2.3938,2.3814,2.3814,2.3814,2.2959,2.1355,2.1109,2.1109,2.1109,2.1109,2.1109,2.1109,2.1109,2.1276,2.151,2.151,2.1697,2.1944,0.0,0.0,0.0,0.0,0.0,0.0,0.891,0.8804,0.8804,0.8804,0.8804,0.8791,0.8797,1.0724,0.0,1.2833,1.2897,1.2317,1.0933,1.0848,1.2139,1.5061,1.5839,1.6812,1.805,1.6107,1.4865,1.4551,1.6565,1.8154,1.9286,2.1704,2.2539,2.1976,2.2002,2.0138,1.6938,1.6327,1.6384,1.6962,1.8413,1.8981,1.8871,1.8105,1.688,0.0,0.0,0.0,0.0,0.0,0.0,0.0,1.5892,1.6164,1.6503,1.6829,1.9055,2.1451,2.2173,2.5199,2.85,2.9939,3.1905,3.3744,3.4648,3.5655,3.6483,3.6923,3.7157,3.7358,0.0,0.0,0.0,0.0,0.0,0.0,0.0,0.0,0.0,0.0,0.0,0.0,0.0,0.0,0.0,0.0,0.0,0.0,0.0,0.0,0.0,2.8553,2.6875,2.6591,2.7931,2.6349,2.6106,0.0,2.6106,2.5497,2.5497,2.5497,2.4655,2.2959,2.1727,2.1109,2.1109,2.1109,2.1109,2.1109,2.1109,2.1149,2.1203,2.1203,2.139,2.1617,0.0,0.0,0.0,0.0,0.0,0.0,0.0,0.0,0.8804,0.8804,0.8804,0.8776,0.8816,1.0069,0.0,0.0,1.2882,1.2143,1.0427,1.1077,1.2969,1.6216,1.7082,1.7164,1.6388,1.4506,1.3223,1.2588,1.4155,1.6202,1.8611,2.0567,2.1869,2.2522,2.1705,1.9673,1.6745,1.6732,1.6912,1.741,1.9111,1.9811,1.966,1.8317,1.676,1.5268,1.4778,0.0,0.0,0.0,0.0,0.0,0.0,0.0,1.6359,1.7478,1.9749,2.2444,2.4952,2.8183,3.1151,3.2111,3.3564,3.4726,3.4726,3.5579,3.6445,3.6734,3.7186,0.0,0.0,0.0,0.0,0.0,0.0,0.0,0.0,0.0,0.0,0.0,0.0,0.0,0.0,0.0,0.0,0.0,0.0,0.0,0.0,2.9977,2.9874,2.9658,2.8792,2.8792,2.953,2.7931,2.7563,2.8417,2.7563,2.7572,2.8188,2.513,2.3186,2.2341,2.1481,2.1607,2.2215,2.1481,2.1601,2.2223,2.1355,2.1109,2.1109,2.1109,2.1209,2.1323,0.0,0.0,0.0,0.0,0.0,0.0,0.0,0.0,0.0,0.8804,0.8791,0.8779,0.8797,0.8974,0.9966,0.0,0.0,0.0,1.0389,1.2057,1.4419,1.7226,1.7784,1.7025,1.4924,1.3469,1.2236,1.1133,1.1348,1.3407,1.7164,1.8885,2.0807,2.2872,2.1107,1.9115,1.7053,1.7192,1.728,1.7502,1.915,1.9799,1.9535,1.7798,1.6149,1.4714,1.4422,1.45,1.5004,0.0,0.0,0.0,0.0,0.0,1.6418,1.8216,2.0591,2.355,2.7721,3.0828,3.3207,3.4419,3.4654,3.4613,3.47,3.5491,3.627,3.6471,0.0,0.0,0.0,0.0,0.0,0.0,0.0,0.0,0.0,0.0,0.0,0.0,0.0,0.0,0.0,0.0,0.0,0.0,0.0,0.0,3.0889,3.0889,3.0889,3.0889,3.0889,3.0889,3.0889,2.953,2.8792,2.8783,2.8298,2.8545,2.9422,2.3675,2.1601,2.2334,2.209,2.2702,2.3931,2.2584,2.2702,2.3814,2.2215,2.1475,2.1481,2.1235,2.1109,2.1109,0.0,0.0,0.0,0.0,0.0,0.0,0.0,0.0,0.0,0.0,0.8776,0.882,0.8799,0.9572,1.0238,1.0624,1.0639,1.054,1.0328,0.0,0.0,1.6405,1.6014,1.5817,1.5924,1.3528,1.2236,1.2005,1.1338,1.2586,1.5742,1.7687,1.9318,2.0456,1.8826,1.7005,1.5074,1.3739,1.3446,1.403,1.5685,1.607,1.5709,1.5844,1.523,1.4235,1.4283,1.4312,1.4683,0.0,1.7457,0.0,0.0,0.0,1.7913,1.8192,2.0558,2.3455,2.4958,2.8396,3.2074,3.4219,3.4358,3.4135,3.4613,3.5203,3.5918,0.0,0.0,0.0,0.0,0.0,0.0,0.0,0.0,0.0,0.0,0.0,0.0,0.0,0.0,0.0,0.0,0.0,0.0,0.0,0.0,0.0,3.0889,3.0889,3.0889,3.0889,3.0889,3.0889,3.0889,3.0645,3.0528,3.0518,2.7692,2.5749,2.4548,2.2215,2.3427,2.7323,2.5984,2.5489,2.5619,2.5497,2.5497,2.5497,2.3931,2.3333,2.3076,2.1601,2.1109,2.1109,0.0,0.0,0.0,0.0,0.0,0.0,0.0,0.0,0.0,0.0,0.0,0.9372,1.095,1.0606,1.0303,1.0312,1.0293,1.0312,1.0288,1.184,1.3111,1.3879,1.3262,1.3153,1.358,1.2173,1.1377,1.1143,1.0986,1.2334,1.5078,1.6204,1.7877,1.9879,1.7787,1.6199,1.5103,1.3507,1.339,1.4263,1.4962,1.6195,1.7426,1.5545,1.5293,1.5759,1.4223,1.3923,1.4475,0.0,1.6995,1.7099,1.7691,0.0,0.0,0.0,2.0173,2.2852,2.7305,3.0182,3.2423,3.4923,3.4692,3.4048,3.46,3.5152,3.5768,0.0,0.0,0.0,0.0,0.0,0.0,0.0,0.0,0.0,0.0,0.0,0.0,0.0,0.0,0.0,0.0,0.0,0.0,0.0,0.0,3.0889,3.0889,3.0889,3.0889,3.0889,3.0889,3.0889,3.0889,3.0889,3.0889,3.0889,2.9412,2.8316,2.7718,2.6979,2.6244,2.5635,2.4901,2.5627,2.7323,2.634,2.6591,2.7073,2.454,2.3574,2.345,2.1727,2.1109,2.1109,0.0,0.0,0.0,0.0,0.0,0.0,0.0,0.0,0.0,0.0,0.0,0.9856,1.26,0.0,0.0,0.0,1.0283,1.0302,1.0293,1.1016,1.154,1.1875,1.1367,1.116,1.1439,1.0977,1.0596,1.0283,1.0703,1.2295,1.4951,1.5381,1.7129,1.9805,1.7334,1.6038,1.5602,1.4,1.4029,1.5217,1.5442,1.7149,1.9336,1.7334,1.7765,1.8865,1.4693,1.3504,0.0,0.0,0.0,0.0,0.0,0.0,0.0,0.0,0.0,2.1786,2.8275,3.0097,3.0934,3.4148,3.4061,3.352,3.45,0.0,3.5529,0.0,0.0,0.0,0.0,0.0,0.0,0.0,0.0,0.0,0.0,0.0,0.0,0.0,0.0,0.0,0.0,0.0,0.0,0.0,0.0,3.0889,3.0889,3.0889,3.0889,3.0889,3.0889,3.0889,3.0889,3.0889,3.0645,3.0265,3.0265,3.003,2.9658,2.9658,2.7949,2.4786,2.5277,2.6849,2.8911,2.7692,2.794,2.8673,2.5513,2.4178,2.3931,2.1846,2.1109,2.1109,0.0,0.0,0.0,0.0,0.0,0.0,0.0,0.0,0.0,0.0,0.0,0.9835,1.259,1.1338,1.029,1.0312,1.0283,1.0302,1.0293,1.0692,1.1152,1.1616,1.1139,0.0,1.0947,1.0527,1.0303,1.0283,1.0703,1.2441,1.5391,1.583,1.7422,1.9824,1.7656,1.6507,1.6159,1.4395,1.4469,1.5832,1.6859,1.7904,1.9198,2.2207,2.4006,2.3862,1.599,1.3235,0.0,0.0,0.0,0.0,0.0,0.0,0.0,0.0,0.0,0.0,2.4635,2.5136,2.552,3.036,3.1539,3.2089,0.0,0.0,0.0,0.0,0.0,0.0,0.0,0.0,0.0,0.0,0.0,0.0,0.0,0.0,0.0,0.0,0.0,0.0,0.0,0.0,0.0,0.0,0.0,3.0889,3.0889,3.0889,3.0889,3.0889,3.0889,3.0889,3.0889,3.0889,3.0147,2.8536,2.8536,2.7692,2.6227,2.6227,2.6953,2.8298,2.9785,3.0645,3.0762,3.0645,3.0645,3.0392,2.7202,2.5855,2.5489,2.2334,2.1109,2.1109,0.0,0.0,0.0,0.0,0.0,0.0,0.0,0.0,0.0,0.0,0.0,0.0,0.0,0.9649,0.9549,1.0262,1.0283,1.0293,1.0291,1.0449,1.0576,1.0773,1.0586,1.0508,1.0508,1.0361,1.0283,1.0283,1.043,1.1768,1.4209,1.5497,1.6894,1.8209,1.6951,1.6539,1.6635,1.4298,1.3987,1.5299,1.7691,2.0202,2.2614,2.4221,2.6412,0.0,0.0,0.0,0.0,0.0,0.0,0.0,0.0,0.0,0.0,1.8352,1.8622,1.9724,2.3421,2.3964,2.4426,2.8253,2.977,3.0846,3.2692,3.4223,0.0,0.0,0.0,0.0,0.0,0.0,0.0,0.0,0.0,0.0,0.0,0.0,0.0,0.0,0.0,0.0,0.0,0.0,0.0,0.0,0.0,0.0,3.0449,3.0732,3.0889,3.0889,3.0889,3.0889,3.0889,3.0889,3.0635,3.002,3.002,2.9658,2.9166,2.9166,2.9412,3.002,3.0645,3.0889,3.0889,3.0889,3.0889,3.0528,2.7323,2.5976,2.5611,2.2327,2.1109,2.1109,0.0,0.0,0.0,0.0,0.0,0.0,0.0,0.0,0.0,0.7419,0.0,0.0,0.0,0.0,0.8724,1.0181,1.0312,1.0283,1.0283,1.0283,1.0283,1.0283,1.0283,1.0283,1.0283,1.0283,1.0283,1.0283,1.043,1.1455,1.3311,1.478,1.6006,1.6948,1.632,1.687,1.8104,1.5884,1.5376,1.638,2.0002,2.2353,2.3991,2.7326,0.0,0.0,0.0,0.0,0.0,0.0,0.0,0.0,0.0,0.0,0.0,1.8179,1.8352,1.8853,2.144,2.2024,2.2639,2.6059,2.7242,2.8473,3.1976,0.0,0.0,0.0,0.0,0.0,0.0,0.0,0.0,0.0,0.0,0.0,0.0,0.0,0.0,0.0,0.0,0.0,0.0,0.0,0.0,0.0,0.0,0.0,3.0185,3.0488,3.0732,3.0889,3.0889,3.0889,3.0889,3.0889,3.0889,3.0889,3.0889,3.0889,3.0889,3.0889,3.0889,3.0889,3.0889,3.0889,3.0889,3.0889,3.0528,2.9776,2.7073,2.5619,2.4893,2.209,2.1109,2.1109,0.0,0.0,0.0,0.0,0.0,0.0,0.0,0.0,0.6979,0.6979,0.0,0.0,0.0,0.0,0.0,1.0092,1.0302,1.0312,1.0283,1.0283,1.0283,1.0283,1.0283,1.0283,1.0283,1.0283,1.0283,1.0283,1.0693,1.1553,1.288,1.3789,1.4903,1.6213,1.5911,1.754,2.0338,1.8983,1.8562,1.9177,0.0,2.4127,2.3169,0.0,0.0,0.0,3.1324,3.0661,0.0,2.8521,0.0,0.0,0.0,0.0,0.0,1.7488,1.7403,1.7315,0.0,0.0,0.0,2.3678,0.0,0.0,3.2014,0.0,0.0,0.0,0.0,0.0,0.0,0.0,0.0,0.0,0.0,0.0,0.0,0.0,0.0,0.0,0.0,0.0,0.0,0.0,0.0,0.0,0.0,2.9726,3.0137,3.0185,3.04,3.0859,3.0889,3.0889,3.0889,3.0889,3.0889,3.0889,3.0889,3.0889,3.0889,3.0889,3.0889,3.0889,3.0889,3.0889,3.0889,3.0889,2.9893,2.8298,2.6591,2.5016,2.345,2.1727,2.1109,2.1109,0.0,0.0,0.0,0.0,0.0,0.7121,0.7034,0.6979,0.6979,0.0,0.0,0.0,0.6767,0.7461,0.8433,0.9628,1.0127,1.0345,1.0283,1.0283,1.0283,1.0283,1.0283,1.0283,1.0283,1.0283,1.0283,1.0283,1.04,1.1004,1.2066,1.352,1.4915,1.6256,1.7435,1.8367,1.8973,1.691,0.0,1.9105,2.1685,2.4926,0.0,0.0,0.0,0.0,0.0,3.5368,3.3198,0.0,2.9476,2.4697,0.0,0.0,1.6329,1.7082,1.6845,1.666,1.7984,0.0,0.0,0.0,0.0,0.0,0.0,0.0,0.0,0.0,0.0,0.0,0.0,0.0,0.0,0.0,0.0,0.0,0.0,0.0,0.0,0.0,0.0,0.0,0.0,0.0,0.0,0.0,2.8857,2.915,2.9268,2.9863,3.0254,3.0381,3.0713,3.0889,3.0889,3.0889,3.0889,3.0889,3.0889,3.0889,3.0889,3.0889,3.0889,3.0889,3.0889,3.0889,3.0772,2.953,2.8792,2.817,2.5391,2.3931,2.345,2.1727,2.1109,2.1109,0.0,0.0,0.8445,0.8645,0.8076,0.7629,0.7749,0.7662,0.7582,0.0,0.0,0.0,0.7174,0.8172,0.8872,0.9011,0.9748,1.0146,0.996,1.0166,1.0283,1.0283,1.0283,1.0283,1.0283,1.0283,1.0283,1.0283,1.0505,1.0858,1.1428,1.3002,1.4171,1.4974,1.6573,1.7212,1.7049,1.5893,0.0,0.0,2.2899,0.0,0.0,3.332,3.5714,0.0,0.0,0.0,3.4681,3.6073,3.2153,0.0,0.0,0.0,0.0,0.0,1.7519,1.7427,1.8205,1.8074,1.7965,1.8982,0.0,0.0,0.0,2.6929,0.0,0.0,0.0,0.0,0.0,0.0,0.0,0.0,0.0,0.0,0.0,0.0,0.0,0.0,0.0,0.0,0.0,0.0,0.0,0.0,2.8525,2.874,2.8906,2.957,2.9932,2.9932,3.0205,3.043,3.0605,3.0605,3.0703,3.0889,3.0889,3.0889,3.0889,3.0889,3.0889,3.0889,3.0889,3.0889,3.0772,2.9039,2.8051,2.7202,2.454,2.3208,2.2466,2.1481,2.1109,2.1109,0.0,0.0,0.8132,0.8643,0.8602,0.853,0.8858,0.8631,0.8444,0.0,0.8064,0.7822,0.8223,0.9015,0.9293,0.8608,0.9393,0.9791,0.9569,1.0029,1.0283,1.0283,1.0283,1.0322,1.04,1.039,1.04,1.0467,1.0867,1.1132,1.1196,1.2472,1.3137,1.3208,1.4457,1.5034,1.5093,1.558,0.0,1.8837,2.5408,2.6999,0.0,0.0,3.5554,0.0,3.6582,3.6507,3.5444,3.8182,3.5126,0.0,0.0,0.0,0.0,0.0,1.9075,1.9278,1.9072,1.8706,1.8694,2.0039,0.0,0.0,2.6239,2.7118,0.0,0.0,0.0,0.0,0.0,0.0,0.0,0.0,0.0,0.0,0.0,0.0,0.0,0.0,0.0,0.0,0.0,0.0,2.8291,2.8291,2.8291,2.8457,2.8828,2.9258,2.9502,2.9502,2.9541,2.9746,3.0127,3.0127,3.0361,3.081,3.081,3.084,3.0889,3.0889,3.0889,3.0889,3.0889,3.0889,3.0772,2.9039,2.7443,2.5855,2.4178,2.2591,2.1109,2.1109,2.1109,2.1109,0.8036,0.813,0.8424,0.8982,0.8866,0.8905,0.9432,0.9065,0.8891,0.9365,0.9118,0.9279,1.0287,0.9704,0.9501,1.0042,1.0042,0.9935,0.9825,1.0101,1.0283,1.0283,1.0283,1.0467,1.0867,1.0867,1.1057,1.1516,1.159,1.1847,1.2198,1.281,1.3213,1.3439,1.4038,1.4499,1.4896,1.5545,0.0,2.1909,2.4002,0.0,3.0593,3.4603,3.6907,3.8153,3.8796,3.8781,3.8317,0.0,3.5911,3.3559,0.0,0.0,0.0,2.124,0.0,0.0,2.0122,1.9588,0.0,0.0,0.0,0.0,2.0464,2.1154,0.0,0.0,0.0,0.0,0.0,0.0,0.0,0.0,0.0,0.0,0.0,0.0,0.0,0.0,0.0,0.0,0.0,0.0,2.8291,2.8291,2.8291,2.833,2.8408,2.8818,2.9043,2.9043,2.9385,2.9609,2.9687,2.9687,2.9912,3.0332,3.0332,3.0527,3.0889,3.0889,3.0889,3.0889,3.0889,3.0889,3.0772,2.9039,2.7443,2.5855,2.4178,2.2591,2.1109,2.1109,2.1109,2.1109,0.7482,0.7785,0.8355,0.9078,0.9323,0.9641,1.0302,0.9977,0.98,1.0089,1.0133,1.0174,1.0321,0.994,0.9552,0.9214,0.9274,0.935,0.9324,0.9667,1.0,1.0283,1.0283,1.0505,1.0981,1.1019,1.1126,1.1358,1.2071,1.2423,1.2421,1.3213,1.4727,1.673,1.5153,1.5684,1.7655,1.6353,1.7522,2.055,2.4625,0.0,3.3381,3.6778,3.8856,3.9948,4.0277,4.0397,4.0157,3.8497,3.6477,0.0,0.0,3.0273,2.8453,0.0,2.4239,2.4582,0.0,0.0,0.0,1.9613,0.0,0.0,0.0,0.0,0.0,0.0,0.0,0.0,0.0,0.0,0.0,0.0,0.0,0.0,0.0,0.0,0.0,0.0,0.0,0.0,0.0,0.0,2.9006,2.8398,2.8291,2.8291,2.8291,2.8496,2.8603,2.8603,2.8818,2.9033,2.9248,2.9248,2.9463,2.9883,2.9883,3.0117,3.0547,3.0547,3.0674,3.0889,3.0889,3.0889,3.0772,2.9039,2.733,2.5608,2.4109,2.2591,2.1109,2.1109,2.1109,2.1089,0.7068,0.747,0.8121,0.8884,0.9653,1.0285,1.0843,1.0903,1.092,1.0902,1.1056,1.0935,1.0341,1.0434,1.006,0.8871,0.9059,0.9212,0.8992,0.9512,1.0054,1.0608,1.0419,1.0733,1.1612,1.1217,1.1057,1.1183,1.2332,1.2677,1.226,1.3509,1.5771,1.8702,1.6796,1.7356,1.963,0.0,0.0,2.0296,0.0,3.0193,3.3141,3.788,3.9583,3.9634,4.092,4.1459,4.1324,3.9753,0.0,3.4711,3.519,3.3469,0.0,0.0,0.0,0.0,0.0,0.0,0.0,0.0,0.0,2.0271,0.0,0.0,0.0,0.0,0.0,0.0,0.0,0.0,0.0,0.0,0.0,0.0,0.0,0.0,0.0,0.0,0.0,0.0,0.0,0.0,2.8941,2.8359,2.7832,2.7764,2.8262,2.8291,2.8291,2.8291,2.8291,2.8457,2.8789,2.8799,2.9014,2.9443,2.9443,2.9668,3.0078,3.0078,3.0283,3.0635,3.0723,3.0762,3.0636,2.9282,2.7502,2.5353,2.404,2.2513,2.0942,2.0942,2.0902,2.0815,0.6985,0.747,0.8043,0.841,0.9385,1.0147,1.0186,1.1294,1.2097,1.2104,1.1906,1.1931,1.2425,1.2191,1.1984,1.1817,0.0,0.0,1.0013,0.0,1.127,1.1773,1.0841,1.143,1.3846,1.1943,1.1342,1.2229,1.2173,1.2082,1.2059,1.3444,1.4069,1.417,1.8219,1.8657,0.0,0.0,2.3475,0.0,2.8263,2.7455,0.0,3.4291,3.6761,3.6537,4.0098,4.1758,4.1863,0.0,3.8616,3.7868,0.0,3.4038,3.6073,2.9415,0.0,0.0,0.0,0.0,0.0,0.0,2.4056,0.0,0.0,0.0,0.0,0.0,0.0,0.0,0.0,0.0,0.0,0.0,0.0,0.0,0.0,0.0,0.0,0.0,0.0,0.0,0.0,0.0,0.0,2.8115,2.6162,2.5859,2.8174,2.8291,2.8291,2.8291,2.8291,2.831,2.8359,2.8359,2.8574,2.8994,2.8994,2.9219,2.9639,2.9639,2.9668,2.9746,3.0107,3.0273,3.0273,3.0035,2.8217,2.5481,2.417,2.2248,2.0334,2.0334,2.0167,1.9907,0.6653,0.7395,0.8023,0.8323,0.8918,0.959,1.0248,1.1059,1.153,1.133,1.1506,1.1427,1.0922,0.0,0.0,0.0,0.0,1.0716,0.0,0.0,1.0685,1.056,1.0381,1.1083,1.281,1.1586,1.1247,1.1939,1.2053,1.2228,1.2484,1.3274,1.5227,1.8195,1.9945,2.1425,2.2664,0.0,2.3924,0.0,0.0,0.0,0.0,3.5819,3.9707,4.0262,4.1923,4.2686,4.2761,0.0,3.9424,0.0,0.0,0.0,0.0,0.0,0.0,0.0,0.0,0.0,0.0,0.0,0.0,0.0,1.9075,0.0,1.7727,0.0,0.0,0.0,0.0,0.0,0.0,0.0,0.0,0.0,0.0,0.0,0.0,0.0,0.0,0.0,0.0,0.0,0.0,0.0,0.0,2.5547,2.8154,2.8291,2.8291,2.8291,2.8291,2.8291,2.8291,2.8291,2.8379,2.8555,2.8555,2.8779,2.9189,2.9189,2.9189,2.9199,2.9375,2.9316,2.8982,2.805,2.6314,2.4234,2.2866,2.1327,1.996,1.9793,1.9653,1.9506,0.6156,0.6972,0.7607,0.7791,0.8283,0.9052,1.0112,1.0302,1.041,0.0,0.0,0.0,1.0355,1.0889,0.0,0.0,1.1454,1.1852,0.0,0.0,1.1642,1.1926,1.0899,0.0,1.3301,1.1616,1.0972,1.1588,1.1653,1.2007,1.255,1.308,1.5625,1.9869,2.1201,2.3445,2.6246,0.0,2.5914,2.6602,2.6931,2.8218,3.0687,3.7644,4.1564,4.3329,4.3329,4.3329,4.3225,4.2506,3.9723,0.0,4.0217,0.0,0.0,0.0,0.0,0.0,3.0881,0.0,0.0,0.0,0.0,0.0,0.0,0.0,0.0,0.0,0.0,0.0,0.0,0.0,0.0,0.0,0.0,0.0,0.0,0.0,0.0,0.0,0.0,0.0,0.0,0.0,0.0,0.0,0.0,0.0,2.7554,2.7726,2.7726,2.7726,2.7726,2.7843,2.8291,2.8291,2.8291,2.8291,2.8291,2.8447,2.875,2.875,2.8682,2.8584,2.8701,2.8506,2.8009,2.6892,2.5397,2.3837,2.2261,2.0896,1.9862,1.9287,1.9078,1.8965,0.549,0.6127,0.6541,0.6304,0.7474,0.8663,0.9341,0.8871,0.0,0.0,0.0,0.0,0.0,0.0,0.0,0.0,0.0,1.5642,1.4544,0.0,1.5548,0.0,0.0,1.2507,0.0,1.2587,1.0625,1.1588,1.0847,1.0955,1.1939,1.2879,1.3921,1.5291,2.1665,2.3879,2.3161,2.8173,3.1779,3.4068,3.3455,3.6297,4.0636,0.0,3.9948,4.3329,4.3329,0.0,0.0,4.0397,3.9424,0.0,0.0,0.0,0.0,0.0,0.0,0.0,0.0,0.0,0.0,2.6832,0.0,0.0,0.0,0.0,1.8643,0.0,0.0,0.0,0.0,0.0,0.0,0.0,0.0,0.0,0.0,0.0,0.0,0.0,0.0,0.0,0.0,0.0,0.0,0.0,0.0,0.0,2.6009,2.6155,2.6155,2.6155,2.6155,2.6834,2.8291,2.8291,2.8291,2.8291,2.8291,2.8301,2.831,2.831,2.8096,2.7725,2.8135,2.8076,2.7685,2.7685,2.6682,2.5156,2.3051,2.1328,1.9913,1.8947,1.8337,1.8043,0.5292,0.5836,0.6415,0.6702,0.7144,0.7768,0.0,0.9045,0.0,0.0,0.0,0.0,0.0,0.0,1.3467,0.0,0.0,1.6206,1.6154,1.6082,0.0,0.0,0.0,1.4912,0.0,0.0,1.2353,1.268,1.1682,1.1679,1.2653,1.3261,1.4299,1.5885,2.1456,2.4941,0.0,0.0,0.0,0.0,0.0,3.7584,4.0726,0.0,0.0,4.3329,4.3329,4.3329,0.0,4.2312,4.0861,3.9574,4.0427,3.9364,3.8108,3.9604,4.0053,0.0,0.0,0.0,3.7333,3.0403,0.0,0.0,0.0,0.0,0.0,0.0,0.0,0.0,0.0,0.0,0.0,0.0,0.0,0.0,0.0,0.0,0.0,0.0,0.0,0.0,0.0,0.0,0.0,0.0,0.0,0.0,0.0,2.6155,2.5599,2.4599,2.5599,2.6381,2.6825,2.7843,2.8291,2.8291,2.8018,2.7881,2.7871,2.7578,2.7217,2.6826,2.6973,2.6787,2.6396,2.6396,2.5547,2.4149,2.2554,2.1028,1.9605,1.8369,1.7822,1.7722,0.5429,0.5825,0.6307,0.6647,0.7071,0.0,0.0,0.0,0.0,0.0,1.1336,0.0,1.188,0.0,1.4289,0.0,1.6831,1.7938,1.8006,1.85,0.0,2.0599,1.8576,0.0,0.0,0.0,1.4943,1.4701,1.3006,1.2436,1.3019,1.3307,1.4268,1.5944,2.0386,2.4536,2.8412,3.1091,3.3784,0.0,0.0,3.9379,0.0,0.0,4.2686,4.2701,0.0,4.3329,4.3329,4.3329,4.2207,4.11,4.2806,4.1293,3.9427,4.1866,4.2061,4.1385,4.0352,4.0135,0.0,3.2847,3.0161,0.0,2.1521,0.0,0.0,0.0,0.0,0.0,0.0,0.0,0.0,0.0,0.0,0.0,0.0,0.0,0.0,0.0,0.0,0.0,0.0,0.0,0.0,0.0,0.0,0.0,0.0,0.0,2.4599,2.3039,2.4488,2.5599,2.6045,2.7051,2.7766,2.8066,2.7793,2.7588,2.7422,2.7148,2.6787,2.6387,2.6387,2.6143,2.5742,2.5742,2.4922,2.3583,2.2257,2.0837,1.942,1.8094,1.7582,1.7595,0.6011,0.6151,0.6263,0.0,0.7173,0.0,0.0,0.0,1.0321,0.0,1.1563,1.2278,1.318,1.4641,1.5799,1.643,1.9161,0.0,2.037,2.1741,0.0,0.0,2.3074,2.3143,2.5716,0.0,0.0,0.0,0.0,1.3183,1.305,1.3072,1.3799,1.5217,1.8579,0.0,2.7874,3.1794,3.5818,3.9679,4.0935,4.1788,4.2387,4.3075,0.0,4.1549,4.2865,4.3329,4.3329,4.3329,4.3265,4.3265,4.3344,4.3284,4.3471,4.4383,4.5837,4.6403,4.2521,4.0648,3.8683,3.4228,0.0,0.0,0.0,0.0,2.4707,0.0,0.0,0.0,0.0,0.0,0.0,0.0,0.0,0.0,0.0,0.0,0.0,0.0,0.0,0.0,0.0,0.0,0.0,0.0,0.0,0.0,0.0,0.0,0.0,2.1647,2.3007,2.4454,2.5982,2.6009,2.6593,2.7637,2.7617,2.7383,2.6982,2.6963,2.6738,2.6357,2.6357,2.6123,2.5732,2.5635,2.4815,2.3583,2.2156,2.0743,1.9324,1.8094,1.7582,1.7622,0.6713,0.7114,0.7471,0.0,0.7544,0.7909,0.0,0.0,0.0,0.0,1.2358,1.3206,1.4088,1.5734,1.7159,1.8313,2.0149,0.0,0.0,0.0,0.0,2.9009,2.6602,2.6144,2.799,2.2822,0.0,1.9183,0.0,1.3867,1.3807,1.4025,1.4318,1.4802,1.8241,2.2971,2.8532,3.1509,3.6193,4.1639,4.1968,4.1923,0.0,0.0,4.2521,4.1549,4.2865,4.3329,4.3329,4.3329,4.3304,4.3278,4.3325,4.3322,4.3351,4.3545,4.4639,4.5415,4.3617,4.3714,4.2883,3.7126,3.4126,3.1694,0.0,0.0,0.0,0.0,0.0,0.0,0.0,0.0,0.0,0.0,0.0,0.0,0.0,0.0,0.0,0.0,0.0,0.0,0.0,0.0,0.0,0.0,0.0,0.0,0.0,0.0,0.0,2.0816,2.241,2.3954,2.5171,2.545,2.6175,2.7178,2.6865,2.666,2.6533,2.6211,2.6006,2.5908,2.5908,2.584,2.5635,2.4609,2.3998,2.3484,2.1049,1.9317,1.8094,1.7681,1.7582,1.7622,0.7047,0.0,0.0,0.8631,0.0,0.0,0.9713,0.0,0.0,1.173,1.2766,0.0,1.4082,1.6433,1.8393,1.9183,2.0998,0.0,0.0,0.0,0.0,2.974,2.9543,2.9679,3.0357,2.6615,0.0,2.1644,0.0,0.0,1.4109,1.3976,1.4117,1.4644,1.7769,2.1831,2.6752,3.2018,3.706,4.1549,4.2132,0.0,0.0,4.3165,4.2865,4.2327,4.306,4.3329,4.3329,4.3329,4.3275,4.3483,4.4679,4.4257,4.3304,4.3322,4.3872,4.4308,4.3703,4.3457,4.2622,3.9297,3.6764,3.4203,3.1069,3.0357,3.0181,0.0,0.0,0.0,0.0,0.0,0.0,0.0,0.0,0.0,0.0,0.0,0.0,0.0,0.0,0.0,0.0,0.0,0.0,0.0,0.0,0.0,0.0,0.0,0.0,2.0562,2.2315,2.38,2.476,2.4634,2.5293,2.6738,2.6504,2.6289,2.6103,2.585,2.5742,2.5742,2.5742,2.5742,2.5635,2.4205,2.3384,2.2567,1.9826,1.8297,1.7582,1.7582,1.7582,1.7642,0.7141,0.0,0.0,0.0,0.0,0.0,0.0,1.1096,0.0,1.2031,0.0,1.3868,1.4027,1.7133,1.9337,1.9736,0.0,2.3665,2.4941,2.6959,2.8437,2.895,3.161,3.2757,3.2062,3.0503,0.0,0.0,0.0,0.0,1.4063,1.3556,1.3708,1.4644,1.7194,0.0,0.0,3.3245,3.8272,0.0,4.2058,4.3225,4.4242,4.3584,4.3329,4.3329,4.3329,4.3329,4.3329,4.3329,4.3126,4.3224,4.562,4.4691,4.2829,4.2458,4.2424,4.24,4.2381,4.1146,3.9914,4.015,3.8398,3.5903,3.3307,3.2754,3.2754,3.2754,3.0846,3.0152,0.0,0.0,0.0,0.0,0.0,0.0,0.0,0.0,0.0,0.0,0.0,0.0,0.0,0.0,0.0,0.0,0.0,0.0,0.0,0.0,0.0,2.0956,2.2656,0.0,2.4763,0.0,2.4479,2.6133,2.625,2.6103,2.5742,2.5742,2.5742,2.5742,2.5742,2.5742,2.5538,2.4097,2.2567,2.0939,1.8499,1.7582,1.7582,1.7582,1.7582,1.7662,0.7448,0.0,0.0,0.0,0.0,1.1516,1.2325,1.2625,1.2946,1.3287,1.4355,1.5431,1.6469,1.8261,1.9875,2.0926,2.2626,0.0,0.0,0.0,0.0,2.9292,3.1721,3.2562,3.1444,2.988,2.7391,0.0,0.0,0.0,1.399,1.3849,1.4085,1.4772,1.7121,0.0,3.1225,3.5459,0.0,4.3599,4.3284,4.3629,4.4242,4.3584,4.3329,4.3329,4.3329,4.3329,4.3329,4.3329,4.2033,4.0603,4.1047,4.0859,4.0134,3.8174,3.7611,3.7638,3.7643,3.8287,3.8653,3.7505,3.7492,3.7456,3.6008,3.5629,3.5629,3.5629,3.5253,3.403,3.0939,0.0,0.0,0.0,0.0,0.0,0.0,0.0,0.0,0.0,0.0,0.0,0.0,0.0,0.0,0.0,0.0,0.0,0.0,0.0,0.0,0.0,0.0,0.0,0.0,0.0,2.4214,2.4775,2.5498,2.581,2.5742,2.5742,2.5742,2.5742,2.5742,2.5742,2.5538,2.3076,2.0531,1.8297,1.7786,1.7582,1.7582,1.7582,1.7582,1.7635,0.0,0.0,0.0,0.0,0.0,0.0,0.0,1.4182,0.0,1.3639,1.4891,1.6082,1.6507,1.8838,2.0666,2.1221,2.2593,2.4236,2.613,2.7101,2.7975,2.8913,3.0202,0.0,2.9834,2.916,2.6901,2.2931,0.0,0.0,1.3974,1.3422,1.3727,1.4893,1.9166,2.4414,0.0,0.0,0.0,4.2342,4.3045,4.3718,4.4242,4.3584,4.3329,4.3329,4.3329,4.3329,4.3329,4.3329,4.1805,3.9662,3.8491,3.8125,3.7854,3.6763,3.6431,3.6547,3.7339,3.7508,3.7469,3.7284,3.7243,3.7057,3.6534,3.6358,3.6358,3.6358,3.5858,3.3801,2.8842,2.4339,0.0,0.0,0.0,0.0,0.0,0.0,0.0,0.0,0.0,0.0,0.0,0.0,0.0,0.0,0.0,0.0,0.0,0.0,0.0,0.0,0.0,0.0,0.0,0.0,0.0,2.5107,2.5537,2.5742,2.5742,2.5742,2.5742,2.5742,2.5742,2.5333,2.4402,2.176,1.942,1.7582,1.7582,1.7582,1.7582,1.7582,1.7582,1.7622,0.0,1.0454,0.0,0.0,1.2806,0.0,1.4416,1.5264,1.5411,1.4262,1.5512,1.6571,1.6646,1.9408,2.1391,2.1695,2.2761,2.4128,2.5782,2.6361,2.6998,2.792,2.8565,2.8757,2.8385,2.8892,2.6993,0.0,0.0,0.0,0.0,1.3078,1.4112,0.0,0.0,0.0,0.0,0.0,3.8886,4.1339,4.2611,4.3614,4.4227,4.3434,4.321,4.325,4.2996,4.29,4.29,4.2644,4.1367,3.9536,3.7686,3.6762,3.6442,3.6442,3.6392,3.6653,3.786,3.7346,3.6628,3.7494,3.707,3.6358,3.6358,3.6358,3.6358,3.6061,3.4666,3.2139,2.7334,2.4588,0.0,0.0,0.0,0.0,0.0,0.0,0.0,0.0,0.0,0.0,0.0,0.0,0.0,0.0,0.0,0.0,0.0,0.0,0.0,0.0,0.0,2.4512,2.5293,0.0,2.5049,0.0,2.5644,2.5742,2.5742,2.5742,2.5742,2.5635,2.543,2.4304,2.2676,2.0444,1.8812,1.7582,1.7582,1.7582,1.7582,1.7582,1.7582,1.7609,0.0,0.0,0.0,0.0,0.0,0.0,0.0,1.5264,1.5778,1.5645,1.6779,1.7988,1.9027,2.0399,2.1756,2.2872,2.3757,2.4326,2.4588,2.6444,2.7022,2.6041,2.815,2.88,2.7704,2.9483,2.8231,0.0,0.0,0.0,0.0,1.3388,0.0,0.0,0.0,0.0,0.0,3.6941,3.9948,4.3853,4.2865,4.3195,4.4182,4.2925,4.2821,4.3155,4.2111,4.1767,4.1601,4.0575,4.0118,3.9875,3.9605,3.8143,3.6377,3.6377,3.6414,3.6452,3.6559,3.6559,3.6452,3.6534,3.6452,3.6358,3.6358,3.6358,3.6061,3.4872,3.2555,2.987,2.7062,2.6825,2.5572,0.0,0.0,0.0,0.0,0.0,0.0,0.0,0.0,0.0,0.0,0.0,0.0,0.0,0.0,0.0,0.0,0.0,0.0,2.1981,0.0,2.2764,2.1728,2.4707,0.0,2.4551,2.5352,2.5742,2.5742,2.5742,2.5742,2.5635,2.4402,2.2366,1.993,1.9731,1.8812,1.7582,1.7582,1.7582,1.7582,1.7582,1.7582,1.7549,0.0,0.0,0.0,0.0,0.0,0.0,0.0,1.5605,1.5832,1.5832,1.6943,1.8141,1.9405,2.0576,2.1756,2.296,2.3457,2.376,2.4023,2.5053,2.5605,2.5322,2.6337,2.6742,2.6466,2.7034,2.5733,0.0,0.0,0.0,0.0,0.0,0.0,0.0,0.0,3.1915,3.56,3.8117,4.0502,4.2506,4.1983,4.2087,4.2536,4.2417,4.2521,4.2634,4.1884,4.1587,4.142,4.0318,3.9448,3.8827,3.8827,3.7691,3.6358,3.6358,3.6358,3.6358,3.6358,3.6358,3.6358,3.6358,3.6358,3.6358,3.6358,3.5775,3.5078,3.4483,3.2241,2.9776,2.7914,2.6556,2.5381,0.0,0.0,0.0,0.0,0.0,0.0,0.0,0.0,0.0,0.0,0.0,0.0,0.0,0.0,0.0,0.0,0.0,0.0,2.0264,0.0,2.2934,2.2412,2.3994,2.4501,2.4007,2.4342,2.451,2.451,2.5333,2.5226,2.4402,2.3076,2.1355,1.9524,1.8708,1.8094,1.7582,1.7582,1.7582,1.7562,1.7388,1.7321,1.7281,1.4021,0.0,1.3874,0.0,1.4736,1.4877,1.5705,1.5832,1.5832,1.5832,1.6574,1.7584,1.8864,2.0395,2.1658,2.2492,2.2978,2.3457,2.3769,2.4307,2.4746,2.5059,2.5195,0.0,2.5732,2.543,2.4423,2.2653,2.2254,0.0,0.0,2.1064,0.0,0.0,3.2019,3.4861,3.6581,3.9473,4.095,4.1369,4.1175,4.1039,4.0988,4.1592,4.1674,4.1397,4.1334,4.1179,4.0916,3.9798,3.8827,3.8107,3.8107,3.7322,3.6358,3.6358,3.6358,3.6358,3.6358,3.6358,3.6358,3.6358,3.6358,3.6358,3.6358,3.5667,3.4775,3.397,3.1633,2.9408,2.8495,2.6797,2.5664,2.6016,0.0,0.0,0.0,0.0,0.0,0.0,0.0,2.1396,0.0,0.0,0.0,0.0,0.0,0.0,0.0,0.0,0.0,0.0,0.0,0.0,0.0,2.3153,2.34,2.3692,2.3692,2.3692,2.3692,2.4707,2.4196,2.2466,2.1448,2.0333,1.8916,1.7989,1.7582,1.7582,1.7582,1.7528,1.7428,1.7228,1.7094,1.6974,1.4776,1.471,1.4783,1.5658,1.5812,1.5812,1.5825,1.5832,1.5832,1.5832,1.5825,1.6298,1.7598,1.9852,2.1293,2.1293,2.2872,2.3779,2.3789,2.459,2.5059,0.0,0.0,2.5732,2.5742,2.5732,2.5723,2.5693,0.0,0.0,1.3226,2.8718,3.445,3.179,3.3778,3.6773,4.0382,4.107,4.1369,4.1324,4.0666,4.0138,3.9894,4.0262,3.9822,3.92,4.0228,4.0308,3.9724,3.8559,3.8107,3.8107,3.8107,3.7322,3.6358,3.6358,3.6358,3.6358,3.6358,3.6358,3.6358,3.6358,3.6358,3.6358,3.6358,3.6358,3.5655,3.2944,3.0214,2.8291,2.8291,2.8271,2.7275,2.4307,0.0,0.0,0.0,0.0,0.0,0.0,1.8516,1.739,2.0283,0.0,0.0,0.0,0.0,0.0,0.0,0.0,0.0,1.9281,1.8927,0.0,2.2519,2.2407,2.2749,2.3692,2.3692,2.3692,2.3692,2.3692,2.2265,1.9627,1.9627,1.8812,1.7582,1.7582,1.7582,1.7582,1.7582,1.7408,1.7154,1.7148,1.6967,1.6667,1.5838,1.5778,1.5738,1.5812,1.5832,1.5832,1.5832,1.5832,1.5832,1.5832,1.5832,1.592,1.6386,1.7855,1.9222,0.0,2.1329,2.2138,0.0,2.3664,2.4619,2.4619,2.5332,2.5742,2.5742,2.5742,2.5742,2.5742,0.0,0.0,0.0,3.2177,3.5295,3.4885,3.621,3.7901,3.9753,3.9963,3.9639,3.8906,3.8687,3.8079,3.7377,3.8025,3.8032,3.7827,3.8232,3.8222,3.8025,3.7193,3.6977,3.6977,3.6977,3.6722,3.6358,3.6358,3.6358,3.6358,3.6358,3.6358,3.6358,3.6358,3.6358,3.6358,3.6358,3.4945,3.2833,3.012,2.89,2.8291,2.8291,2.8291,2.7793,2.624,2.6562,0.0,0.0,0.0,0.0,0.0,0.0,2.2256,0.0,1.9797,0.0,0.0,0.0,0.0,0.0,0.0,0.0,0.0,1.9081,0.0,2.21,2.289,2.2998,2.2357,2.2357,2.2357,2.2357,2.2357,2.1347,1.9627,1.9627,1.8812,1.7569,1.7368,1.7288,1.7268,1.7068,1.6927,1.6827,1.6627,1.6493,1.6366,1.6473,1.6346,1.6253,1.6172,1.5972,1.5865,1.5979,1.5899,1.5832,1.5832,1.5832,1.5832,1.5832,1.648,0.0,1.868,1.9943,2.0666,2.0666,2.2391,2.3594,2.3746,2.4813,2.5566,2.5732,0.0,0.0,2.5742,2.6365,2.8345,3.1585,3.4079,3.5452,3.583,3.6802,3.7572,3.8204,3.8204,3.7814,3.7175,3.7175,3.654,3.5709,3.6479,3.6457,3.6106,3.6927,3.7157,3.6924,3.6819,3.6749,3.6695,3.6471,3.6358,3.6358,3.6358,3.6358,3.6358,3.6358,3.6358,3.6358,3.6358,3.6358,3.6358,3.6358,3.4654,3.2443,3.0214,2.9408,2.89,2.8398,2.8164,2.7822,2.7129,2.6885,2.6533,2.584,0.0,0.0,0.0,0.0,0.0,0.0,2.0301,0.0,0.0,0.0,0.0,0.0,0.0,0.0,1.6883,1.8831,0.0,2.2129,2.1979,2.1753,2.1445,2.1079,2.0947,2.0947,2.0947,2.0059,1.8743,1.8743,1.8163,1.7241,1.7061,1.6981,1.6967,1.678,1.664,1.652,1.6339,1.6206,1.6079,1.674,1.6506,0.0,0.0,1.6239,0.0,1.6233,1.6039,1.5852,1.5832,1.5832,1.5832,1.5832,1.5832,1.6292,1.7505,0.0,0.0,0.0,2.1051,2.2188,2.255,2.4231,2.5264,2.5684,2.5723,2.5742,2.5742,2.7431,2.9818,3.2864,3.4347,3.5123,3.5205,3.5816,3.6119,3.6198,3.6198,3.6119,3.6132,3.6132,3.5507,3.4664,3.5668,3.505,3.4097,3.6248,3.6696,3.6432,3.695,3.7161,3.7088,3.6531,3.6358,3.6358,3.6358,3.6358,3.6358,3.6358,3.6358,3.6358,3.6358,3.6358,3.6358,3.6156,3.5174,3.3871,3.2342,3.1019,2.9807,2.8495,2.7949,2.751,2.7051,2.6621,2.6182,2.5713,0.0,0.0,0.0,0.0,0.0,0.0,1.8717,1.8339,0.0,0.0,0.0,0.0,0.0,1.3614,1.821,1.8251,1.9637,2.2559,2.0418,1.9898,2.0966,1.9913,1.9361,1.9361,1.9361,1.859,1.7121,1.7121,1.6961,1.6707,1.6687,1.6673,1.6673,1.6653,1.648,1.6246,1.6246,1.6066,1.5832,0.0,0.0,1.6627,1.6693,1.6406,1.6192,1.6259,1.6213,1.6086,1.5858,1.5832,1.5832,1.5832,1.5832,1.592,1.6197,1.7404,1.8141,1.8141,2.0591,2.207,2.2161,2.4087,2.5117,2.5225,2.5566,2.5742,2.5742,2.7974,2.9487,3.0285,3.2562,3.4004,3.4799,3.4992,3.5521,3.6198,3.6198,3.5734,3.5047,3.5047,3.4415,3.3471,3.37,3.3632,3.3406,3.4318,3.4635,3.4653,3.5645,3.5976,3.5986,3.6276,3.6358,3.6358,3.6358,3.6358,3.6358,3.6358,3.6358,3.6358,3.6358,3.6358,3.5858,3.3737,3.3044,3.214,2.9713,2.8996,2.8698,2.8398,2.7949,2.7422,2.666,2.6172,2.5615,2.4834,2.4727,0.0,0.0,2.2711,2.1805,2.1248,1.9248,1.7447,0.0,0.0,0.0,0.0,1.3621,1.4961,1.9096,1.9512,2.0458,2.2161,2.2823,2.2342,2.0702,1.8445,1.7406,1.7406,1.7406,1.717,1.6807,1.6807,1.6774,1.6687,1.6466,1.6373,1.6353,1.6126,1.5992,1.5932,1.5932,1.5885,1.5832,1.6981,1.6707,1.6553,1.6687,1.6353,1.6119,1.6253,1.6159,1.6012,1.5852,1.5832,1.5832,1.5832,1.5832,1.5832,1.5832,1.6386,1.6857,1.6857,1.8862,2.034,2.1067,2.2981,2.4288,2.5059,2.5508,2.5742,2.5742,2.7673,2.8866,2.9407,3.1323,3.2834,3.3953,3.3953,3.4262,3.4802,3.4802,3.4498,3.3953,3.3953,3.3641,3.3081,3.3081,3.3081,3.3119,3.342,3.352,3.3658,3.4512,3.4964,3.5265,3.5818,3.5994,3.5994,3.5994,3.6157,3.6358,3.6358,3.6358,3.6358,3.6358,3.6358,3.5858,3.3749,3.3254,3.2487,2.9559,2.9066,2.8886,2.7878,2.7363,2.6865,2.6201,2.5557,2.4971,2.4482,2.3942,0.0,2.3306,2.2041,2.0821,2.0105,1.8621,1.7202,1.5963,0.0,0.0,1.4877,1.473,1.5617,1.7725,1.9124,2.0155,2.0815,2.1838,2.1165,1.8837,1.7385,1.6707,1.6707,1.6707,1.6321,1.5588,1.5588,1.5214,1.4493,1.435,1.4686,1.5164,1.5006,1.5337,1.5832,1.5832,1.5832,1.573,1.6707,1.6473,1.6359,1.6653,1.6259,1.5979,1.6239,1.6059,1.5879,1.5838,1.5832,1.5832,1.5832,1.5832,1.5832,1.5832,1.5832,1.5832,1.5832,1.6943,1.8357,1.9926,2.1687,2.3344,2.4961,2.5478,2.5742,2.5742,2.6945,2.8226,2.9407,3.0676,3.1865,3.3081,3.3081,3.3081,3.3081,3.3081,3.3081,3.3081,3.3081,3.3081,3.3081,3.3081,3.3081,3.3081,3.3081,3.3081,3.3156,3.3709,3.4211,3.47,3.5253,3.5416,3.5416,3.5416,3.5742,3.6107,3.6107,3.6169,3.6232,3.6232,3.6232,3.5911,3.445,3.3979,3.2903,3.0113,2.9586,2.9075,2.7147,2.6475,2.5967,2.5264,2.4687,2.4117,2.3596,0.0,2.2204,2.1686,2.0517,1.9183,1.7807,1.7505,1.6943,1.5927,1.5832,1.5832,0.0,1.5832,1.5832,1.5832,1.8033,1.9314,1.9497,1.9329,1.8495,1.6864,1.6673,1.6573,1.6573,1.6573,1.5722,1.4201,1.4201,1.3389,1.1945,1.1945,1.2528,1.3584,1.3584,1.4268,1.5248,1.5248,1.5248,1.5051,1.6707,1.6473,1.6359,1.6653,1.6426,1.6219,1.6266,1.6233,1.6112,1.5865,1.5832,1.5832,1.5832,1.5832,1.5832,1.5832,1.5832,1.5832,1.5832,1.6943,1.8257,1.9571,2.1547,2.3205,2.4512,2.5322,2.5742,2.5742,2.6945,2.8226,2.9407,3.0676,3.1865,3.3081,3.3081,3.3081,3.3081,3.3081,3.3081,3.3081,3.3081,3.3081,3.3081,3.3081,3.3081,3.3081,3.3081,3.3081,3.3156,3.3709,3.396,3.4123,3.4675,3.4851,3.4851,3.4851,3.4914,3.4977,3.4977,3.5316,3.5667,3.5667,3.5667,3.5158,3.3337,3.1843,3.0365,2.8773,2.7374,2.6281,2.5957,2.5566,2.4658,2.2783,2.3271,2.288,1.998,0.0,2.1095,2.0044,1.8859,1.8016,1.7692,1.6763,1.6015,1.5825,1.5832,1.5832,1.5832,1.5832,1.5832,1.5832,1.7217,1.8503,1.9488,1.7434,1.6855,1.7559,1.6436,1.5965,1.5965,1.5965,1.5249,1.3937,1.3937,1.3136,1.1945,1.1945,1.2042,1.2237,1.2237,1.2334,1.2528,1.2528,1.2528,1.2431,1.6233,1.6126,1.6079,1.6206,1.6119,1.6032,1.6032,1.6032,1.5985,1.5845,1.5832,1.5832,1.5832,1.5832,1.5832,1.5832,1.5832,1.5832,1.5832,1.6943,1.8234,1.9405,2.1318,2.3066,2.4756,2.5166,2.5498,2.5742,2.6294,2.721,2.8402,2.9039,3.0226,3.2052,3.2052,3.2426,3.3081,3.3081,3.3081,3.3081,3.3081,3.3081,3.3081,3.3081,3.3081,3.3081,3.3081,3.3081,3.3119,3.337,3.3658,3.3935,3.4198,3.4274,3.4274,3.4274,3.4487,3.4726,3.4726,3.4914,3.5102,3.5102,3.4876,3.4214,3.262,3.094,2.9294,2.7746,2.6446,2.5596,2.5117,2.4853,2.4316,2.3105,2.3203,0.0,2.0422,2.0219,1.9852,1.868,1.7404,1.6669,1.6669,1.552,1.4752,1.4752,1.4076,1.398,1.4752,1.4752,1.4752,1.4752,1.6648,1.7963,1.8503,1.7404,1.6756,1.6662,1.6109,1.5832,1.5737,1.5051,1.4076,1.2813,1.2134,1.1063,0.9801,0.9801,1.019,1.0877,1.0877,1.1268,1.1945,1.1945,1.1945,1.1755,1.5832,1.5832,1.5832,1.5832,1.5832,1.5832,1.5832,1.5832,1.5832,1.5832,1.5832,1.5832,1.5832,1.5832,1.5832,1.5832,1.5832,1.5832,1.5832,1.6943,1.8141,1.9039,2.0976,2.2917,2.4902,2.501,2.5234,2.5586,2.5684,2.638,2.7589,2.7589,2.8866,3.1223,3.1223,3.1777,3.2698,3.2698,3.2698,3.2698,3.2698,3.2797,3.3081,3.3081,3.3081,3.3081,3.3081,3.3081,3.3081,3.3081,3.3357,3.3709,3.3709,3.3709,3.3709,3.3709,3.401,3.4374,3.45,3.4525,3.45,3.4374,3.4022,3.3358,3.2079,3.0244,2.8521,2.7158,2.595,2.4922,2.4248,2.4121,2.3787,2.2794,0.0,2.1989,2.0088,1.9454,1.8588,1.7404,1.6386,1.5635,1.5439,1.4459,1.3776,1.3488,1.2528,1.2334,1.3392,1.3392,1.3392,1.3392,1.5589,1.664,1.6344,1.6633,1.6177,1.486,1.486,1.486,1.4854,1.3878,1.2716,1.1361,1.0386,0.9217,0.8038,0.8038,0.8627,0.9509,0.9509,1.0096,1.097,1.097,1.097,1.0877,1.5832,1.5832,1.5832,1.5832,1.5832,1.5832,1.5832,1.5832,1.5832,1.5832,1.5832,1.5832,1.5832,1.5832,1.5832,1.5832,1.5832,1.5832,1.5832,1.6943,1.7777,1.787,2.0508,2.2787,2.4453,2.4863,2.5088,2.5117,2.5527,2.638,2.7589,2.7589,2.8866,3.1223,3.1223,3.1223,3.1311,3.1311,3.1311,3.1311,3.1311,3.2052,3.3081,3.3081,3.3081,3.3081,3.3081,3.3081,3.3081,3.3081,3.3106,3.3131,3.3131,3.3131,3.3131,3.3131,3.3169,3.3307,3.3822,3.396,3.3834,3.3319,3.3169,3.2867,3.1718,2.9344,2.7453,2.7323,2.5117,2.331,2.3242,2.3232,2.2256,1.9489,0.0,0.0,1.6102,1.6907,1.7404,1.6109,1.5832,1.5337,1.4166,1.3974,1.3392,1.2139,1.1945,1.1945,1.2042,1.2042,1.2042,1.2042,1.3392,1.3584,1.2328,1.3584,1.3488,1.2237,1.2237,1.2237,1.2139,1.2042,1.1361,1.0096,0.9998,0.9217,0.8038,0.8038,0.8038,0.8137,0.8137,0.8237,0.8333,0.8333,0.8333,0.8233,1.685,1.6943,1.7217,1.794,1.749,1.6943,1.6943,1.6298,1.5832,1.5832,1.5832,1.5832,1.5832,1.5832,1.5832,1.5832,1.5832,1.5832,1.5832,1.6292,1.7576,1.9852,2.0995,2.237,2.4014,2.4443,2.4795,2.5068,2.5518,2.5917,2.639,2.639,2.7305,2.8947,2.8947,2.9407,3.0045,3.0045,3.0045,3.0135,3.0855,3.15,3.2052,3.2797,3.3081,3.3081,3.3081,3.3081,3.3081,3.3081,3.3081,3.3081,3.3081,3.3081,3.3081,3.3081,3.3081,3.3119,3.3332,3.3382,3.3257,3.2692,3.229,3.1647,3.0196,2.8268,2.6585,2.5901,2.4333,2.3135,2.3135,2.3135,2.2476,2.0585,0.0,2.0188,1.7183,1.7279,1.7225,1.592,1.5832,1.5337,1.3974,1.3108,1.2134,1.0779,0.9998,0.9801,1.0681,1.0681,1.0681,1.0681,1.1263,1.1653,1.1945,1.2431,1.2431,1.1945,1.1945,1.1945,1.1853,1.1072,1.0485,0.9998,0.9118,0.8432,0.8038,0.8038,0.8038,0.8038,0.8038,0.8038,0.8038,0.8038,0.8038,0.8038,1.7412,1.7692,1.8048,1.9314,1.8503,1.7692,1.7692,1.6574,1.5832,1.5832,1.5832,1.5832,1.5832,1.5832,1.5832,1.5832,1.5832,1.5832,1.5832,1.6197,1.7483,2.0034,2.0567,2.1428,2.3009,2.3813,2.4434,2.4863,2.5312,2.5596,2.5742,2.5742,2.638,2.7589,2.7589,2.8049,2.8866,2.8866,2.8866,2.8947,3.0135,3.0855,3.1311,3.2612,3.3081,3.3081,3.3081,3.3081,3.3081,3.3081,3.3081,3.3081,3.3081,3.3081,3.3081,3.3081,3.2955,3.2805,3.2805,3.2679,3.2453,3.2051,3.1549,3.0742,2.8994,2.7533,2.6141,2.5041,2.3877,2.3135,2.3135,2.3135,2.2589,2.1025,2.0747,1.9852,1.7498,1.7131,1.6763,1.592,1.5439,1.4657,1.3392,1.2037,1.0779,0.9509,0.8531,0.8432,0.9312,0.941,0.941,0.941,0.941,0.9801,1.0681,1.1068,1.1068,1.0681,1.0681,1.0681,1.0681,0.9801,0.941,0.9312,0.8432,0.8038,0.8038,0.8038,0.8038,0.8038,0.8038,0.8038,0.8038,0.8038,0.8038,0.8038,1.7505,1.7692,1.8141,1.9314,1.8503,1.7684,1.7684,1.6662,1.5832,1.5832,1.5832,1.5832,1.5832,1.5832,1.5832,1.5832,1.5832,1.5832,1.5832,1.6943,1.7684,1.7692,1.8864,2.0124,2.1293,2.291,2.3994,2.4414,2.4853,2.5293,2.5732,2.5742,2.639,2.7589,2.7589,2.7589,2.7589,2.7589,2.7589,2.7673,2.8866,3.0135,3.1311,3.2612,3.3081,3.3081,3.3081,3.3081,3.3081,3.3081,3.3081,3.3081,3.3081,3.3081,3.3068,3.3068,3.2667,3.2202,3.2202,3.18,3.1386,3.1386,3.0997,3.0127,2.8467,2.729,2.6141,2.5041,2.3877,2.3135,2.3135,2.3047,2.2315,1.9861,1.9488,1.858,1.6103,1.5832,1.5832,1.5832,1.4657,1.3392,1.2042,1.0779,0.941,0.8137,0.8038,0.8038,0.8038,0.8038,0.8038,0.8038,0.8038,0.8038,0.8038,0.9312,0.9312,0.8038,0.8038,0.8038,0.8038,0.8038,0.8038,0.8038,0.8038,0.8038,0.8038,0.8038,0.8038,0.8038,0.8038,0.8038,0.8038,0.8038,0.8038,0.8038,1.868,1.967,2.0576,2.1854,2.0314,1.8956,1.8956,1.7117,1.5832,1.5832,1.5832,1.5832,1.5832,1.5832,1.5832,1.5832,1.5832,1.5832,1.5832,1.6204,1.6756,1.7692,1.9679,2.1302,2.258,2.3376,2.3857,2.3975,2.4707,2.5137,2.5273,2.5596,2.5917,2.6294,2.6294,2.6294,2.6294,2.6294,2.6294,2.639,2.7673,2.8866,3.0045,3.1311,3.2326,3.3081,3.3081,3.3081,3.3081,3.3081,3.3081,3.3081,3.3081,3.2805,3.2466,3.2466,3.2064,3.1637,3.1637,3.1248,3.0846,3.0846,3.0733,2.9955,2.7499,2.6719,2.5975,2.4049,2.3299,2.3135,2.3135,2.2403,2.1302,1.9761,1.8772,1.7677,1.6015,1.5832,1.5832,1.5832,1.5439,1.437,1.2139,1.1556,1.0386,0.8137,0.8038,0.8038,0.8038,0.8038,0.8038,0.8038,0.8038,0.8038,0.8038,0.8432,0.8432,0.8038,0.8038,0.8038,0.8038,0.8038,0.8038,0.8038,0.8038,0.8038,0.8038,0.8038,0.8038,0.8038,0.8038,0.8048,0.7962,0.7962,0.7962,0.7962,1.9222,2.0486,2.1658,2.2862,2.1498,2.0034,1.9579,1.7855,1.6386,1.5825,1.5832,1.5832,1.5832,1.5832,1.5832,1.5832,1.5832,1.5832,1.5832,1.6292,1.7124,1.8319,2.0305,2.1658,2.2394,2.3123,2.3613,2.3789,2.4307,2.4648,2.4814,2.5264,2.5478,2.5478,2.5664,2.5742,2.5742,2.5742,2.5742,2.582,2.7579,2.8773,2.959,3.1323,3.2426,3.3081,3.3081,3.3081,3.3043,3.2805,3.2591,3.2416,3.2416,3.2164,3.1888,3.1888,3.1499,3.1085,3.1085,3.0696,3.0281,3.0281,3.0281,2.9616,2.7044,2.6483,2.5808,2.3551,2.3135,2.3135,2.3135,2.212,2.0935,1.967,1.8503,1.7225,1.6015,1.5832,1.5832,1.5832,1.5343,1.4465,1.2813,1.175,1.0288,0.8137,0.8038,0.8038,0.8038,0.8038,0.8038,0.8038,0.8038,0.8038,0.8038,0.8038,0.8038,0.8038,0.8038,0.8038,0.8038,0.8038,0.8038,0.8038,0.8038,0.8038,0.8038,0.8038,0.8038,0.8041,0.8048,0.7962,0.7869,0.6848,0.6442,0.6545,1.9314,2.0576,2.1845,2.2872,2.2031,2.0755,1.9679,1.8411,1.7131,1.592,1.5832,1.5832,1.5832,1.5832,1.5832,1.5832,1.5832,1.5832,1.5832,1.685,1.8141,1.9405,2.0567,2.1203,2.148,2.258,2.333,2.373,2.3769,2.3984,2.4375,2.4805,2.5029,2.5088,2.5498,2.5703,2.5742,2.5742,2.5742,2.5917,2.8121,2.9223,2.9681,3.1877,3.2896,3.3081,3.3081,3.3081,3.2993,3.2403,3.1838,3.1386,3.1386,3.143,3.1473,3.1311,3.1027,3.0612,3.0545,3.0168,2.9792,2.9792,2.9702,2.9118,2.6976,2.6483,2.5808,2.3551,2.3135,2.3135,2.3135,2.2031,2.0755,1.967,1.8411,1.7131,1.592,1.5832,1.5832,1.5832,1.4752,1.407,1.3878,1.1551,0.9509,0.8233,0.8038,0.8038,0.8038,0.8038,0.8038,0.8038,0.8038,0.8038,0.8038,0.8038,0.8038,0.8038,0.8038,0.8038,0.8038,0.8038,0.8038,0.8038,0.8038,0.8038,0.8038,0.8038,0.8038,0.8041,0.7965,0.7869,0.7359,0.5127,0.4017,0.4017,1.9405,2.1221,2.2775,2.3047,2.1311,1.9761,1.9588,1.7669,1.6109,1.5825,1.5832,1.5832,1.5832,1.5832,1.5832,1.5832,1.5832,1.5832,1.5832,1.6015,1.721,1.9397,1.9761,2.0764,2.2677,2.296,2.3184,2.3281,2.3623,2.3838,2.3935,2.4355,2.4746,2.5068,2.5166,2.541,2.5742,2.5742,2.5742,2.5732,2.6294,2.7673,2.9498,2.9954,3.1424,3.3081,3.3081,3.3081,3.2993,3.2403,3.1838,3.1386,3.1386,3.1621,3.1721,3.0998,3.0893,3.0877,3.0175,2.988,2.9792,2.9792,2.9106,2.8108,2.6801,2.6483,2.5808,2.3551,2.3135,2.3135,2.3135,2.1311,1.9761,1.9588,1.7669,1.6109,1.5825,1.5832,1.5832,1.5832,1.5534,1.5045,1.3974,1.1551,0.9899,0.9608,0.8627,0.8038,0.8038,0.8038,0.8038,0.8038,0.8038,0.8038,0.8038,0.8038,0.8038,0.8038,0.8038,0.8038,0.8038,0.8038,0.8038,0.8038,0.8038,0.8038,0.8038,0.8038,0.8038,0.8041,0.7965,0.6748,0.5027,0.657,0.4435,0.1507,1.868,2.0133,2.14,2.14,2.0314,1.9314,1.8772,1.7584,1.648,1.5927,1.5832,1.5832,1.5832,1.5832,1.5832,1.5832,1.5705,1.5678,1.5818,1.5698,1.6707,1.9151,1.9151,2.0227,2.2454,2.2539,2.2744,2.3135,2.3164,2.2997,2.2636,2.3422,2.376,2.3607,2.4378,2.4883,2.5117,2.5332,2.542,2.5526,2.63,2.7757,2.9498,3.0045,3.1424,3.3043,3.2767,3.2164,3.1424,3.0846,3.0457,3.0284,3.0739,3.1226,3.1543,3.1319,3.1213,3.1022,3.0405,2.9564,2.9015,2.9015,2.8187,2.7197,2.6637,2.6058,2.5221,2.3474,2.3135,2.3135,2.3135,2.1132,1.9497,1.9497,1.739,1.5832,1.5832,1.5832,1.5832,1.5832,1.5832,1.5337,1.3974,1.2614,1.1356,1.0096,0.9312,0.8627,0.8038,0.8038,0.8038,0.8038,0.8038,0.8038,0.8038,0.8048,0.7955,0.7955,0.7955,0.7955,0.7955,0.7955,0.8048,0.8038,0.8038,0.8038,0.8038,0.7952,0.7955,0.7959,0.7985,0.7175,0.5751,0.4647,0.2418,0.0603,1.7963,1.8772,1.9588,1.9761,1.9497,1.8864,1.787,1.7505,1.7037,1.592,1.5832,1.5832,1.5832,1.5785,1.5752,1.5752,1.5491,1.5424,1.5665,1.5458,1.6301,1.8427,1.8684,1.9592,2.1543,2.1792,2.2227,2.292,2.2578,2.2045,2.1465,2.2476,2.2627,2.2116,2.3539,2.4199,2.4228,2.4746,2.4951,2.5085,2.6826,2.82,2.9375,3.0636,3.1683,3.2448,3.1875,3.0692,2.9322,2.9013,2.8863,2.8949,3.0045,3.0811,3.1362,3.1721,3.1699,3.1286,3.0633,2.9279,2.8096,2.8096,2.7116,2.6224,2.6224,2.5462,2.4457,2.3299,2.3135,2.3135,2.3135,2.1311,1.9761,1.9488,1.7576,1.6015,1.5832,1.5832,1.5832,1.5832,1.5832,1.5439,1.4364,1.407,1.3,1.0872,1.0293,0.9509,0.8432,0.8137,0.8038,0.8038,0.8038,0.8038,0.8038,0.7962,0.7769,0.7359,0.7775,0.7772,0.7359,0.7772,0.7965,0.8048,0.8045,0.8045,0.8048,0.7965,0.7769,0.7363,0.7808,0.8026,0.7305,0.2019,0.0,0.0402,1.9039,1.9405,1.9852,2.0845,1.9314,1.787,1.7692,1.6756,1.6015,1.5825,1.5832,1.5832,1.5832,1.5605,1.5451,1.5451,1.519,1.5037,1.5077,1.5044,1.5624,1.7007,1.7961,1.9067,2.0382,2.1441,2.1943,2.206,2.2002,2.1919,2.1791,2.1967,2.2191,2.2437,2.3028,2.331,2.3369,2.417,2.4502,2.4634,2.6341,2.7694,2.8858,3.0021,3.0369,3.017,2.9711,2.8795,2.7908,2.8636,2.8612,2.8432,2.9915,3.102,3.1664,3.1409,3.1809,3.206,3.0381,2.8998,2.8096,2.8096,2.6521,2.5041,2.5041,2.4872,2.4457,2.3299,2.3135,2.3135,2.3135,2.1943,2.0747,1.9679,1.8319,1.7037,1.592,1.5832,1.5832,1.5832,1.5832,1.573,1.5534,1.4561,1.3776,1.3392,1.1258,0.9899,0.9706,0.8627,0.8038,0.8038,0.8038,0.8038,0.8038,0.7962,0.6848,0.452,0.6874,0.6773,0.462,0.6959,0.7985,0.7982,0.7972,0.7975,0.7982,0.7975,0.6645,0.4724,0.7086,0.8026,0.7305,0.2019,0.0,0.0404,1.7296,1.739,1.7569,1.811,1.739,1.6669,1.6669,1.6204,1.5832,1.5832,1.5832,1.5832,1.5832,1.5571,1.5331,1.517,1.4883,1.4783,1.495,1.481,1.5479,1.7266,1.7778,1.8774,2.0382,2.0893,2.1152,2.1152,2.1406,2.1293,2.082,2.1284,2.1399,2.1184,2.1996,2.2441,2.248,2.3096,2.3359,2.3389,2.4436,2.5908,2.748,2.764,2.8218,2.8865,2.8028,2.7569,2.7422,2.7501,2.7914,2.8472,2.921,3.0497,3.1611,3.1289,3.1462,3.1616,3.052,2.9169,2.7936,2.7371,2.5953,2.4628,2.3963,2.3887,2.3714,2.3222,2.3135,2.3135,2.3135,2.212,2.0935,1.967,1.8503,1.7225,1.6015,1.5832,1.5832,1.5832,1.5832,1.5832,1.5832,1.5337,1.4657,1.3974,1.2807,1.1551,1.0096,0.941,0.8726,0.8038,0.8038,0.8038,0.8038,0.7969,0.6651,0.4016,0.6687,0.5768,0.1808,0.3016,0.4325,0.5739,0.5734,0.6651,0.7992,0.7999,0.7284,0.606,0.4241,0.3536,0.3232,0.0909,0.0,0.0403]}]]